<?xml version='1.0' encoding='UTF-8'?><gpx version="1.1" creator="JPX - https://github.com/jenetics/jpx" xmlns="http://www.topografix.com/GPX/1/1"><trk><trkseg><trkpt lat="47.24673788067628" lon="-1.568703521044523"><ele>29.000000000000004</ele><time>2026-03-23T16:30:00.06Z</time></trkpt><trkpt lat="47.24673859313805" lon="-1.5686072967961138"><ele>29.0</ele><time>2026-03-23T16:30:02.059Z</time></trkpt><trkpt lat="47.24674655594606" lon="-1.5687049459680622"><ele>29.000000000000004</ele><time>2026-03-23T16:30:02.997Z</time></trkpt><trkpt lat="47.246700162112006" lon="-1.5688037686064549"><ele>29.000000000000004</ele><time>2026-03-23T16:30:08.998Z</time></trkpt><trkpt lat="47.246639267585465" lon="-1.5687387250378435"><ele>29.0</ele><time>2026-03-23T16:30:24.999Z</time></trkpt><trkpt lat="47.24670678381551" lon="-1.5687812212869234"><ele>29.000000000000004</ele><time>2026-03-23T16:30:28Z</time></trkpt><trkpt lat="47.24677530587394" lon="-1.5688189398511954"><ele>29.000000000000004</ele><time>2026-03-23T16:30:31Z</time></trkpt><trkpt lat="47.246839385523685" lon="-1.5688226278885908"><ele>29.0</ele><time>2026-03-23T16:30:33Z</time></trkpt><trkpt lat="47.246939968361744" lon="-1.568797565998108"><ele>29.0</ele><time>2026-03-23T16:30:36Z</time></trkpt><trkpt lat="47.24699574992736" lon="-1.5687249787166422"><ele>29.0</ele><time>2026-03-23T16:30:38Z</time></trkpt><trkpt lat="47.24701263946225" lon="-1.5686179418131416"><ele>29.0</ele><time>2026-03-23T16:30:40Z</time></trkpt><trkpt lat="47.24705781792034" lon="-1.5685034450158184"><ele>29.0</ele><time>2026-03-23T16:30:42Z</time></trkpt><trkpt lat="47.247134889520005" lon="-1.5683835838004652"><ele>28.799999999999997</ele><time>2026-03-23T16:30:44Z</time></trkpt><trkpt lat="47.247128309726016" lon="-1.5682426840081514"><ele>28.599999999999998</ele><time>2026-03-23T16:30:46Z</time></trkpt><trkpt lat="47.2471586522155" lon="-1.5680944081410468"><ele>28.4</ele><time>2026-03-23T16:30:48Z</time></trkpt><trkpt lat="47.24717336245556" lon="-1.5679381694659291"><ele>28.2</ele><time>2026-03-23T16:30:50Z</time></trkpt><trkpt lat="47.24719607741316" lon="-1.5677819307908114"><ele>28.0</ele><time>2026-03-23T16:30:52Z</time></trkpt><trkpt lat="47.247218457094625" lon="-1.5676481556161936"><ele>28.0</ele><time>2026-03-23T16:30:54Z</time></trkpt><trkpt lat="47.24723936994304" lon="-1.5675200801357323"><ele>27.999999999999996</ele><time>2026-03-23T16:30:56Z</time></trkpt><trkpt lat="47.24730604798277" lon="-1.5674767456963354"><ele>27.999999999999996</ele><time>2026-03-23T16:30:58Z</time></trkpt><trkpt lat="47.24738948982884" lon="-1.5675237681731278"><ele>28.0</ele><time>2026-03-23T16:31:00Z</time></trkpt><trkpt lat="47.24747045901348" lon="-1.5675998758539256"><ele>28.0</ele><time>2026-03-23T16:31:02Z</time></trkpt><trkpt lat="47.24756261803885" lon="-1.5676945075407323"><ele>28.0</ele><time>2026-03-23T16:31:04Z</time></trkpt><trkpt lat="47.24766894248058" lon="-1.5677728783353861"><ele>27.999999999999996</ele><time>2026-03-23T16:31:06Z</time></trkpt><trkpt lat="47.247734447053865" lon="-1.5678379219039975"><ele>27.999999999999996</ele><time>2026-03-23T16:31:08Z</time></trkpt><trkpt lat="47.24781059664418" lon="-1.5679090842619239"><ele>28.0</ele><time>2026-03-23T16:31:10Z</time></trkpt><trkpt lat="47.24790845536371" lon="-1.5679806657150088"><ele>28.0</ele><time>2026-03-23T16:31:12Z</time></trkpt><trkpt lat="47.248003464236156" lon="-1.5680573601290286"><ele>28.4</ele><time>2026-03-23T16:31:14Z</time></trkpt><trkpt lat="47.248104130893246" lon="-1.5680883731707633"><ele>28.799999999999997</ele><time>2026-03-23T16:31:16Z</time></trkpt><trkpt lat="47.24818681836803" lon="-1.5681193023934663"><ele>29.2</ele><time>2026-03-23T16:31:18Z</time></trkpt><trkpt lat="47.2483006446131" lon="-1.5681288577630819"><ele>29.6</ele><time>2026-03-23T16:31:20Z</time></trkpt><trkpt lat="47.24839435429056" lon="-1.5681478846832813"><ele>30.0</ele><time>2026-03-23T16:31:22Z</time></trkpt><trkpt lat="47.24849422466685" lon="-1.5681740362211765"><ele>30.4</ele><time>2026-03-23T16:31:24Z</time></trkpt><trkpt lat="47.24859816026618" lon="-1.5682206396028102"><ele>30.8</ele><time>2026-03-23T16:31:26Z</time></trkpt><trkpt lat="47.24870192822744" lon="-1.5682595316335262"><ele>31.200000000000003</ele><time>2026-03-23T16:31:28Z</time></trkpt><trkpt lat="47.24878951911558" lon="-1.568280570210487"><ele>31.6</ele><time>2026-03-23T16:31:30Z</time></trkpt><trkpt lat="47.2488886770301" lon="-1.5683037042632404"><ele>32.0</ele><time>2026-03-23T16:31:32Z</time></trkpt><trkpt lat="47.248981338969664" lon="-1.5683048777296844"><ele>32.666666666666664</ele><time>2026-03-23T16:31:34Z</time></trkpt><trkpt lat="47.24906243388285" lon="-1.568341506646544"><ele>33.33333333333333</ele><time>2026-03-23T16:31:36Z</time></trkpt><trkpt lat="47.24916276526381" lon="-1.5684110764428678"><ele>34.0</ele><time>2026-03-23T16:31:38Z</time></trkpt><trkpt lat="47.249241345606045" lon="-1.5684446878745857"><ele>34.666666666666664</ele><time>2026-03-23T16:31:40Z</time></trkpt><trkpt lat="47.249331199608044" lon="-1.5684557519867721"><ele>35.333333333333336</ele><time>2026-03-23T16:31:42Z</time></trkpt><trkpt lat="47.2494119592451" lon="-1.5684721805169883"><ele>36.0</ele><time>2026-03-23T16:31:44Z</time></trkpt><trkpt lat="47.24952021152456" lon="-1.5685245674118107"><ele>36.0</ele><time>2026-03-23T16:31:46Z</time></trkpt><trkpt lat="47.24959682211955" lon="-1.5685803908869331"><ele>36.0</ele><time>2026-03-23T16:31:48Z</time></trkpt><trkpt lat="47.249673265076474" lon="-1.568600423635513"><ele>36.0</ele><time>2026-03-23T16:31:50Z</time></trkpt><trkpt lat="47.24975947295059" lon="-1.5685981605216568"><ele>36.0</ele><time>2026-03-23T16:31:52Z</time></trkpt><trkpt lat="47.2498437948965" lon="-1.568607212977082"><ele>36.0</ele><time>2026-03-23T16:31:54Z</time></trkpt><trkpt lat="47.24992803302337" lon="-1.5685816481724089"><ele>36.0</ele><time>2026-03-23T16:31:56Z</time></trkpt><trkpt lat="47.24999726754357" lon="-1.5685849171146458"><ele>36.333333333333336</ele><time>2026-03-23T16:31:58Z</time></trkpt><trkpt lat="47.25007014819165" lon="-1.5685656387373512"><ele>36.666666666666664</ele><time>2026-03-23T16:32:00Z</time></trkpt><trkpt lat="47.25015287757595" lon="-1.56853772699979"><ele>37.0</ele><time>2026-03-23T16:32:02Z</time></trkpt><trkpt lat="47.250244575596646" lon="-1.5684758685543838"><ele>37.33333333333333</ele><time>2026-03-23T16:32:05Z</time></trkpt><trkpt lat="47.25033996165474" lon="-1.5684388205423656"><ele>37.666666666666664</ele><time>2026-03-23T16:32:07Z</time></trkpt><trkpt lat="47.250412129841045" lon="-1.568375369535357"><ele>38.0</ele><time>2026-03-23T16:32:09Z</time></trkpt><trkpt lat="47.250508437908486" lon="-1.5683327894672456"><ele>37.8</ele><time>2026-03-23T16:32:11Z</time></trkpt><trkpt lat="47.250627419024006" lon="-1.5682892873897853"><ele>37.599999999999994</ele><time>2026-03-23T16:32:13Z</time></trkpt><trkpt lat="47.25071572237392" lon="-1.5682114195093215"><ele>37.400000000000006</ele><time>2026-03-23T16:32:15Z</time></trkpt><trkpt lat="47.25077799991448" lon="-1.5681737847640813"><ele>37.2</ele><time>2026-03-23T16:32:16Z</time></trkpt><trkpt lat="47.25085138347675" lon="-1.5681436937316955"><ele>37.0</ele><time>2026-03-23T16:32:17Z</time></trkpt><trkpt lat="47.25092363548209" lon="-1.5680675022318662"><ele>37.0</ele><time>2026-03-23T16:32:19Z</time></trkpt><trkpt lat="47.25101110064168" lon="-1.5680048894151746"><ele>37.0</ele><time>2026-03-23T16:32:21Z</time></trkpt><trkpt lat="47.251084526113466" lon="-1.5679185558125077"><ele>37.0</ele><time>2026-03-23T16:32:23Z</time></trkpt><trkpt lat="47.25117081780662" lon="-1.5678450465216933"><ele>37.0</ele><time>2026-03-23T16:32:25Z</time></trkpt><trkpt lat="47.25127295129676" lon="-1.56774228438881"><ele>37.0</ele><time>2026-03-23T16:32:27Z</time></trkpt><trkpt lat="47.25133627657522" lon="-1.5676779951914843"><ele>36.6</ele><time>2026-03-23T16:32:28Z</time></trkpt><trkpt lat="47.25142684303899" lon="-1.567558217795163"><ele>36.2</ele><time>2026-03-23T16:32:30Z</time></trkpt><trkpt lat="47.25149402399291" lon="-1.5673951897784764"><ele>35.8</ele><time>2026-03-23T16:32:32Z</time></trkpt><trkpt lat="47.25155554716219" lon="-1.567237358541756"><ele>35.4</ele><time>2026-03-23T16:32:34Z</time></trkpt><trkpt lat="47.251568958207265" lon="-1.567145492882996"><ele>35.0</ele><time>2026-03-23T16:32:35Z</time></trkpt><trkpt lat="47.2515724786066" lon="-1.566977268086343"><ele>35.0</ele><time>2026-03-23T16:32:37Z</time></trkpt><trkpt lat="47.25159129597922" lon="-1.5668881684556295"><ele>35.0</ele><time>2026-03-23T16:32:38Z</time></trkpt><trkpt lat="47.25159632512112" lon="-1.5667344443514633"><ele>35.0</ele><time>2026-03-23T16:32:40Z</time></trkpt><trkpt lat="47.25160596430977" lon="-1.5666406508549737"><ele>35.0</ele><time>2026-03-23T16:32:41Z</time></trkpt><trkpt lat="47.25161443003197" lon="-1.56654568389204"><ele>35.0</ele><time>2026-03-23T16:32:42Z</time></trkpt><trkpt lat="47.2516795155101" lon="-1.5664548240616605"><ele>35.0</ele><time>2026-03-23T16:32:43Z</time></trkpt><trkpt lat="47.251621889925794" lon="-1.5663679875448033"><ele>35.0</ele><time>2026-03-23T16:32:44Z</time></trkpt><trkpt lat="47.25163609725167" lon="-1.5662740264102502"><ele>35.0</ele><time>2026-03-23T16:32:45Z</time></trkpt><trkpt lat="47.2516475385495" lon="-1.5661824122085852"><ele>35.0</ele><time>2026-03-23T16:32:46Z</time></trkpt><trkpt lat="47.251669624864356" lon="-1.5660805720850508"><ele>35.0</ele><time>2026-03-23T16:32:47Z</time></trkpt><trkpt lat="47.2516837483712" lon="-1.5659781452282946"><ele>35.0</ele><time>2026-03-23T16:32:48Z</time></trkpt><trkpt lat="47.25169506394048" lon="-1.5658752154573479"><ele>35.0</ele><time>2026-03-23T16:32:49Z</time></trkpt><trkpt lat="47.25170931317587" lon="-1.5656748041525164"><ele>34.666666666666664</ele><time>2026-03-23T16:32:51Z</time></trkpt><trkpt lat="47.25172167648305" lon="-1.565562654288081"><ele>34.33333333333333</ele><time>2026-03-23T16:32:52Z</time></trkpt><trkpt lat="47.25173756018956" lon="-1.5654565393939293"><ele>34.0</ele><time>2026-03-23T16:32:53Z</time></trkpt><trkpt lat="47.25175243806769" lon="-1.5653574652984414"><ele>33.666666666666664</ele><time>2026-03-23T16:32:54Z</time></trkpt><trkpt lat="47.251783870204584" lon="-1.5651686210199867"><ele>33.333333333333336</ele><time>2026-03-23T16:32:56Z</time></trkpt><trkpt lat="47.251808429180876" lon="-1.5650579798981221"><ele>33.0</ele><time>2026-03-23T16:32:57Z</time></trkpt><trkpt lat="47.25182489962061" lon="-1.564966700972584"><ele>32.666666666666664</ele><time>2026-03-23T16:32:58Z</time></trkpt><trkpt lat="47.251812284856335" lon="-1.5648382902159959"><ele>32.333333333333336</ele><time>2026-03-23T16:32:59Z</time></trkpt><trkpt lat="47.25182598926802" lon="-1.5647361148163348"><ele>32.0</ele><time>2026-03-23T16:33:00Z</time></trkpt><trkpt lat="47.25183831066568" lon="-1.5646382980063227"><ele>31.666666666666668</ele><time>2026-03-23T16:33:01Z</time></trkpt><trkpt lat="47.251847279302076" lon="-1.564533356578615"><ele>31.333333333333336</ele><time>2026-03-23T16:33:02Z</time></trkpt><trkpt lat="47.25186475557019" lon="-1.564433779568937"><ele>31.0</ele><time>2026-03-23T16:33:03Z</time></trkpt><trkpt lat="47.251884536861674" lon="-1.56424971297529"><ele>30.4</ele><time>2026-03-23T16:33:05Z</time></trkpt><trkpt lat="47.251884830228285" lon="-1.5641466993853115"><ele>29.8</ele><time>2026-03-23T16:33:06Z</time></trkpt><trkpt lat="47.25188956600358" lon="-1.5640458650901579"><ele>29.199999999999996</ele><time>2026-03-23T16:33:07Z</time></trkpt><trkpt lat="47.25189124238421" lon="-1.5638561826213857"><ele>28.599999999999998</ele><time>2026-03-23T16:33:09Z</time></trkpt><trkpt lat="47.25195360374381" lon="-1.5636915620430965"><ele>28.0</ele><time>2026-03-23T16:33:11Z</time></trkpt><trkpt lat="47.25203847051342" lon="-1.5635719522848386"><ele>28.000000000000004</ele><time>2026-03-23T16:33:13Z</time></trkpt><trkpt lat="47.252111267342464" lon="-1.5634305495783345"><ele>28.0</ele><time>2026-03-23T16:33:15Z</time></trkpt><trkpt lat="47.252166504084364" lon="-1.5632734727128998"><ele>28.0</ele><time>2026-03-23T16:33:17Z</time></trkpt><trkpt lat="47.25219931923528" lon="-1.563192671166326"><ele>28.0</ele><time>2026-03-23T16:33:18Z</time></trkpt><trkpt lat="47.2522318829291" lon="-1.5631120372578158"><ele>28.000000000000004</ele><time>2026-03-23T16:33:19Z</time></trkpt><trkpt lat="47.25226184823294" lon="-1.5630220156177534"><ele>28.0</ele><time>2026-03-23T16:33:20Z</time></trkpt><trkpt lat="47.25230199754913" lon="-1.5629333350821983"><ele>27.500000000000004</ele><time>2026-03-23T16:33:21Z</time></trkpt><trkpt lat="47.2523294063725" lon="-1.562843313442136"><ele>27.0</ele><time>2026-03-23T16:33:22Z</time></trkpt><trkpt lat="47.252366119108395" lon="-1.5627582371249447"><ele>26.5</ele><time>2026-03-23T16:33:23Z</time></trkpt><trkpt lat="47.252401323101715" lon="-1.5626660361900577"><ele>26.0</ele><time>2026-03-23T16:33:24Z</time></trkpt><trkpt lat="47.252471437721745" lon="-1.5625028405353076"><ele>25.500000000000004</ele><time>2026-03-23T16:33:26Z</time></trkpt><trkpt lat="47.25250995256682" lon="-1.562416171656514"><ele>25.0</ele><time>2026-03-23T16:33:27Z</time></trkpt><trkpt lat="47.252528183206216" lon="-1.5623214561506755"><ele>25.0</ele><time>2026-03-23T16:33:28Z</time></trkpt><trkpt lat="47.25256418348034" lon="-1.5622449293747191"><ele>25.0</ele><time>2026-03-23T16:33:29Z</time></trkpt><trkpt lat="47.252589413008884" lon="-1.5621515549733882"><ele>25.0</ele><time>2026-03-23T16:33:30Z</time></trkpt><trkpt lat="47.25261971358885" lon="-1.5619858447476866"><ele>25.0</ele><time>2026-03-23T16:33:32Z</time></trkpt><trkpt lat="47.25271166306664" lon="-1.5618525724872592"><ele>25.0</ele><time>2026-03-23T16:33:34Z</time></trkpt><trkpt lat="47.25275520705362" lon="-1.561700021849537"><ele>25.2</ele><time>2026-03-23T16:33:36Z</time></trkpt><trkpt lat="47.252811491533414" lon="-1.561567084865236"><ele>25.4</ele><time>2026-03-23T16:33:38Z</time></trkpt><trkpt lat="47.25284682125528" lon="-1.5614792425199984"><ele>25.6</ele><time>2026-03-23T16:33:39Z</time></trkpt><trkpt lat="47.25290109407832" lon="-1.5613296255483862"><ele>25.8</ele><time>2026-03-23T16:33:41Z</time></trkpt><trkpt lat="47.252935837066964" lon="-1.5611751470729347"><ele>26.0</ele><time>2026-03-23T16:33:43Z</time></trkpt><trkpt lat="47.25296902940352" lon="-1.5610737260445589"><ele>26.0</ele><time>2026-03-23T16:33:44Z</time></trkpt><trkpt lat="47.2529996233501" lon="-1.5609369333847993"><ele>26.0</ele><time>2026-03-23T16:33:46Z</time></trkpt><trkpt lat="47.25304727446963" lon="-1.560780275614523"><ele>26.0</ele><time>2026-03-23T16:33:48Z</time></trkpt><trkpt lat="47.25306575656612" lon="-1.5606910083457461"><ele>26.0</ele><time>2026-03-23T16:33:49Z</time></trkpt><trkpt lat="47.25312903993507" lon="-1.5605436544879903"><ele>26.0</ele><time>2026-03-23T16:33:51Z</time></trkpt><trkpt lat="47.25316466302355" lon="-1.560454471038245"><ele>25.6</ele><time>2026-03-23T16:33:52Z</time></trkpt><trkpt lat="47.253170865631894" lon="-1.5603582467898356"><ele>25.200000000000003</ele><time>2026-03-23T16:33:53Z</time></trkpt><trkpt lat="47.25318423476745" lon="-1.560201421381496"><ele>24.799999999999997</ele><time>2026-03-23T16:33:55Z</time></trkpt><trkpt lat="47.25317426030268" lon="-1.560032945127748"><ele>24.4</ele><time>2026-03-23T16:33:57Z</time></trkpt><trkpt lat="47.253175810954765" lon="-1.5598591882750017"><ele>24.0</ele><time>2026-03-23T16:33:59Z</time></trkpt><trkpt lat="47.25320326168765" lon="-1.5597740281387789"><ele>24.0</ele><time>2026-03-23T16:34:00Z</time></trkpt><trkpt lat="47.253191904208855" lon="-1.5596000198289375"><ele>24.0</ele><time>2026-03-23T16:34:02Z</time></trkpt><trkpt lat="47.25317534995009" lon="-1.5595048014089088"><ele>24.0</ele><time>2026-03-23T16:34:03Z</time></trkpt><trkpt lat="47.2531463066556" lon="-1.5593406837448098"><ele>24.0</ele><time>2026-03-23T16:34:05Z</time></trkpt><trkpt lat="47.253155778206185" lon="-1.5591764822616792"><ele>24.0</ele><time>2026-03-23T16:34:07Z</time></trkpt><trkpt lat="47.253139182037906" lon="-1.5590066649034238"><ele>24.0</ele><time>2026-03-23T16:34:09Z</time></trkpt><trkpt lat="47.25311588034709" lon="-1.5588420443251345"><ele>24.0</ele><time>2026-03-23T16:34:11Z</time></trkpt><trkpt lat="47.253094380765454" lon="-1.5586971212192984"><ele>24.0</ele><time>2026-03-23T16:34:13Z</time></trkpt><trkpt lat="47.2530781198733" lon="-1.5585386194303246"><ele>24.0</ele><time>2026-03-23T16:34:15Z</time></trkpt><trkpt lat="47.25307455756445" lon="-1.5583541337415188"><ele>24.0</ele><time>2026-03-23T16:34:17Z</time></trkpt><trkpt lat="47.253051465421215" lon="-1.5581906866296735"><ele>24.2</ele><time>2026-03-23T16:34:19Z</time></trkpt><trkpt lat="47.25300884344359" lon="-1.5580383874490467"><ele>24.4</ele><time>2026-03-23T16:34:21Z</time></trkpt><trkpt lat="47.25297506437381" lon="-1.557881813497802"><ele>24.6</ele><time>2026-03-23T16:34:23Z</time></trkpt><trkpt lat="47.25299614486028" lon="-1.5577136725201808"><ele>24.8</ele><time>2026-03-23T16:34:25Z</time></trkpt><trkpt lat="47.25296852648933" lon="-1.5575579367592536"><ele>25.0</ele><time>2026-03-23T16:34:27Z</time></trkpt><trkpt lat="47.25292741325428" lon="-1.5573932323619326"><ele>25.25</ele><time>2026-03-23T16:34:29Z</time></trkpt><trkpt lat="47.25291886371304" lon="-1.5572244208320576"><ele>25.5</ele><time>2026-03-23T16:34:31Z</time></trkpt><trkpt lat="47.25290067498316" lon="-1.5570550225689606"><ele>25.75</ele><time>2026-03-23T16:34:33Z</time></trkpt><trkpt lat="47.252872092693345" lon="-1.5568916592761473"><ele>26.0</ele><time>2026-03-23T16:34:35Z</time></trkpt><trkpt lat="47.25283831362356" lon="-1.5567127056434347"><ele>25.999999999999996</ele><time>2026-03-23T16:34:37Z</time></trkpt><trkpt lat="47.252825740768806" lon="-1.5566189121469451"><ele>26.0</ele><time>2026-03-23T16:34:38Z</time></trkpt><trkpt lat="47.25280063696881" lon="-1.556523777545948"><ele>26.0</ele><time>2026-03-23T16:34:39Z</time></trkpt><trkpt lat="47.252735090486006" lon="-1.5563710592701625"><ele>26.0</ele><time>2026-03-23T16:34:41Z</time></trkpt><trkpt lat="47.252722643359796" lon="-1.5562765114023873"><ele>25.999999999999996</ele><time>2026-03-23T16:34:42Z</time></trkpt><trkpt lat="47.252696449912385" lon="-1.5561838913723418"><ele>26.0</ele><time>2026-03-23T16:34:43Z</time></trkpt><trkpt lat="47.25268517625262" lon="-1.5560822188868708"><ele>25.6</ele><time>2026-03-23T16:34:44Z</time></trkpt><trkpt lat="47.25269527644594" lon="-1.55591164715733"><ele>25.200000000000003</ele><time>2026-03-23T16:34:46Z</time></trkpt><trkpt lat="47.25268769082357" lon="-1.555807627738971"><ele>24.799999999999997</ele><time>2026-03-23T16:34:47Z</time></trkpt><trkpt lat="47.25266786762257" lon="-1.555618196727294"><ele>24.4</ele><time>2026-03-23T16:34:49Z</time></trkpt><trkpt lat="47.25263651930471" lon="-1.5554380696281376"><ele>24.0</ele><time>2026-03-23T16:34:51Z</time></trkpt><trkpt lat="47.25262449127366" lon="-1.5553314518197954"><ele>23.71428571428571</ele><time>2026-03-23T16:34:52Z</time></trkpt><trkpt lat="47.25260546435346" lon="-1.5552220679834068"><ele>23.428571428571427</ele><time>2026-03-23T16:34:53Z</time></trkpt><trkpt lat="47.25259016738017" lon="-1.5551265981062827"><ele>23.142857142857142</ele><time>2026-03-23T16:34:54Z</time></trkpt><trkpt lat="47.25258052819152" lon="-1.5550285298391757"><ele>22.857142857142854</ele><time>2026-03-23T16:34:55Z</time></trkpt><trkpt lat="47.25255902860989" lon="-1.5549287013724027"><ele>22.57142857142857</ele><time>2026-03-23T16:34:56Z</time></trkpt><trkpt lat="47.25253836721857" lon="-1.554825436325329"><ele>22.285714285714285</ele><time>2026-03-23T16:34:57Z</time></trkpt><trkpt lat="47.252523028335766" lon="-1.5547173097744162"><ele>22.0</ele><time>2026-03-23T16:34:58Z</time></trkpt><trkpt lat="47.25250597116281" lon="-1.554607758299964"><ele>21.666666666666664</ele><time>2026-03-23T16:34:59Z</time></trkpt><trkpt lat="47.25248694424261" lon="-1.5544946026071482"><ele>21.333333333333332</ele><time>2026-03-23T16:35:00Z</time></trkpt><trkpt lat="47.252472150183515" lon="-1.5543833747520617"><ele>21.0</ele><time>2026-03-23T16:35:01Z</time></trkpt><trkpt lat="47.252461421347455" lon="-1.5542706381544045"><ele>20.666666666666668</ele><time>2026-03-23T16:35:02Z</time></trkpt><trkpt lat="47.25245014768769" lon="-1.554164104165094"><ele>20.333333333333336</ele><time>2026-03-23T16:35:03Z</time></trkpt><trkpt lat="47.252436736642615" lon="-1.554049858824866"><ele>20.0</ele><time>2026-03-23T16:35:04Z</time></trkpt><trkpt lat="47.25241712298919" lon="-1.553951958195822"><ele>20.0</ele><time>2026-03-23T16:35:05Z</time></trkpt><trkpt lat="47.252401532649294" lon="-1.5538529679193662"><ele>20.0</ele><time>2026-03-23T16:35:06Z</time></trkpt><trkpt lat="47.2523442004316" lon="-1.5536884311601087"><ele>20.0</ele><time>2026-03-23T16:35:08Z</time></trkpt><trkpt lat="47.25231352266599" lon="-1.5535536501571103"><ele>20.0</ele><time>2026-03-23T16:35:10Z</time></trkpt><trkpt lat="47.25227349907835" lon="-1.5534581802799863"><ele>20.0</ele><time>2026-03-23T16:35:12Z</time></trkpt><trkpt lat="47.25223272111942" lon="-1.55334988609101"><ele>20.0</ele><time>2026-03-23T16:35:16Z</time></trkpt><trkpt lat="47.25221474193712" lon="-1.5532595291748208"><ele>20.0</ele><time>2026-03-23T16:35:19Z</time></trkpt><trkpt lat="47.25221055098553" lon="-1.5531420148923556"><ele>20.0</ele><time>2026-03-23T16:35:32Z</time></trkpt><trkpt lat="47.252251496582524" lon="-1.553052663804547"><ele>20.0</ele><time>2026-03-23T16:35:34Z</time></trkpt><trkpt lat="47.252270607321755" lon="-1.5529237501337685"><ele>20.0</ele><time>2026-03-23T16:35:36Z</time></trkpt><trkpt lat="47.252262728332774" lon="-1.5527758933618225"><ele>20.0</ele><time>2026-03-23T16:35:38Z</time></trkpt><trkpt lat="47.2522406001084" lon="-1.5526163019254362"><ele>19.8</ele><time>2026-03-23T16:35:40Z</time></trkpt><trkpt lat="47.25221155681391" lon="-1.552441623063341"><ele>19.6</ele><time>2026-03-23T16:35:42Z</time></trkpt><trkpt lat="47.25217941221525" lon="-1.55225101858522"><ele>19.4</ele><time>2026-03-23T16:35:44Z</time></trkpt><trkpt lat="47.252155565700726" lon="-1.552163260059014"><ele>19.2</ele><time>2026-03-23T16:35:45Z</time></trkpt><trkpt lat="47.25213750269939" lon="-1.5520680416389854"><ele>19.0</ele><time>2026-03-23T16:35:46Z</time></trkpt><trkpt lat="47.25210824985732" lon="-1.5518999844803958"><ele>18.857142857142858</ele><time>2026-03-23T16:35:48Z</time></trkpt><trkpt lat="47.25208369088103" lon="-1.5517624374493506"><ele>18.714285714285715</ele><time>2026-03-23T16:35:50Z</time></trkpt><trkpt lat="47.252071788578526" lon="-1.5516656264677193"><ele>18.571428571428573</ele><time>2026-03-23T16:35:51Z</time></trkpt><trkpt lat="47.25205837753345" lon="-1.5515670552864218"><ele>18.42857142857143</ele><time>2026-03-23T16:35:52Z</time></trkpt><trkpt lat="47.25203918297519" lon="-1.5514609403922701"><ele>18.285714285714285</ele><time>2026-03-23T16:35:53Z</time></trkpt><trkpt lat="47.25202459846367" lon="-1.55136320740129"><ele>18.142857142857146</ele><time>2026-03-23T16:35:54Z</time></trkpt><trkpt lat="47.25201206751843" lon="-1.551259439440026"><ele>18.0</ele><time>2026-03-23T16:35:55Z</time></trkpt><trkpt lat="47.25197874945332" lon="-1.5510910470053096"><ele>17.833333333333332</ele><time>2026-03-23T16:35:57Z</time></trkpt><trkpt lat="47.25196621850808" lon="-1.5509923920049806"><ele>17.666666666666668</ele><time>2026-03-23T16:35:58Z</time></trkpt><trkpt lat="47.25194237199356" lon="-1.5508117619916337"><ele>17.5</ele><time>2026-03-23T16:36:00Z</time></trkpt><trkpt lat="47.251944509378866" lon="-1.5506242588176864"><ele>17.333333333333336</ele><time>2026-03-23T16:36:02Z</time></trkpt><trkpt lat="47.25193357099523" lon="-1.5505313873305455"><ele>17.166666666666668</ele><time>2026-03-23T16:36:03Z</time></trkpt><trkpt lat="47.251935624561504" lon="-1.5504366718247071"><ele>17.0</ele><time>2026-03-23T16:36:04Z</time></trkpt><trkpt lat="47.25194480274548" lon="-1.5502733085318936"><ele>17.0</ele><time>2026-03-23T16:36:06Z</time></trkpt><trkpt lat="47.25196077027102" lon="-1.5501832030727996"><ele>17.0</ele><time>2026-03-23T16:36:07Z</time></trkpt><trkpt lat="47.25197824653913" lon="-1.5500886552050244"><ele>17.0</ele><time>2026-03-23T16:36:08Z</time></trkpt><trkpt lat="47.25199593235482" lon="-1.549928560854448"><ele>17.0</ele><time>2026-03-23T16:36:10Z</time></trkpt><trkpt lat="47.25200272169639" lon="-1.5497437398895153"><ele>17.0</ele><time>2026-03-23T16:36:12Z</time></trkpt><trkpt lat="47.252039015337125" lon="-1.5495838131770021"><ele>17.0</ele><time>2026-03-23T16:36:14Z</time></trkpt><trkpt lat="47.252051252915756" lon="-1.5494267363115675"><ele>17.0</ele><time>2026-03-23T16:36:16Z</time></trkpt><trkpt lat="47.25210523237218" lon="-1.5492646303042297"><ele>17.0</ele><time>2026-03-23T16:36:18Z</time></trkpt><trkpt lat="47.25219282326032" lon="-1.549121048302901"><ele>17.0</ele><time>2026-03-23T16:36:20Z</time></trkpt><trkpt lat="47.252240558198885" lon="-1.5490549150868775"><ele>17.0</ele><time>2026-03-23T16:36:21Z</time></trkpt><trkpt lat="47.25228439555247" lon="-1.548982914538634"><ele>16.57142857142857</ele><time>2026-03-23T16:36:22Z</time></trkpt><trkpt lat="47.252316833517746" lon="-1.5488902106895566"><ele>16.142857142857142</ele><time>2026-03-23T16:36:23Z</time></trkpt><trkpt lat="47.25234160204162" lon="-1.5488017816110968"><ele>15.714285714285714</ele><time>2026-03-23T16:36:24Z</time></trkpt><trkpt lat="47.25237701558252" lon="-1.548707401381385"><ele>15.285714285714285</ele><time>2026-03-23T16:36:25Z</time></trkpt><trkpt lat="47.25240144883026" lon="-1.5486111771329758"><ele>14.857142857142858</ele><time>2026-03-23T16:36:26Z</time></trkpt><trkpt lat="47.25242370278318" lon="-1.5485179703697083"><ele>14.428571428571429</ele><time>2026-03-23T16:36:27Z</time></trkpt><trkpt lat="47.252468504055635" lon="-1.5484162978842373"><ele>14.0</ele><time>2026-03-23T16:36:28Z</time></trkpt><trkpt lat="47.25249817599286" lon="-1.5483287069960947"><ele>14.000000000000002</ele><time>2026-03-23T16:36:29Z</time></trkpt><trkpt lat="47.25251904693176" lon="-1.548237344251525"><ele>14.0</ele><time>2026-03-23T16:36:30Z</time></trkpt><trkpt lat="47.252556011124746" lon="-1.5480505954488628"><ele>14.0</ele><time>2026-03-23T16:36:32Z</time></trkpt><trkpt lat="47.252564518756465" lon="-1.5479527786388507"><ele>14.0</ele><time>2026-03-23T16:36:33Z</time></trkpt><trkpt lat="47.252543563998536" lon="-1.5478485915824285"><ele>14.000000000000002</ele><time>2026-03-23T16:36:34Z</time></trkpt><trkpt lat="47.252523028335766" lon="-1.5477395430221665"><ele>14.0</ele><time>2026-03-23T16:36:35Z</time></trkpt><trkpt lat="47.25251330532809" lon="-1.547641893850218"><ele>14.166666666666668</ele><time>2026-03-23T16:36:36Z</time></trkpt><trkpt lat="47.252504001415566" lon="-1.5475434903069842"><ele>14.333333333333334</ele><time>2026-03-23T16:36:37Z</time></trkpt><trkpt lat="47.252481035000876" lon="-1.547446595506321"><ele>14.5</ele><time>2026-03-23T16:36:38Z</time></trkpt><trkpt lat="47.2524488484927" lon="-1.5472741797580822"><ele>14.666666666666668</ele><time>2026-03-23T16:36:40Z</time></trkpt><trkpt lat="47.25241976328869" lon="-1.5471018478288754"><ele>14.833333333333334</ele><time>2026-03-23T16:36:42Z</time></trkpt><trkpt lat="47.25240853153844" lon="-1.5470019355430704"><ele>15.0</ele><time>2026-03-23T16:36:43Z</time></trkpt><trkpt lat="47.252393737479345" lon="-1.5469088964178663"><ele>15.2</ele><time>2026-03-23T16:36:44Z</time></trkpt><trkpt lat="47.25237173498352" lon="-1.546767577530394"><ele>15.4</ele><time>2026-03-23T16:36:46Z</time></trkpt><trkpt lat="47.25235576745798" lon="-1.5465994365527729"><ele>15.600000000000001</ele><time>2026-03-23T16:36:48Z</time></trkpt><trkpt lat="47.25236264061858" lon="-1.5464286133661367"><ele>15.8</ele><time>2026-03-23T16:36:50Z</time></trkpt><trkpt lat="47.252346295907394" lon="-1.5462693572058772"><ele>16.0</ele><time>2026-03-23T16:36:52Z</time></trkpt><trkpt lat="47.252325550697044" lon="-1.5461094304933642"><ele>16.400000000000002</ele><time>2026-03-23T16:36:54Z</time></trkpt><trkpt lat="47.25230597895314" lon="-1.5459464862957093"><ele>16.8</ele><time>2026-03-23T16:36:56Z</time></trkpt><trkpt lat="47.25227731284429" lon="-1.5457922592773528"><ele>17.200000000000003</ele><time>2026-03-23T16:36:58Z</time></trkpt><trkpt lat="47.25226314742793" lon="-1.5456292312606663"><ele>17.6</ele><time>2026-03-23T16:37:00Z</time></trkpt><trkpt lat="47.252249359197215" lon="-1.5454796981080858"><ele>18.0</ele><time>2026-03-23T16:37:02Z</time></trkpt><trkpt lat="47.25223020654847" lon="-1.545346174390563"><ele>19.2</ele><time>2026-03-23T16:37:04Z</time></trkpt><trkpt lat="47.25220996425231" lon="-1.545200664551505"><ele>20.4</ele><time>2026-03-23T16:37:06Z</time></trkpt><trkpt lat="47.25218054377218" lon="-1.5450470242663705"><ele>21.599999999999998</ele><time>2026-03-23T16:37:08Z</time></trkpt><trkpt lat="47.252163779965834" lon="-1.5449042804553592"><ele>22.8</ele><time>2026-03-23T16:37:10Z</time></trkpt><trkpt lat="47.252127737782196" lon="-1.5447712596520267"><ele>24.0</ele><time>2026-03-23T16:37:12Z</time></trkpt><trkpt lat="47.252079583748475" lon="-1.5447073057308278"><ele>24.0</ele><time>2026-03-23T16:37:13Z</time></trkpt><trkpt lat="47.252081721133784" lon="-1.5446006879224856"><ele>24.0</ele><time>2026-03-23T16:37:15Z</time></trkpt><trkpt lat="47.25203373473813" lon="-1.5444763842984517"><ele>24.0</ele><time>2026-03-23T16:37:17Z</time></trkpt><trkpt lat="47.25200850520958" lon="-1.544324252755888"><ele>24.0</ele><time>2026-03-23T16:37:19Z</time></trkpt><trkpt lat="47.25201030731876" lon="-1.5441758930697516"><ele>24.0</ele><time>2026-03-23T16:37:21Z</time></trkpt><trkpt lat="47.25203742277552" lon="-1.5440022200360373"><ele>23.833333333333332</ele><time>2026-03-23T16:37:23Z</time></trkpt><trkpt lat="47.25201931786467" lon="-1.5439104381963087"><ele>23.666666666666668</ele><time>2026-03-23T16:37:24Z</time></trkpt><trkpt lat="47.25202883132477" lon="-1.5437864698484016"><ele>23.5</ele><time>2026-03-23T16:37:25Z</time></trkpt><trkpt lat="47.252012821889714" lon="-1.5436838753535818"><ele>23.333333333333336</ele><time>2026-03-23T16:37:26Z</time></trkpt><trkpt lat="47.25199618381192" lon="-1.543578933925874"><ele>23.166666666666668</ele><time>2026-03-23T16:37:27Z</time></trkpt><trkpt lat="47.25199396260758" lon="-1.5434596594437429"><ele>23.0</ele><time>2026-03-23T16:37:28Z</time></trkpt><trkpt lat="47.251922674521104" lon="-1.5432724077268907"><ele>23.0</ele><time>2026-03-23T16:37:30Z</time></trkpt><trkpt lat="47.25189178720792" lon="-1.5431346092387503"><ele>23.0</ele><time>2026-03-23T16:37:31Z</time></trkpt><trkpt lat="47.25185838532378" lon="-1.5429937094464368"><ele>23.0</ele><time>2026-03-23T16:37:32Z</time></trkpt><trkpt lat="47.251844429455" lon="-1.5428573358818356"><ele>23.0</ele><time>2026-03-23T16:37:33Z</time></trkpt><trkpt lat="47.25181945138355" lon="-1.542724315078503"><ele>23.0</ele><time>2026-03-23T16:37:34Z</time></trkpt><trkpt lat="47.25180893209507" lon="-1.5426034480347695"><ele>22.166666666666668</ele><time>2026-03-23T16:37:35Z</time></trkpt><trkpt lat="47.25183101840992" lon="-1.5425094030811846"><ele>21.333333333333336</ele><time>2026-03-23T16:37:36Z</time></trkpt><trkpt lat="47.251872383102075" lon="-1.5424009412541448"><ele>20.5</ele><time>2026-03-23T16:37:37Z</time></trkpt><trkpt lat="47.25189317022194" lon="-1.5422862768187582"><ele>19.666666666666668</ele><time>2026-03-23T16:37:38Z</time></trkpt><trkpt lat="47.25189639725466" lon="-1.5421765577062425"><ele>18.833333333333332</ele><time>2026-03-23T16:37:39Z</time></trkpt><trkpt lat="47.2518824832954" lon="-1.542073041202074"><ele>18.0</ele><time>2026-03-23T16:37:40Z</time></trkpt><trkpt lat="47.2518399451368" lon="-1.5419874619706924"><ele>16.8</ele><time>2026-03-23T16:37:41Z</time></trkpt><trkpt lat="47.25178747442295" lon="-1.541891824455505"><ele>15.600000000000001</ele><time>2026-03-23T16:37:42Z</time></trkpt><trkpt lat="47.25171249829908" lon="-1.541835330428129"><ele>14.399999999999999</ele><time>2026-03-23T16:37:43Z</time></trkpt><trkpt lat="47.25159540311177" lon="-1.541758971290236"><ele>13.2</ele><time>2026-03-23T16:37:45Z</time></trkpt><trkpt lat="47.25151749332179" lon="-1.541618490593081"><ele>12.0</ele><time>2026-03-23T16:37:47Z</time></trkpt><trkpt lat="47.251538615717784" lon="-1.5414816979333212"><ele>12.0</ele><time>2026-03-23T16:37:48Z</time></trkpt><trkpt lat="47.25159603175451" lon="-1.5412753354772377"><ele>12.0</ele><time>2026-03-23T16:37:50Z</time></trkpt><trkpt lat="47.25162453022529" lon="-1.5411442425116348"><ele>12.0</ele><time>2026-03-23T16:37:51Z</time></trkpt><trkpt lat="47.25165562708606" lon="-1.541042821483259"><ele>12.0</ele><time>2026-03-23T16:37:52Z</time></trkpt><trkpt lat="47.25170369730075" lon="-1.5409392211600588"><ele>12.0</ele><time>2026-03-23T16:37:53Z</time></trkpt><trkpt lat="47.251751264601246" lon="-1.5408488642438696"><ele>10.666666666666666</ele><time>2026-03-23T16:37:54Z</time></trkpt><trkpt lat="47.25180645943363" lon="-1.540798321367745"><ele>9.333333333333334</ele><time>2026-03-23T16:37:55Z</time></trkpt><trkpt lat="47.25189157766034" lon="-1.5407657157644077"><ele>8.0</ele><time>2026-03-23T16:37:56Z</time></trkpt><trkpt lat="47.25195578303863" lon="-1.5407468564822717"><ele>6.666666666666666</ele><time>2026-03-23T16:37:57Z</time></trkpt><trkpt lat="47.252034572928444" lon="-1.540730595590119"><ele>5.333333333333333</ele><time>2026-03-23T16:37:58Z</time></trkpt><trkpt lat="47.25210887850006" lon="-1.5407040249570652"><ele>4.0</ele><time>2026-03-23T16:37:59Z</time></trkpt><trkpt lat="47.25218356125732" lon="-1.5406792983427091"><ele>3.9999999999999996</ele><time>2026-03-23T16:38:00Z</time></trkpt><trkpt lat="47.25225082603027" lon="-1.5406720060869499"><ele>4.0</ele><time>2026-03-23T16:38:01Z</time></trkpt><trkpt lat="47.25232475441624" lon="-1.5406606905176683"><ele>4.0</ele><time>2026-03-23T16:38:02Z</time></trkpt><trkpt lat="47.25242324177851" lon="-1.5406048670425458"><ele>4.0</ele><time>2026-03-23T16:38:04Z</time></trkpt><trkpt lat="47.252492266751126" lon="-1.5405871812268537"><ele>3.9999999999999996</ele><time>2026-03-23T16:38:05Z</time></trkpt><trkpt lat="47.252559447705046" lon="-1.5405736863627475"><ele>4.0</ele><time>2026-03-23T16:38:06Z</time></trkpt><trkpt lat="47.25263945297082" lon="-1.5405435953303617"><ele>4.5</ele><time>2026-03-23T16:38:07Z</time></trkpt><trkpt lat="47.25277876020153" lon="-1.540532028303985"><ele>5.0</ele><time>2026-03-23T16:38:09Z</time></trkpt><trkpt lat="47.25284191784193" lon="-1.5405490435674232"><ele>5.5</ele><time>2026-03-23T16:38:10Z</time></trkpt><trkpt lat="47.252907003320054" lon="-1.5405324473991435"><ele>6.0</ele><time>2026-03-23T16:38:11Z</time></trkpt><trkpt lat="47.25297334608366" lon="-1.5405167732402127"><ele>6.500000000000001</ele><time>2026-03-23T16:38:12Z</time></trkpt><trkpt lat="47.2530411137708" lon="-1.5405197907253545"><ele>7.0</ele><time>2026-03-23T16:38:13Z</time></trkpt><trkpt lat="47.25317132663657" lon="-1.5404841676368755"><ele>6.666666666666667</ele><time>2026-03-23T16:38:15Z</time></trkpt><trkpt lat="47.25325820506294" lon="-1.540446868167762"><ele>6.333333333333334</ele><time>2026-03-23T16:38:16Z</time></trkpt><trkpt lat="47.25332266189833" lon="-1.5404217224582475"><ele>6.0</ele><time>2026-03-23T16:38:17Z</time></trkpt><trkpt lat="47.25344269075175" lon="-1.5404137596502345"><ele>5.666666666666667</ele><time>2026-03-23T16:38:19Z</time></trkpt><trkpt lat="47.25350559693505" lon="-1.5404055453851264"><ele>5.333333333333334</ele><time>2026-03-23T16:38:20Z</time></trkpt><trkpt lat="47.25359616339882" lon="-1.5403684973731082"><ele>5.0</ele><time>2026-03-23T16:38:22Z</time></trkpt><trkpt lat="47.25366594274272" lon="-1.540372688324694"><ele>5.0</ele><time>2026-03-23T16:38:23Z</time></trkpt><trkpt lat="47.25378178064455" lon="-1.5403600316509047"><ele>5.0</ele><time>2026-03-23T16:38:25Z</time></trkpt><trkpt lat="47.25389179312368" lon="-1.5403078962131778"><ele>5.0</ele><time>2026-03-23T16:38:27Z</time></trkpt><trkpt lat="47.25395993799646" lon="-1.540321391077284"><ele>5.0</ele><time>2026-03-23T16:38:28Z</time></trkpt><trkpt lat="47.25405565933068" lon="-1.5402622986599246"><ele>5.0</ele><time>2026-03-23T16:38:30Z</time></trkpt><trkpt lat="47.25413608369161" lon="-1.540255425499324"><ele>5.0</ele><time>2026-03-23T16:38:31Z</time></trkpt><trkpt lat="47.25421462212433" lon="-1.5402379911407271"><ele>5.0</ele><time>2026-03-23T16:38:32Z</time></trkpt><trkpt lat="47.25427748639812" lon="-1.540203541518692"><ele>5.0</ele><time>2026-03-23T16:38:33Z</time></trkpt><trkpt lat="47.254345589361385" lon="-1.5401695109918156"><ele>5.0</ele><time>2026-03-23T16:38:34Z</time></trkpt><trkpt lat="47.254426013722316" lon="-1.5401633083834687"><ele>5.0</ele><time>2026-03-23T16:38:35Z</time></trkpt><trkpt lat="47.254536906301276" lon="-1.5401594527080098"><ele>5.0</ele><time>2026-03-23T16:38:37Z</time></trkpt><trkpt lat="47.25464469757607" lon="-1.5401606261744538"><ele>5.0</ele><time>2026-03-23T16:38:39Z</time></trkpt><trkpt lat="47.25472612776538" lon="-1.5401821676656047"><ele>5.0</ele><time>2026-03-23T16:38:40Z</time></trkpt><trkpt lat="47.25480831232598" lon="-1.5401550941183606"><ele>5.0</ele><time>2026-03-23T16:38:42Z</time></trkpt><trkpt lat="47.25487235006621" lon="-1.5401237458004988"><ele>5.0</ele><time>2026-03-23T16:38:43Z</time></trkpt><trkpt lat="47.25493483715435" lon="-1.5401419345303813"><ele>5.0</ele><time>2026-03-23T16:38:44Z</time></trkpt><trkpt lat="47.25504510109057" lon="-1.5401147771641053"><ele>5.0</ele><time>2026-03-23T16:38:46Z</time></trkpt><trkpt lat="47.25515842442145" lon="-1.540075717495326"><ele>5.833333333333334</ele><time>2026-03-23T16:38:48Z</time></trkpt><trkpt lat="47.25525364284148" lon="-1.5400019567474164"><ele>6.666666666666667</ele><time>2026-03-23T16:38:52Z</time></trkpt><trkpt lat="47.2553181834959" lon="-1.5399813372656144"><ele>7.5</ele><time>2026-03-23T16:38:53Z</time></trkpt><trkpt lat="47.255384023345314" lon="-1.5399486478432454"><ele>8.333333333333334</ele><time>2026-03-23T16:38:54Z</time></trkpt><trkpt lat="47.25551272746851" lon="-1.539879748599175"><ele>9.166666666666668</ele><time>2026-03-23T16:38:56Z</time></trkpt><trkpt lat="47.25557936359873" lon="-1.5398587100222145"><ele>10.0</ele><time>2026-03-23T16:38:57Z</time></trkpt><trkpt lat="47.25564650264313" lon="-1.5398317202940022"><ele>10.4</ele><time>2026-03-23T16:38:58Z</time></trkpt><trkpt lat="47.2557587363266" lon="-1.5397864580168759"><ele>10.8</ele><time>2026-03-23T16:39:00Z</time></trkpt><trkpt lat="47.255835346921586" lon="-1.5397523436709677"><ele>11.2</ele><time>2026-03-23T16:39:01Z</time></trkpt><trkpt lat="47.25595613014629" lon="-1.5396964363768135"><ele>11.6</ele><time>2026-03-23T16:39:03Z</time></trkpt><trkpt lat="47.2560230177336" lon="-1.5396644175066982"><ele>12.0</ele><time>2026-03-23T16:39:04Z</time></trkpt><trkpt lat="47.256093258082174" lon="-1.5396368410452637"><ele>12.0</ele><time>2026-03-23T16:39:05Z</time></trkpt><trkpt lat="47.256165090992354" lon="-1.5395944286152157"><ele>12.0</ele><time>2026-03-23T16:39:06Z</time></trkpt><trkpt lat="47.25625540599903" lon="-1.5395515132709774"><ele>12.0</ele><time>2026-03-23T16:39:08Z</time></trkpt><trkpt lat="47.256372794552945" lon="-1.5394695382579597"><ele>12.0</ele><time>2026-03-23T16:39:10Z</time></trkpt><trkpt lat="47.256420864767634" lon="-1.5393994655474454"><ele>12.0</ele><time>2026-03-23T16:39:11Z</time></trkpt><trkpt lat="47.256497349634074" lon="-1.5393855515881807"><ele>12.0</ele><time>2026-03-23T16:39:12Z</time></trkpt><trkpt lat="47.25656729661604" lon="-1.5393691230579645"><ele>11.166666666666666</ele><time>2026-03-23T16:39:13Z</time></trkpt><trkpt lat="47.25664264992555" lon="-1.5393771696850092"><ele>10.333333333333334</ele><time>2026-03-23T16:39:14Z</time></trkpt><trkpt lat="47.2567093698748" lon="-1.5393818635507852"><ele>9.5</ele><time>2026-03-23T16:39:15Z</time></trkpt><trkpt lat="47.25677885585209" lon="-1.5393908321871788"><ele>8.666666666666668</ele><time>2026-03-23T16:39:16Z</time></trkpt><trkpt lat="47.2568637226217" lon="-1.5393925923868448"><ele>7.833333333333334</ele><time>2026-03-23T16:39:17Z</time></trkpt><trkpt lat="47.25695600737562" lon="-1.5394032374038726"><ele>7.0</ele><time>2026-03-23T16:39:19Z</time></trkpt><trkpt lat="47.25706539121201" lon="-1.5394234377905163"><ele>7.0</ele><time>2026-03-23T16:39:21Z</time></trkpt><trkpt lat="47.25714154080232" lon="-1.5394827816649708"><ele>6.999999999999999</ele><time>2026-03-23T16:39:23Z</time></trkpt><trkpt lat="47.25722494073888" lon="-1.5395600628122124"><ele>6.999999999999999</ele><time>2026-03-23T16:39:25Z</time></trkpt><trkpt lat="47.257307041480445" lon="-1.5396804269417559"><ele>7.0</ele><time>2026-03-23T16:39:27Z</time></trkpt><trkpt lat="47.257342035926186" lon="-1.5397700294866596"><ele>7.0</ele><time>2026-03-23T16:39:29Z</time></trkpt><trkpt lat="47.25736990575423" lon="-1.5398996137096919"><ele>7.833333333333334</ele><time>2026-03-23T16:39:31Z</time></trkpt><trkpt lat="47.25738587327977" lon="-1.5400354843601025"><ele>8.666666666666668</ele><time>2026-03-23T16:39:33Z</time></trkpt><trkpt lat="47.257451126395964" lon="-1.5401178784682787"><ele>9.5</ele><time>2026-03-23T16:39:35Z</time></trkpt><trkpt lat="47.257499280429684" lon="-1.540214773268942"><ele>10.333333333333334</ele><time>2026-03-23T16:39:37Z</time></trkpt><trkpt lat="47.25754491989245" lon="-1.5403368137791196"><ele>11.166666666666666</ele><time>2026-03-23T16:39:39Z</time></trkpt><trkpt lat="47.2575675091215" lon="-1.5404602792128366"><ele>12.0</ele><time>2026-03-23T16:39:41Z</time></trkpt><trkpt lat="47.25761109501799" lon="-1.5405671484782737"><ele>12.285714285714285</ele><time>2026-03-23T16:39:43Z</time></trkpt><trkpt lat="47.257629786662065" lon="-1.540675777943377"><ele>12.571428571428571</ele><time>2026-03-23T16:39:45Z</time></trkpt><trkpt lat="47.25767496512016" lon="-1.54078390449429"><ele>12.857142857142858</ele><time>2026-03-23T16:39:47Z</time></trkpt><trkpt lat="47.25771029484203" lon="-1.5408833138659046"><ele>13.142857142857142</ele><time>2026-03-23T16:39:49Z</time></trkpt><trkpt lat="47.25774059542199" lon="-1.5409795381143139"><ele>13.428571428571429</ele><time>2026-03-23T16:39:51Z</time></trkpt><trkpt lat="47.257766369774245" lon="-1.541067548097615"><ele>13.714285714285714</ele><time>2026-03-23T16:39:53Z</time></trkpt><trkpt lat="47.25781054240396" lon="-1.5411499422057915"><ele>14.0</ele><time>2026-03-23T16:39:55Z</time></trkpt><trkpt lat="47.25787378386339" lon="-1.5412433166071224"><ele>14.166666666666668</ele><time>2026-03-23T16:39:58Z</time></trkpt><trkpt lat="47.25792311136355" lon="-1.5413475874825766"><ele>14.333333333333334</ele><time>2026-03-23T16:40:01Z</time></trkpt><trkpt lat="47.257959111637675" lon="-1.5414406266077807"><ele>14.5</ele><time>2026-03-23T16:40:03Z</time></trkpt><trkpt lat="47.257997039749526" lon="-1.5415392816081097"><ele>14.666666666666668</ele><time>2026-03-23T16:40:05Z</time></trkpt><trkpt lat="47.258032872385584" lon="-1.5416380204274707"><ele>14.833333333333334</ele><time>2026-03-23T16:40:07Z</time></trkpt><trkpt lat="47.25806811828842" lon="-1.5417417883887343"><ele>15.0</ele><time>2026-03-23T16:40:09Z</time></trkpt><trkpt lat="47.258101562082075" lon="-1.5418354142471606"><ele>16.666666666666668</ele><time>2026-03-23T16:40:11Z</time></trkpt><trkpt lat="47.258140202655696" lon="-1.5419385954752023"><ele>18.333333333333336</ele><time>2026-03-23T16:40:13Z</time></trkpt><trkpt lat="47.25817884322932" lon="-1.5420390944942293"><ele>20.0</ele><time>2026-03-23T16:40:15Z</time></trkpt><trkpt lat="47.25822339304467" lon="-1.5421305410578308"><ele>21.666666666666668</ele><time>2026-03-23T16:40:17Z</time></trkpt><trkpt lat="47.25828189872881" lon="-1.5422033797963914"><ele>23.333333333333336</ele><time>2026-03-23T16:40:19Z</time></trkpt><trkpt lat="47.258336297280394" lon="-1.5422906354084074"><ele>25.0</ele><time>2026-03-23T16:40:21Z</time></trkpt><trkpt lat="47.25839430005034" lon="-1.5423868596568167"><ele>25.000000000000004</ele><time>2026-03-23T16:40:23Z</time></trkpt><trkpt lat="47.258461732461356" lon="-1.5424690861269295"><ele>25.0</ele><time>2026-03-23T16:40:25Z</time></trkpt><trkpt lat="47.25853696004232" lon="-1.5425353031619848"><ele>25.0</ele><time>2026-03-23T16:40:27Z</time></trkpt><trkpt lat="47.258596513464354" lon="-1.5426184516414465"><ele>25.0</ele><time>2026-03-23T16:40:29Z</time></trkpt><trkpt lat="47.2586492356353" lon="-1.5426976606264176"><ele>25.000000000000004</ele><time>2026-03-23T16:40:31Z</time></trkpt><trkpt lat="47.258709417700075" lon="-1.5427414979800047"><ele>25.0</ele><time>2026-03-23T16:40:33Z</time></trkpt><trkpt lat="47.25878837522795" lon="-1.542772427202708"><ele>25.000000000000004</ele><time>2026-03-23T16:40:36Z</time></trkpt><trkpt lat="47.25887374491175" lon="-1.542798327283508"><ele>25.0</ele><time>2026-03-23T16:40:40Z</time></trkpt><trkpt lat="47.25894385953178" lon="-1.5428152587279145"><ele>25.0</ele><time>2026-03-23T16:40:42Z</time></trkpt><trkpt lat="47.259013052142464" lon="-1.5428212098791663"><ele>25.0</ele><time>2026-03-23T16:40:44Z</time></trkpt><trkpt lat="47.259076167873346" lon="-1.54280478134895"><ele>25.0</ele><time>2026-03-23T16:40:46Z</time></trkpt><trkpt lat="47.259149258069" lon="-1.5427849162384335"><ele>25.000000000000004</ele><time>2026-03-23T16:40:48Z</time></trkpt><trkpt lat="47.25922000133177" lon="-1.5427686553462807"><ele>25.0</ele><time>2026-03-23T16:40:50.001Z</time></trkpt><trkpt lat="47.259320626079344" lon="-1.5427522268160645"><ele>25.5</ele><time>2026-03-23T16:40:52.001Z</time></trkpt><trkpt lat="47.25943617061456" lon="-1.5427505504354302"><ele>26.0</ele><time>2026-03-23T16:40:54.001Z</time></trkpt><trkpt lat="47.25954626691272" lon="-1.5427439287319245"><ele>26.5</ele><time>2026-03-23T16:40:56.001Z</time></trkpt><trkpt lat="47.2596767731451" lon="-1.5427363012000384"><ele>27.0</ele><time>2026-03-23T16:40:58.001Z</time></trkpt><trkpt lat="47.25978456441989" lon="-1.5426974091693224"><ele>27.0</ele><time>2026-03-23T16:41:00.001Z</time></trkpt><trkpt lat="47.25984851834109" lon="-1.5426985826357664"><ele>27.0</ele><time>2026-03-23T16:41:01.001Z</time></trkpt><trkpt lat="47.25991243035277" lon="-1.5427113231285872"><ele>27.0</ele><time>2026-03-23T16:41:02.001Z</time></trkpt><trkpt lat="47.25998841230502" lon="-1.5426884405329289"><ele>27.0</ele><time>2026-03-23T16:41:04Z</time></trkpt><trkpt lat="47.26005249195477" lon="-1.5426656417563023"><ele>27.0</ele><time>2026-03-23T16:41:05Z</time></trkpt><trkpt lat="47.26013140757313" lon="-1.5426525659873547"><ele>27.0</ele><time>2026-03-23T16:41:06Z</time></trkpt><trkpt lat="47.26026149471035" lon="-1.5426465310170712"><ele>27.0</ele><time>2026-03-23T16:41:08Z</time></trkpt><trkpt lat="47.26038311612537" lon="-1.54265038669253"><ele>27.0</ele><time>2026-03-23T16:41:10Z</time></trkpt><trkpt lat="47.2605092637681" lon="-1.5426566731199087"><ele>27.0</ele><time>2026-03-23T16:41:12Z</time></trkpt><trkpt lat="47.260623131922685" lon="-1.5426422562464537"><ele>27.0</ele><time>2026-03-23T16:41:14Z</time></trkpt><trkpt lat="47.26075560790231" lon="-1.5426494646831812"><ele>26.285714285714285</ele><time>2026-03-23T16:41:16Z</time></trkpt><trkpt lat="47.26081893318077" lon="-1.542640076951629"><ele>25.57142857142857</ele><time>2026-03-23T16:41:17Z</time></trkpt><trkpt lat="47.260886197953724" lon="-1.5426345448955359"><ele>24.857142857142858</ele><time>2026-03-23T16:41:18Z</time></trkpt><trkpt lat="47.260949523232185" lon="-1.5426354669048847"><ele>24.142857142857142</ele><time>2026-03-23T16:41:19Z</time></trkpt><trkpt lat="47.261044029190444" lon="-1.5426408313229145"><ele>23.428571428571427</ele><time>2026-03-23T16:41:21Z</time></trkpt><trkpt lat="47.26111012049695" lon="-1.5426554996534647"><ele>22.714285714285715</ele><time>2026-03-23T16:41:22Z</time></trkpt><trkpt lat="47.26117336195638" lon="-1.5426441840841831"><ele>22.0</ele><time>2026-03-23T16:41:23Z</time></trkpt><trkpt lat="47.26129045714369" lon="-1.5426700841649832"><ele>22.0</ele><time>2026-03-23T16:41:25Z</time></trkpt><trkpt lat="47.261397410228156" lon="-1.5426539070918621"><ele>22.0</ele><time>2026-03-23T16:41:27Z</time></trkpt><trkpt lat="47.26154690147122" lon="-1.5426774602397741"><ele>22.0</ele><time>2026-03-23T16:41:29Z</time></trkpt><trkpt lat="47.26161743518641" lon="-1.542681064458138"><ele>22.0</ele><time>2026-03-23T16:41:30Z</time></trkpt><trkpt lat="47.26171458144417" lon="-1.5426759514972033"><ele>22.0</ele><time>2026-03-23T16:41:31Z</time></trkpt><trkpt lat="47.26178184621712" lon="-1.5426728501930298"><ele>22.0</ele><time>2026-03-23T16:41:32Z</time></trkpt><trkpt lat="47.26189554673364" lon="-1.5426774602397741"><ele>22.0</ele><time>2026-03-23T16:41:34Z</time></trkpt><trkpt lat="47.26197932385584" lon="-1.5426594391479553"><ele>22.0</ele><time>2026-03-23T16:41:35Z</time></trkpt><trkpt lat="47.262140256396734" lon="-1.542670167984015"><ele>22.0</ele><time>2026-03-23T16:41:37Z</time></trkpt><trkpt lat="47.26221079011193" lon="-1.542683998124248"><ele>22.0</ele><time>2026-03-23T16:41:38Z</time></trkpt><trkpt lat="47.26233957805416" lon="-1.5426971577122273"><ele>21.6</ele><time>2026-03-23T16:41:40Z</time></trkpt><trkpt lat="47.262404789260835" lon="-1.542709311471826"><ele>21.200000000000003</ele><time>2026-03-23T16:41:41Z</time></trkpt><trkpt lat="47.262489362663835" lon="-1.542728422211057"><ele>20.8</ele><time>2026-03-23T16:41:42Z</time></trkpt><trkpt lat="47.26261387583545" lon="-1.5427963994457785"><ele>20.4</ele><time>2026-03-23T16:41:44Z</time></trkpt><trkpt lat="47.262679464227766" lon="-1.5428281668587986"><ele>20.0</ele><time>2026-03-23T16:41:45Z</time></trkpt><trkpt lat="47.26277929269454" lon="-1.5429356228574578"><ele>19.857142857142858</ele><time>2026-03-23T16:41:47Z</time></trkpt><trkpt lat="47.26284898821941" lon="-1.5430025942637986"><ele>19.714285714285715</ele><time>2026-03-23T16:41:48Z</time></trkpt><trkpt lat="47.26290456023744" lon="-1.5430557355299062"><ele>19.57142857142857</ele><time>2026-03-23T16:41:49Z</time></trkpt><trkpt lat="47.26295107980004" lon="-1.5431274008020228"><ele>19.42857142857143</ele><time>2026-03-23T16:41:50Z</time></trkpt><trkpt lat="47.26300317332825" lon="-1.5431873314096993"><ele>19.28571428571429</ele><time>2026-03-23T16:41:51Z</time></trkpt><trkpt lat="47.26306813307783" lon="-1.5432411432280608"><ele>19.142857142857142</ele><time>2026-03-23T16:41:52Z</time></trkpt><trkpt lat="47.26312395655295" lon="-1.5433252137168714"><ele>19.0</ele><time>2026-03-23T16:41:53Z</time></trkpt><trkpt lat="47.26319117941639" lon="-1.5433855634197065"><ele>19.0</ele><time>2026-03-23T16:41:54Z</time></trkpt><trkpt lat="47.263287948488504" lon="-1.5434480924173661"><ele>19.0</ele><time>2026-03-23T16:41:56Z</time></trkpt><trkpt lat="47.26338107143274" lon="-1.543540963904507"><ele>19.0</ele><time>2026-03-23T16:41:58Z</time></trkpt><trkpt lat="47.26343127903274" lon="-1.5436242800220321"><ele>19.0</ele><time>2026-03-23T16:41:59Z</time></trkpt><trkpt lat="47.26349083245477" lon="-1.543691167609341"><ele>19.0</ele><time>2026-03-23T16:42:00Z</time></trkpt><trkpt lat="47.26355650466612" lon="-1.5437649283572508"><ele>19.0</ele><time>2026-03-23T16:42:01Z</time></trkpt><trkpt lat="47.26360880774191" lon="-1.543821422384627"><ele>19.0</ele><time>2026-03-23T16:42:02Z</time></trkpt><trkpt lat="47.26373231508514" lon="-1.5438674390330387"><ele>19.0</ele><time>2026-03-23T16:42:04Z</time></trkpt><trkpt lat="47.26384312384507" lon="-1.5439717937275246"><ele>19.0</ele><time>2026-03-23T16:42:06Z</time></trkpt><trkpt lat="47.26391122680834" lon="-1.5440560318543985"><ele>19.0</ele><time>2026-03-23T16:42:08Z</time></trkpt><trkpt lat="47.26402056873521" lon="-1.5441568661495522"><ele>19.0</ele><time>2026-03-23T16:42:10Z</time></trkpt><trkpt lat="47.26406855513087" lon="-1.5442174673094826"><ele>19.0</ele><time>2026-03-23T16:42:11Z</time></trkpt><trkpt lat="47.264161887622684" lon="-1.5442789904787617"><ele>19.0</ele><time>2026-03-23T16:42:13Z</time></trkpt><trkpt lat="47.26426837970248" lon="-1.5443338919445353"><ele>19.0</ele><time>2026-03-23T16:42:15Z</time></trkpt><trkpt lat="47.264375458515495" lon="-1.5443732868894415"><ele>19.0</ele><time>2026-03-23T16:42:17Z</time></trkpt><trkpt lat="47.26444460921666" lon="-1.5443258453174906"><ele>19.0</ele><time>2026-03-23T16:42:18Z</time></trkpt><trkpt lat="47.26454292894086" lon="-1.5443556010737496"><ele>19.0</ele><time>2026-03-23T16:42:20Z</time></trkpt><trkpt lat="47.264616563960224" lon="-1.5443417709335165"><ele>19.0</ele><time>2026-03-23T16:42:22Z</time></trkpt><trkpt lat="47.26470537022433" lon="-1.5442908089622336"><ele>19.0</ele><time>2026-03-23T16:42:24Z</time></trkpt><trkpt lat="47.264787554784924" lon="-1.5442545153215008"><ele>19.0</ele><time>2026-03-23T16:42:26Z</time></trkpt><trkpt lat="47.26488520395687" lon="-1.5441887173816042"><ele>19.6</ele><time>2026-03-23T16:42:28Z</time></trkpt><trkpt lat="47.264974722682744" lon="-1.5441608894630745"><ele>20.2</ele><time>2026-03-23T16:42:30Z</time></trkpt><trkpt lat="47.26508687254718" lon="-1.5440761484220102"><ele>20.8</ele><time>2026-03-23T16:42:32Z</time></trkpt><trkpt lat="47.265187497294754" lon="-1.544013200329192"><ele>21.400000000000002</ele><time>2026-03-23T16:42:34Z</time></trkpt><trkpt lat="47.26528120697221" lon="-1.543977241964586"><ele>22.0</ele><time>2026-03-23T16:42:36Z</time></trkpt><trkpt lat="47.26539272819391" lon="-1.5439392719432188"><ele>22.0</ele><time>2026-03-23T16:42:38Z</time></trkpt><trkpt lat="47.26548568350008" lon="-1.5439008828266931"><ele>22.0</ele><time>2026-03-23T16:42:40Z</time></trkpt><trkpt lat="47.26559850391677" lon="-1.5438904054477287"><ele>22.0</ele><time>2026-03-23T16:42:42Z</time></trkpt><trkpt lat="47.26569368042728" lon="-1.5439124498530699"><ele>22.0</ele><time>2026-03-23T16:42:44Z</time></trkpt><trkpt lat="47.26575805344364" lon="-1.5439865458771065"><ele>22.0</ele><time>2026-03-23T16:42:46Z</time></trkpt><trkpt lat="47.265778128101736" lon="-1.54407564550782"><ele>22.0</ele><time>2026-03-23T16:42:48Z</time></trkpt><trkpt lat="47.2657896532186" lon="-1.5442045591785984"><ele>22.0</ele><time>2026-03-23T16:42:50Z</time></trkpt><trkpt lat="47.26579933431676" lon="-1.5443545114263373"><ele>22.0</ele><time>2026-03-23T16:42:52Z</time></trkpt><trkpt lat="47.265828209973186" lon="-1.5444709360613902"><ele>22.0</ele><time>2026-03-23T16:42:54Z</time></trkpt><trkpt lat="47.26589254108003" lon="-1.5445985924466927"><ele>22.0</ele><time>2026-03-23T16:42:56Z</time></trkpt><trkpt lat="47.26600259546867" lon="-1.5446613729014478"><ele>22.200000000000003</ele><time>2026-03-23T16:42:58Z</time></trkpt><trkpt lat="47.26611885246566" lon="-1.5446649771198115"><ele>22.4</ele><time>2026-03-23T16:43:00Z</time></trkpt><trkpt lat="47.26622496735981" lon="-1.544627342374571"><ele>22.6</ele><time>2026-03-23T16:43:02Z</time></trkpt><trkpt lat="47.266329238235265" lon="-1.5445869416012843"><ele>22.799999999999997</ele><time>2026-03-23T16:43:04Z</time></trkpt><trkpt lat="47.266433341472656" lon="-1.5445642266436894"><ele>23.0</ele><time>2026-03-23T16:43:06Z</time></trkpt><trkpt lat="47.26651787296614" lon="-1.544537236915477"><ele>23.0</ele><time>2026-03-23T16:43:08Z</time></trkpt><trkpt lat="47.26663329177281" lon="-1.544527849183925"><ele>23.0</ele><time>2026-03-23T16:43:10Z</time></trkpt><trkpt lat="47.26674644746563" lon="-1.5445345547064622"><ele>23.0</ele><time>2026-03-23T16:43:12Z</time></trkpt><trkpt lat="47.26684216879985" lon="-1.5445353928967793"><ele>23.0</ele><time>2026-03-23T16:43:14Z</time></trkpt><trkpt lat="47.26695821624926" lon="-1.5445620473488648"><ele>23.0</ele><time>2026-03-23T16:43:16Z</time></trkpt><trkpt lat="47.267057793258935" lon="-1.5445785596981128"><ele>23.4</ele><time>2026-03-23T16:43:18Z</time></trkpt><trkpt lat="47.26715678353539" lon="-1.5445998497321685"><ele>23.799999999999997</ele><time>2026-03-23T16:43:20Z</time></trkpt><trkpt lat="47.26724156648597" lon="-1.5445964969708998"><ele>24.2</ele><time>2026-03-23T16:43:22Z</time></trkpt><trkpt lat="47.26732060783288" lon="-1.5446567628547032"><ele>24.6</ele><time>2026-03-23T16:43:24Z</time></trkpt><trkpt lat="47.26740782153538" lon="-1.5447242371752343"><ele>25.0</ele><time>2026-03-23T16:43:26Z</time></trkpt><trkpt lat="47.26745811295441" lon="-1.5448432602002702"><ele>25.333333333333336</ele><time>2026-03-23T16:43:28Z</time></trkpt><trkpt lat="47.26752043240449" lon="-1.5449498780086124"><ele>25.666666666666668</ele><time>2026-03-23T16:43:30Z</time></trkpt><trkpt lat="47.267571855380446" lon="-1.5450435876860702"><ele>26.0</ele><time>2026-03-23T16:43:32Z</time></trkpt><trkpt lat="47.26762394890866" lon="-1.5451423265054312"><ele>26.333333333333336</ele><time>2026-03-23T16:43:34Z</time></trkpt><trkpt lat="47.267665439329356" lon="-1.5452384669348087"><ele>26.666666666666668</ele><time>2026-03-23T16:43:36Z</time></trkpt><trkpt lat="47.26771262944421" lon="-1.5453539695605125"><ele>27.0</ele><time>2026-03-23T16:43:39Z</time></trkpt><trkpt lat="47.26776493252" lon="-1.5454409737154333"><ele>27.0</ele><time>2026-03-23T16:43:41Z</time></trkpt><trkpt lat="47.26781895388594" lon="-1.54555857181693"><ele>27.0</ele><time>2026-03-23T16:43:43Z</time></trkpt><trkpt lat="47.26787314288995" lon="-1.545665860177526"><ele>27.0</ele><time>2026-03-23T16:43:46Z</time></trkpt><trkpt lat="47.26786979012868" lon="-1.5458052512272686"><ele>27.0</ele><time>2026-03-23T16:43:48Z</time></trkpt><trkpt lat="47.267892588905305" lon="-1.545926872642288"><ele>27.0</ele><time>2026-03-23T16:43:51Z</time></trkpt><trkpt lat="47.26794719700447" lon="-1.5459788404419514"><ele>27.0</ele><time>2026-03-23T16:43:53Z</time></trkpt><trkpt lat="47.26802686699411" lon="-1.5459784213467929"><ele>27.0</ele><time>2026-03-23T16:43:55Z</time></trkpt><trkpt lat="47.26810791999778" lon="-1.5459740627571437"><ele>27.0</ele><time>2026-03-23T16:43:57Z</time></trkpt><trkpt lat="47.26818654224953" lon="-1.5459859650596472"><ele>27.0</ele><time>2026-03-23T16:43:59Z</time></trkpt><trkpt lat="47.268267553343684" lon="-1.545996945352802"><ele>27.0</ele><time>2026-03-23T16:44:01Z</time></trkpt><trkpt lat="47.268380750946015" lon="-1.546026114375839"><ele>27.0</ele><time>2026-03-23T16:44:03Z</time></trkpt><trkpt lat="47.26847081449559" lon="-1.5460504218950364"><ele>27.0</ele><time>2026-03-23T16:44:05Z</time></trkpt><trkpt lat="47.2685783962228" lon="-1.5460462309434506"><ele>27.400000000000002</ele><time>2026-03-23T16:44:07Z</time></trkpt><trkpt lat="47.268667873039156" lon="-1.5461019705995416"><ele>27.800000000000004</ele><time>2026-03-23T16:44:09Z</time></trkpt><trkpt lat="47.26880185776135" lon="-1.5461528487517928"><ele>28.2</ele><time>2026-03-23T16:44:11Z</time></trkpt><trkpt lat="47.26887146946719" lon="-1.546143377201209"><ele>28.6</ele><time>2026-03-23T16:44:12Z</time></trkpt><trkpt lat="47.26898605008355" lon="-1.5461591351791715"><ele>29.0</ele><time>2026-03-23T16:44:14Z</time></trkpt><trkpt lat="47.26908772256902" lon="-1.546157794074664"><ele>29.6</ele><time>2026-03-23T16:44:16Z</time></trkpt><trkpt lat="47.26917615164748" lon="-1.5461833588793372"><ele>30.2</ele><time>2026-03-23T16:44:18Z</time></trkpt><trkpt lat="47.26926558655432" lon="-1.5462107677027082"><ele>30.800000000000004</ele><time>2026-03-23T16:44:20Z</time></trkpt><trkpt lat="47.26937966425648" lon="-1.5462024696185683"><ele>31.400000000000002</ele><time>2026-03-23T16:44:22Z</time></trkpt><trkpt lat="47.269483264579684" lon="-1.5461969375624751"><ele>32.0</ele><time>2026-03-23T16:44:24Z</time></trkpt><trkpt lat="47.269595540172666" lon="-1.5461877174689864"><ele>31.999999999999996</ele><time>2026-03-23T16:44:26Z</time></trkpt><trkpt lat="47.26969402753493" lon="-1.5461656730636453"><ele>32.0</ele><time>2026-03-23T16:44:28Z</time></trkpt><trkpt lat="47.26979523901573" lon="-1.5461709536626433"><ele>32.0</ele><time>2026-03-23T16:44:30Z</time></trkpt><trkpt lat="47.26986946076832" lon="-1.5461612306549644"><ele>32.0</ele><time>2026-03-23T16:44:31Z</time></trkpt><trkpt lat="47.269965014464475" lon="-1.5461536031230783"><ele>31.999999999999996</ele><time>2026-03-23T16:44:33Z</time></trkpt><trkpt lat="47.270035338632084" lon="-1.5461592189982032"><ele>32.0</ele><time>2026-03-23T16:44:34Z</time></trkpt><trkpt lat="47.27015184708617" lon="-1.5461586322649812"><ele>32.0</ele><time>2026-03-23T16:44:36Z</time></trkpt><trkpt lat="47.270222003615714" lon="-1.546162236483345"><ele>32.0</ele><time>2026-03-23T16:44:37Z</time></trkpt><trkpt lat="47.270316300026394" lon="-1.5462055709227418"><ele>32.0</ele><time>2026-03-23T16:44:39Z</time></trkpt><trkpt lat="47.27042685732923" lon="-1.5462144557401036"><ele>32.0</ele><time>2026-03-23T16:44:41Z</time></trkpt><trkpt lat="47.270558201751925" lon="-1.546243792401204"><ele>32.0</ele><time>2026-03-23T16:44:43Z</time></trkpt><trkpt lat="47.270640847317196" lon="-1.546289725230584"><ele>32.2</ele><time>2026-03-23T16:44:45Z</time></trkpt><trkpt lat="47.270750943615354" lon="-1.5462933294489478"><ele>32.400000000000006</ele><time>2026-03-23T16:44:47Z</time></trkpt><trkpt lat="47.27087403186343" lon="-1.5463264379664754"><ele>32.599999999999994</ele><time>2026-03-23T16:44:49Z</time></trkpt><trkpt lat="47.27094728969715" lon="-1.5463406872018672"><ele>32.8</ele><time>2026-03-23T16:44:50Z</time></trkpt><trkpt lat="47.27101149507544" lon="-1.546361390502701"><ele>33.0</ele><time>2026-03-23T16:44:51Z</time></trkpt><trkpt lat="47.271090787879444" lon="-1.5463774837567903"><ele>33.0</ele><time>2026-03-23T16:44:52Z</time></trkpt><trkpt lat="47.271165554455735" lon="-1.546402294190178"><ele>33.0</ele><time>2026-03-23T16:44:54Z</time></trkpt><trkpt lat="47.271259934685446" lon="-1.5464412700399257"><ele>33.0</ele><time>2026-03-23T16:44:56Z</time></trkpt><trkpt lat="47.271391362927176" lon="-1.5464872866883375"><ele>33.0</ele><time>2026-03-23T16:44:58Z</time></trkpt><trkpt lat="47.27151260715655" lon="-1.5465286094709731"><ele>33.0</ele><time>2026-03-23T16:45:00Z</time></trkpt><trkpt lat="47.271587457551874" lon="-1.546539254488001"><ele>32.6</ele><time>2026-03-23T16:45:01Z</time></trkpt><trkpt lat="47.27171486248008" lon="-1.5465751290335754"><ele>32.199999999999996</ele><time>2026-03-23T16:45:03Z</time></trkpt><trkpt lat="47.27181531958959" lon="-1.5465891268118719"><ele>31.8</ele><time>2026-03-23T16:45:05Z</time></trkpt><trkpt lat="47.27188304536722" lon="-1.5466211456819872"><ele>31.4</ele><time>2026-03-23T16:45:06Z</time></trkpt><trkpt lat="47.27200424768708" lon="-1.5466652344926695"><ele>31.0</ele><time>2026-03-23T16:45:08Z</time></trkpt><trkpt lat="47.272105878263034" lon="-1.5467059705420831"><ele>31.0</ele><time>2026-03-23T16:45:10Z</time></trkpt><trkpt lat="47.27216886826537" lon="-1.546727512033234"><ele>31.0</ele><time>2026-03-23T16:45:11Z</time></trkpt><trkpt lat="47.27228491571478" lon="-1.5467711817487577"><ele>31.0</ele><time>2026-03-23T16:45:13Z</time></trkpt><trkpt lat="47.272401507987894" lon="-1.5468440204873186"><ele>31.0</ele><time>2026-03-23T16:45:15Z</time></trkpt><trkpt lat="47.27249060761861" lon="-1.5468458645060164"><ele>31.0</ele><time>2026-03-23T16:45:16Z</time></trkpt><trkpt lat="47.27259835698388" lon="-1.5468715131297213"><ele>31.200000000000003</ele><time>2026-03-23T16:45:18Z</time></trkpt><trkpt lat="47.272717170461334" lon="-1.5468753688051802"><ele>31.400000000000002</ele><time>2026-03-23T16:45:20Z</time></trkpt><trkpt lat="47.27278854236684" lon="-1.5468994248672825"><ele>31.6</ele><time>2026-03-23T16:45:22Z</time></trkpt><trkpt lat="47.272871146022595" lon="-1.546893389896999"><ele>31.8</ele><time>2026-03-23T16:45:24Z</time></trkpt><trkpt lat="47.27297914684496" lon="-1.5469417534782988"><ele>32.0</ele><time>2026-03-23T16:45:26Z</time></trkpt><trkpt lat="47.273044064685024" lon="-1.5469900332405668"><ele>31.8</ele><time>2026-03-23T16:45:27Z</time></trkpt><trkpt lat="47.27316195615313" lon="-1.547028589995156"><ele>31.6</ele><time>2026-03-23T16:45:29Z</time></trkpt><trkpt lat="47.273270585618235" lon="-1.5470534842475756"><ele>31.400000000000002</ele><time>2026-03-23T16:45:31Z</time></trkpt><trkpt lat="47.27337795779786" lon="-1.5471035242095097"><ele>31.200000000000003</ele><time>2026-03-23T16:45:33Z</time></trkpt><trkpt lat="47.27347891782156" lon="-1.5471284184619292"><ele>31.0</ele><time>2026-03-23T16:45:35Z</time></trkpt><trkpt lat="47.2735865833678" lon="-1.5471790451570853"><ele>31.333333333333336</ele><time>2026-03-23T16:45:37Z</time></trkpt><trkpt lat="47.273644125133075" lon="-1.5472214575871333"><ele>31.666666666666668</ele><time>2026-03-23T16:45:38Z</time></trkpt><trkpt lat="47.273739930286325" lon="-1.5473000798388825"><ele>32.0</ele><time>2026-03-23T16:45:40Z</time></trkpt><trkpt lat="47.273814613043584" lon="-1.5473926160498963"><ele>32.333333333333336</ele><time>2026-03-23T16:45:42Z</time></trkpt><trkpt lat="47.273893319114364" lon="-1.547486661003481"><ele>32.666666666666664</ele><time>2026-03-23T16:45:44Z</time></trkpt><trkpt lat="47.27392525416545" lon="-1.5475693903877843"><ele>33.0</ele><time>2026-03-23T16:45:45Z</time></trkpt><trkpt lat="47.27399373431436" lon="-1.5476296562715877"><ele>33.166666666666664</ele><time>2026-03-23T16:45:47Z</time></trkpt><trkpt lat="47.274080067917026" lon="-1.5476857312038053"><ele>33.333333333333336</ele><time>2026-03-23T16:45:49Z</time></trkpt><trkpt lat="47.27414477620951" lon="-1.5477028302862752"><ele>33.5</ele><time>2026-03-23T16:45:50Z</time></trkpt><trkpt lat="47.27421820168129" lon="-1.547745326535355"><ele>33.66666666666667</ele><time>2026-03-23T16:45:52Z</time></trkpt><trkpt lat="47.27429464463822" lon="-1.547722946853887"><ele>33.833333333333336</ele><time>2026-03-23T16:45:54Z</time></trkpt><trkpt lat="47.274363460063256" lon="-1.5476788580432046"><ele>34.0</ele><time>2026-03-23T16:45:56Z</time></trkpt><trkpt lat="47.27442917418412" lon="-1.54765077866758"><ele>33.99999999999999</ele><time>2026-03-23T16:45:59Z</time></trkpt><trkpt lat="47.27448675785891" lon="-1.5475942846402038"><ele>34.0</ele><time>2026-03-23T16:46:02Z</time></trkpt><trkpt lat="47.27454178505323" lon="-1.5475240442916263"><ele>34.0</ele><time>2026-03-23T16:46:04Z</time></trkpt><trkpt lat="47.274609007916666" lon="-1.5474693942829476"><ele>34.0</ele><time>2026-03-23T16:46:06Z</time></trkpt><trkpt lat="47.27468909700147" lon="-1.5474457573160039"><ele>34.0</ele><time>2026-03-23T16:46:08Z</time></trkpt><trkpt lat="47.27476491131566" lon="-1.5474465116872893"><ele>33.99999999999999</ele><time>2026-03-23T16:46:10Z</time></trkpt><trkpt lat="47.27483502593569" lon="-1.5474558994188414"><ele>34.0</ele><time>2026-03-23T16:46:12Z</time></trkpt><trkpt lat="47.27491490547291" lon="-1.5474803745761023"><ele>34.66666666666667</ele><time>2026-03-23T16:46:14Z</time></trkpt><trkpt lat="47.27499993988059" lon="-1.5475070290281878"><ele>35.333333333333336</ele><time>2026-03-23T16:46:16Z</time></trkpt><trkpt lat="47.27508178916506" lon="-1.5475348569467176"><ele>36.0</ele><time>2026-03-23T16:46:18Z</time></trkpt><trkpt lat="47.27516259071163" lon="-1.5475619304939616"><ele>36.666666666666664</ele><time>2026-03-23T16:46:20Z</time></trkpt><trkpt lat="47.27523786020211" lon="-1.5475860703750957"><ele>37.33333333333333</ele><time>2026-03-23T16:46:22Z</time></trkpt><trkpt lat="47.27531736255369" lon="-1.5476071089520562"><ele>38.0</ele><time>2026-03-23T16:46:24Z</time></trkpt><trkpt lat="47.27540281605653" lon="-1.5476258005961288"><ele>38.0</ele><time>2026-03-23T16:46:26Z</time></trkpt><trkpt lat="47.275487808554686" lon="-1.5476487670108188"><ele>38.0</ele><time>2026-03-23T16:46:28Z</time></trkpt><trkpt lat="47.27556538306854" lon="-1.5476683806642402"><ele>38.0</ele><time>2026-03-23T16:46:30Z</time></trkpt><trkpt lat="47.275639269544996" lon="-1.5476915147169936"><ele>38.0</ele><time>2026-03-23T16:46:32Z</time></trkpt><trkpt lat="47.275712317831136" lon="-1.54771381057943"><ele>38.0</ele><time>2026-03-23T16:46:34Z</time></trkpt><trkpt lat="47.27579270028255" lon="-1.54774264432634"><ele>38.0</ele><time>2026-03-23T16:46:36Z</time></trkpt><trkpt lat="47.27586390454999" lon="-1.5478101186468711"><ele>38.0</ele><time>2026-03-23T16:46:38Z</time></trkpt><trkpt lat="47.27590996310792" lon="-1.547902654857885"><ele>38.0</ele><time>2026-03-23T16:46:40Z</time></trkpt><trkpt lat="47.27594307162545" lon="-1.5480338316425197"><ele>38.0</ele><time>2026-03-23T16:46:43Z</time></trkpt><trkpt lat="47.27597773079506" lon="-1.5481321513667219"><ele>38.0</ele><time>2026-03-23T16:46:45Z</time></trkpt><trkpt lat="47.276036278388716" lon="-1.5482127014562004"><ele>38.0</ele><time>2026-03-23T16:46:47Z</time></trkpt><trkpt lat="47.27612738967619" lon="-1.5482629090561981"><ele>38.0</ele><time>2026-03-23T16:46:49Z</time></trkpt><trkpt lat="47.27621045433662" lon="-1.5482837799950953"><ele>38.0</ele><time>2026-03-23T16:46:51Z</time></trkpt><trkpt lat="47.27628442463211" lon="-1.548293838278901"><ele>38.0</ele><time>2026-03-23T16:46:53Z</time></trkpt><trkpt lat="47.27637327280573" lon="-1.5482629928752298"><ele>38.0</ele><time>2026-03-23T16:46:56Z</time></trkpt><trkpt lat="47.276458600580014" lon="-1.5481737256064527"><ele>38.0</ele><time>2026-03-23T16:46:59Z</time></trkpt><trkpt lat="47.27655943487517" lon="-1.5481552854194753"><ele>38.0</ele><time>2026-03-23T16:47:01Z</time></trkpt><trkpt lat="47.27666835770688" lon="-1.5481515135630481"><ele>38.25</ele><time>2026-03-23T16:47:03Z</time></trkpt><trkpt lat="47.27678373460404" lon="-1.5481489989920967"><ele>38.5</ele><time>2026-03-23T16:47:05Z</time></trkpt><trkpt lat="47.276875935538925" lon="-1.548155369238507"><ele>38.75</ele><time>2026-03-23T16:47:07Z</time></trkpt><trkpt lat="47.27699780841104" lon="-1.5481819398715608"><ele>39.0</ele><time>2026-03-23T16:47:09Z</time></trkpt><trkpt lat="47.27711624470285" lon="-1.5482054930194729"><ele>39.0</ele><time>2026-03-23T16:47:11Z</time></trkpt><trkpt lat="47.277243481993" lon="-1.5482330694809072"><ele>39.0</ele><time>2026-03-23T16:47:13Z</time></trkpt><trkpt lat="47.27731342897496" lon="-1.5482435468598719"><ele>39.0</ele><time>2026-03-23T16:47:14Z</time></trkpt><trkpt lat="47.277377969629384" lon="-1.5482604783042784"><ele>39.0</ele><time>2026-03-23T16:47:15Z</time></trkpt><trkpt lat="47.27745076645843" lon="-1.5482845343663807"><ele>39.0</ele><time>2026-03-23T16:47:16Z</time></trkpt><trkpt lat="47.2775209648975" lon="-1.5483010467156286"><ele>39.0</ele><time>2026-03-23T16:47:17Z</time></trkpt><trkpt lat="47.27759422273122" lon="-1.5483319759383316"><ele>38.6</ele><time>2026-03-23T16:47:18Z</time></trkpt><trkpt lat="47.27767129433088" lon="-1.5483502484872456"><ele>38.2</ele><time>2026-03-23T16:47:19Z</time></trkpt><trkpt lat="47.27775138341568" lon="-1.5483711194261427"><ele>37.800000000000004</ele><time>2026-03-23T16:47:20Z</time></trkpt><trkpt lat="47.27788415276192" lon="-1.5484123583897467"><ele>37.4</ele><time>2026-03-23T16:47:22Z</time></trkpt><trkpt lat="47.277967175512835" lon="-1.5484465565546865"><ele>37.0</ele><time>2026-03-23T16:47:23Z</time></trkpt><trkpt lat="47.27804671977393" lon="-1.5484548546388264"><ele>36.0</ele><time>2026-03-23T16:47:24Z</time></trkpt><trkpt lat="47.27812295318328" lon="-1.5484748035683749"><ele>35.0</ele><time>2026-03-23T16:47:25Z</time></trkpt><trkpt lat="47.278210795528516" lon="-1.5485049784197924"><ele>34.0</ele><time>2026-03-23T16:47:26Z</time></trkpt><trkpt lat="47.27830077525906" lon="-1.5485309623196242"><ele>33.0</ele><time>2026-03-23T16:47:27Z</time></trkpt><trkpt lat="47.278390587351545" lon="-1.5485524199917433"><ele>32.0</ele><time>2026-03-23T16:47:28Z</time></trkpt><trkpt lat="47.278476585678085" lon="-1.5485849417760489"><ele>31.0</ele><time>2026-03-23T16:47:29Z</time></trkpt><trkpt lat="47.27856291928075" lon="-1.5486156195416567"><ele>31.0</ele><time>2026-03-23T16:47:30Z</time></trkpt><trkpt lat="47.278651809363886" lon="-1.5486411005272982"><ele>31.0</ele><time>2026-03-23T16:47:31Z</time></trkpt><trkpt lat="47.27874283683233" lon="-1.5486686769887326"><ele>31.0</ele><time>2026-03-23T16:47:32Z</time></trkpt><trkpt lat="47.27883294229142" lon="-1.5486961696311352"><ele>31.0</ele><time>2026-03-23T16:47:33Z</time></trkpt><trkpt lat="47.27891768333249" lon="-1.5487239137306332"><ele>31.0</ele><time>2026-03-23T16:47:34Z</time></trkpt><trkpt lat="47.27900326256387" lon="-1.5487546753152728"><ele>30.6</ele><time>2026-03-23T16:47:35Z</time></trkpt><trkpt lat="47.27909387093715" lon="-1.5487901307656884"><ele>30.200000000000003</ele><time>2026-03-23T16:47:36Z</time></trkpt><trkpt lat="47.27918020453982" lon="-1.5488215629025817"><ele>29.799999999999997</ele><time>2026-03-23T16:47:37Z</time></trkpt><trkpt lat="47.27926926226102" lon="-1.548843858765018"><ele>29.4</ele><time>2026-03-23T16:47:38Z</time></trkpt><trkpt lat="47.27936133746736" lon="-1.5488698426648497"><ele>29.0</ele><time>2026-03-23T16:47:39Z</time></trkpt><trkpt lat="47.279461920305415" lon="-1.5488819964244485"><ele>29.0</ele><time>2026-03-23T16:47:40Z</time></trkpt><trkpt lat="47.279548924460336" lon="-1.548919547350657"><ele>29.0</ele><time>2026-03-23T16:47:41Z</time></trkpt><trkpt lat="47.279642634137794" lon="-1.5489512309446456"><ele>29.0</ele><time>2026-03-23T16:47:42Z</time></trkpt><trkpt lat="47.27973781064831" lon="-1.5489644743516566"><ele>29.0</ele><time>2026-03-23T16:47:43Z</time></trkpt><trkpt lat="47.2798324004256" lon="-1.5489876922234418"><ele>29.0</ele><time>2026-03-23T16:47:44Z</time></trkpt><trkpt lat="47.27991806347601" lon="-1.549011748285544"><ele>28.2</ele><time>2026-03-23T16:47:45Z</time></trkpt><trkpt lat="47.28002660912208" lon="-1.549009149895561"><ele>27.4</ele><time>2026-03-23T16:47:46Z</time></trkpt><trkpt lat="47.28011302654378" lon="-1.5490394085660102"><ele>26.6</ele><time>2026-03-23T16:47:47Z</time></trkpt><trkpt lat="47.280192906081005" lon="-1.549083329738629"><ele>25.8</ele><time>2026-03-23T16:47:48Z</time></trkpt><trkpt lat="47.28026641537182" lon="-1.5490909572705152"><ele>25.0</ele><time>2026-03-23T16:47:49Z</time></trkpt><trkpt lat="47.28036465127699" lon="-1.5491073858007314"><ele>25.000000000000004</ele><time>2026-03-23T16:47:50Z</time></trkpt><trkpt lat="47.2804452851855" lon="-1.5491417516037347"><ele>25.0</ele><time>2026-03-23T16:47:51Z</time></trkpt><trkpt lat="47.28052399125628" lon="-1.5491625387236"><ele>25.0</ele><time>2026-03-23T16:47:52Z</time></trkpt><trkpt lat="47.28060747501187" lon="-1.5491969045266036"><ele>25.0</ele><time>2026-03-23T16:47:53Z</time></trkpt><trkpt lat="47.28069649082355" lon="-1.5492116566761855"><ele>25.000000000000004</ele><time>2026-03-23T16:47:54Z</time></trkpt><trkpt lat="47.28077096403323" lon="-1.549242418260825"><ele>25.0</ele><time>2026-03-23T16:47:55Z</time></trkpt><trkpt lat="47.28084975392304" lon="-1.5492677316084031"><ele>25.166666666666668</ele><time>2026-03-23T16:47:56Z</time></trkpt><trkpt lat="47.28093022019349" lon="-1.5493015106781844"><ele>25.333333333333336</ele><time>2026-03-23T16:47:57Z</time></trkpt><trkpt lat="47.281003017022535" lon="-1.5493211243316058"><ele>25.5</ele><time>2026-03-23T16:47:58Z</time></trkpt><trkpt lat="47.28107966952704" lon="-1.5493577532484655"><ele>25.666666666666664</ele><time>2026-03-23T16:47:59Z</time></trkpt><trkpt lat="47.28115657348864" lon="-1.5493998304023866"><ele>25.833333333333332</ele><time>2026-03-23T16:48:00Z</time></trkpt><trkpt lat="47.2812413145297" lon="-1.5493901073947076"><ele>26.0</ele><time>2026-03-23T16:48:01Z</time></trkpt><trkpt lat="47.28135648187928" lon="-1.549450457097543"><ele>25.999999999999996</ele><time>2026-03-23T16:48:02.999Z</time></trkpt><trkpt lat="47.281419052786454" lon="-1.5494746807977087"><ele>26.0</ele><time>2026-03-23T16:48:03.999Z</time></trkpt><trkpt lat="47.28148619183086" lon="-1.549504939468158"><ele>26.0</ele><time>2026-03-23T16:48:04.999Z</time></trkpt><trkpt lat="47.28155823428862" lon="-1.5495257265880233"><ele>26.0</ele><time>2026-03-23T16:48:05.999Z</time></trkpt><trkpt lat="47.28162440941416" lon="-1.549559673295868"><ele>25.999999999999996</ele><time>2026-03-23T16:48:06.999Z</time></trkpt><trkpt lat="47.281687567054554" lon="-1.5495809633299238"><ele>26.0</ele><time>2026-03-23T16:48:07.999Z</time></trkpt><trkpt lat="47.2818224737861" lon="-1.549575012178672"><ele>26.333333333333332</ele><time>2026-03-23T16:48:09.999Z</time></trkpt><trkpt lat="47.281946358314975" lon="-1.5496016666307575"><ele>26.666666666666664</ele><time>2026-03-23T16:48:11.999Z</time></trkpt><trkpt lat="47.28201295253567" lon="-1.549601834268821"><ele>27.0</ele><time>2026-03-23T16:48:12.999Z</time></trkpt><trkpt lat="47.282083863436505" lon="-1.5496001578881866"><ele>27.333333333333336</ele><time>2026-03-23T16:48:13.999Z</time></trkpt><trkpt lat="47.28214815263383" lon="-1.5496061928584701"><ele>27.666666666666668</ele><time>2026-03-23T16:48:14.999Z</time></trkpt><trkpt lat="47.282219524539336" lon="-1.5496255550547964"><ele>28.0</ele><time>2026-03-23T16:48:15.999Z</time></trkpt><trkpt lat="47.28228272408925" lon="-1.5496357809766657"><ele>28.2</ele><time>2026-03-23T16:48:16.999Z</time></trkpt><trkpt lat="47.28240384259008" lon="-1.5496770199402699"><ele>28.4</ele><time>2026-03-23T16:48:18.999Z</time></trkpt><trkpt lat="47.28246582676403" lon="-1.5497077815249094"><ele>28.599999999999998</ele><time>2026-03-23T16:48:19.999Z</time></trkpt><trkpt lat="47.28252978068523" lon="-1.5497026685639748"><ele>28.799999999999997</ele><time>2026-03-23T16:48:20.999Z</time></trkpt><trkpt lat="47.2826470435106" lon="-1.549726137892855"><ele>29.0</ele><time>2026-03-23T16:48:22.999Z</time></trkpt><trkpt lat="47.282736939422115" lon="-1.5497347712531218"><ele>29.0</ele><time>2026-03-23T16:48:24.999Z</time></trkpt><trkpt lat="47.282836097336634" lon="-1.5498191770180592"><ele>29.0</ele><time>2026-03-23T16:48:26.999Z</time></trkpt><trkpt lat="47.28291903626852" lon="-1.5498883277192244"><ele>29.0</ele><time>2026-03-23T16:48:28.999Z</time></trkpt><trkpt lat="47.28298286446117" lon="-1.5499022416784891"><ele>29.0</ele><time>2026-03-23T16:48:30.999Z</time></trkpt><trkpt lat="47.28307024580173" lon="-1.5498563926681408"><ele>29.0</ele><time>2026-03-23T16:48:32.999Z</time></trkpt><trkpt lat="47.28317853999071" lon="-1.549789505080832"><ele>29.0</ele><time>2026-03-23T16:48:34.999Z</time></trkpt><trkpt lat="47.28324953471057" lon="-1.5497775189592966"><ele>29.0</ele><time>2026-03-23T16:48:35.999Z</time></trkpt><trkpt lat="47.28335661352359" lon="-1.5497760102167257"><ele>29.0</ele><time>2026-03-23T16:48:37.999Z</time></trkpt><trkpt lat="47.28345937565647" lon="-1.5497796144350895"><ele>29.0</ele><time>2026-03-23T16:48:39.999Z</time></trkpt><trkpt lat="47.28358807977967" lon="-1.5497908461853394"><ele>29.0</ele><time>2026-03-23T16:48:41.999Z</time></trkpt><trkpt lat="47.283680196895524" lon="-1.5497664548471102"><ele>28.999999999999996</ele><time>2026-03-23T16:48:43.999Z</time></trkpt><trkpt lat="47.28376481220804" lon="-1.5497813746347555"><ele>29.0</ele><time>2026-03-23T16:48:45.999Z</time></trkpt><trkpt lat="47.28385068480603" lon="-1.5497592464103827"><ele>29.0</ele><time>2026-03-23T16:48:46.999Z</time></trkpt><trkpt lat="47.28396384049885" lon="-1.5497864037766584"><ele>29.0</ele><time>2026-03-23T16:48:48.999Z</time></trkpt><trkpt lat="47.284031063362285" lon="-1.5497995633646378"><ele>28.999999999999996</ele><time>2026-03-23T16:48:49.999Z</time></trkpt><trkpt lat="47.28410281245343" lon="-1.5498063527062067"><ele>29.0</ele><time>2026-03-23T16:48:50.999Z</time></trkpt><trkpt lat="47.284167939841076" lon="-1.5498178359135517"><ele>28.75</ele><time>2026-03-23T16:48:51.999Z</time></trkpt><trkpt lat="47.284244047521874" lon="-1.5498243737980255"><ele>28.5</ele><time>2026-03-23T16:48:52.999Z</time></trkpt><trkpt lat="47.2843810078197" lon="-1.54982068576063"><ele>28.25</ele><time>2026-03-23T16:48:54.999Z</time></trkpt><trkpt lat="47.28450631727211" lon="-1.5498307440444359"><ele>28.0</ele><time>2026-03-23T16:48:56.999Z</time></trkpt><trkpt lat="47.28464038581334" lon="-1.5498143993332514"><ele>28.0</ele><time>2026-03-23T16:48:58.999Z</time></trkpt><trkpt lat="47.28470182516359" lon="-1.5498434845372566"><ele>27.999999999999996</ele><time>2026-03-23T16:48:59.999Z</time></trkpt><trkpt lat="47.284823572307154" lon="-1.5498167462661394"><ele>27.999999999999996</ele><time>2026-03-23T16:49:01.999Z</time></trkpt><trkpt lat="47.28490504440598" lon="-1.5497957915082106"><ele>28.0</ele><time>2026-03-23T16:49:02.999Z</time></trkpt><trkpt lat="47.285014679699465" lon="-1.5497989766314157"><ele>28.0</ele><time>2026-03-23T16:49:04.999Z</time></trkpt><trkpt lat="47.285123225345544" lon="-1.5498628467335829"><ele>28.000000000000004</ele><time>2026-03-23T16:49:06.999Z</time></trkpt><trkpt lat="47.28520763111048" lon="-1.549957729877485"><ele>28.0</ele><time>2026-03-23T16:49:08.999Z</time></trkpt><trkpt lat="47.2852393985235" lon="-1.5500666107996832"><ele>28.0</ele><time>2026-03-23T16:49:10.999Z</time></trkpt><trkpt lat="47.2852808889442" lon="-1.550147999079479"><ele>28.0</ele><time>2026-03-23T16:49:12.999Z</time></trkpt><trkpt lat="47.28535867300563" lon="-1.5502174850567711"><ele>28.000000000000004</ele><time>2026-03-23T16:49:14.999Z</time></trkpt><trkpt lat="47.285434613048366" lon="-1.5503054112210406"><ele>28.0</ele><time>2026-03-23T16:49:16.999Z</time></trkpt><trkpt lat="47.28549228054219" lon="-1.5504089277252093"><ele>28.0</ele><time>2026-03-23T16:49:18.999Z</time></trkpt><trkpt lat="47.28555292361163" lon="-1.55047296546544"><ele>27.999999999999996</ele><time>2026-03-23T16:49:20.999Z</time></trkpt><trkpt lat="47.28562144567006" lon="-1.5504803415402308"><ele>27.999999999999996</ele><time>2026-03-23T16:49:22.999Z</time></trkpt><trkpt lat="47.285706480077735" lon="-1.5504209976657763"><ele>28.0</ele><time>2026-03-23T16:49:24.999Z</time></trkpt><trkpt lat="47.2857748344981" lon="-1.5502852108343972"><ele>28.0</ele><time>2026-03-23T16:49:26.999Z</time></trkpt><trkpt lat="47.285815151452354" lon="-1.5501519385739697"><ele>27.666666666666668</ele><time>2026-03-23T16:49:28.999Z</time></trkpt><trkpt lat="47.28585039735519" lon="-1.5500691253706347"><ele>27.333333333333336</ele><time>2026-03-23T16:49:29.999Z</time></trkpt><trkpt lat="47.285888283557526" lon="-1.5499858092531096"><ele>27.0</ele><time>2026-03-23T16:49:30.999Z</time></trkpt><trkpt lat="47.285962547219626" lon="-1.5498735755696424"><ele>26.666666666666664</ele><time>2026-03-23T16:49:32.999Z</time></trkpt><trkpt lat="47.286015562757186" lon="-1.5498160757138857"><ele>26.333333333333332</ele><time>2026-03-23T16:49:33.999Z</time></trkpt><trkpt lat="47.28611195464366" lon="-1.549736447633756"><ele>26.0</ele><time>2026-03-23T16:49:35.999Z</time></trkpt><trkpt lat="47.28626220025801" lon="-1.549728484825743"><ele>26.0</ele><time>2026-03-23T16:49:37.999Z</time></trkpt><trkpt lat="47.286342163614265" lon="-1.5497115533813366"><ele>26.0</ele><time>2026-03-23T16:49:38.999Z</time></trkpt><trkpt lat="47.286439687057666" lon="-1.549692023546947"><ele>26.0</ele><time>2026-03-23T16:49:40.999Z</time></trkpt><trkpt lat="47.286539557433954" lon="-1.5496411453946954"><ele>26.0</ele><time>2026-03-23T16:49:42.999Z</time></trkpt><trkpt lat="47.28663016580724" lon="-1.5496114734574682"><ele>26.0</ele><time>2026-03-23T16:49:43.999Z</time></trkpt><trkpt lat="47.286723498299054" lon="-1.5495733357980377"><ele>25.6</ele><time>2026-03-23T16:49:45.999Z</time></trkpt><trkpt lat="47.28683267258786" lon="-1.5495310910060531"><ele>25.200000000000003</ele><time>2026-03-23T16:49:47.999Z</time></trkpt><trkpt lat="47.28698358875447" lon="-1.5495250560357696"><ele>24.799999999999997</ele><time>2026-03-23T16:49:49.999Z</time></trkpt><trkpt lat="47.28706522849136" lon="-1.54950845986749"><ele>24.4</ele><time>2026-03-23T16:49:50.999Z</time></trkpt><trkpt lat="47.28715851907366" lon="-1.5494908578708297"><ele>24.0</ele><time>2026-03-23T16:49:52.999Z</time></trkpt><trkpt lat="47.28723680604928" lon="-1.5494854096337682"><ele>24.0</ele><time>2026-03-23T16:49:54.999Z</time></trkpt><trkpt lat="47.28730771695011" lon="-1.5494690649225837"><ele>24.0</ele><time>2026-03-23T16:49:56.999Z</time></trkpt><trkpt lat="47.28753679436379" lon="-1.5494735073312647"><ele>24.0</ele><time>2026-03-23T16:50:00.999Z</time></trkpt><trkpt lat="47.287611602849594" lon="-1.5494294185205824"><ele>24.0</ele><time>2026-03-23T16:50:03.999Z</time></trkpt><trkpt lat="47.28769743353807" lon="-1.5494400635376102"><ele>24.0</ele><time>2026-03-23T16:50:04.999Z</time></trkpt><trkpt lat="47.287769224538735" lon="-1.549427742139948"><ele>24.0</ele><time>2026-03-23T16:50:05.999Z</time></trkpt><trkpt lat="47.287832549817196" lon="-1.5494179353132371"><ele>24.0</ele><time>2026-03-23T16:50:06.999Z</time></trkpt><trkpt lat="47.28789855730467" lon="-1.5494119841619853"><ele>24.0</ele><time>2026-03-23T16:50:07.999Z</time></trkpt><trkpt lat="47.288011126264266" lon="-1.5493812225773458"><ele>24.0</ele><time>2026-03-23T16:50:09.999Z</time></trkpt><trkpt lat="47.28813857310199" lon="-1.5493613574668292"><ele>24.0</ele><time>2026-03-23T16:50:11.999Z</time></trkpt><trkpt lat="47.28823647373103" lon="-1.5493085514768485"><ele>24.5</ele><time>2026-03-23T16:50:13.999Z</time></trkpt><trkpt lat="47.28832955476575" lon="-1.5493016783162479"><ele>25.0</ele><time>2026-03-23T16:50:15.999Z</time></trkpt><trkpt lat="47.28847003546291" lon="-1.5492694918080692"><ele>25.5</ele><time>2026-03-23T16:50:17.999Z</time></trkpt><trkpt lat="47.288589645221165" lon="-1.5492629539235954"><ele>26.0</ele><time>2026-03-23T16:50:19.999Z</time></trkpt><trkpt lat="47.28874093857341" lon="-1.549283992500556"><ele>26.0</ele><time>2026-03-23T16:50:21.999Z</time></trkpt><trkpt lat="47.28886243425988" lon="-1.549278963358653"><ele>26.0</ele><time>2026-03-23T16:50:23.999Z</time></trkpt><trkpt lat="47.28895790413701" lon="-1.5492688212558154"><ele>26.0</ele><time>2026-03-23T16:50:25.999Z</time></trkpt><trkpt lat="47.2890480095961" lon="-1.5492419991656665"><ele>26.0</ele><time>2026-03-23T16:50:27.999Z</time></trkpt><trkpt lat="47.289120093963376" lon="-1.5492443460985545"><ele>26.0</ele><time>2026-03-23T16:50:28.999Z</time></trkpt><trkpt lat="47.289190627678565" lon="-1.5492372214808587"><ele>26.5</ele><time>2026-03-23T16:50:29.999Z</time></trkpt><trkpt lat="47.289330437823466" lon="-1.5492384787663345"><ele>27.0</ele><time>2026-03-23T16:50:31.999Z</time></trkpt><trkpt lat="47.289441833316616" lon="-1.5492790471776847"><ele>27.5</ele><time>2026-03-23T16:50:33.999Z</time></trkpt><trkpt lat="47.28954400871628" lon="-1.549291955308569"><ele>28.0</ele><time>2026-03-23T16:50:35.999Z</time></trkpt><trkpt lat="47.28966814470225" lon="-1.5493236389025573"><ele>28.000000000000004</ele><time>2026-03-23T16:50:37.999Z</time></trkpt><trkpt lat="47.28973126043313" lon="-1.5493458509459619"><ele>28.0</ele><time>2026-03-23T16:50:38.999Z</time></trkpt><trkpt lat="47.289814367003075" lon="-1.5493617765619878"><ele>28.0</ele><time>2026-03-23T16:50:39.999Z</time></trkpt><trkpt lat="47.289885194084874" lon="-1.549324896188033"><ele>28.0</ele><time>2026-03-23T16:50:40.999Z</time></trkpt><trkpt lat="47.28996649854564" lon="-1.5493068750962142"><ele>28.000000000000004</ele><time>2026-03-23T16:50:41.999Z</time></trkpt><trkpt lat="47.290033721409074" lon="-1.5492905303850297"><ele>28.0</ele><time>2026-03-23T16:50:42.999Z</time></trkpt><trkpt lat="47.29016167116099" lon="-1.549314921723259"><ele>28.000000000000004</ele><time>2026-03-23T16:50:44.999Z</time></trkpt><trkpt lat="47.29025772777133" lon="-1.549302851782692"><ele>28.0</ele><time>2026-03-23T16:50:46.999Z</time></trkpt><trkpt lat="47.29033848740839" lon="-1.549225654454482"><ele>28.0</ele><time>2026-03-23T16:50:49.999Z</time></trkpt><trkpt lat="47.290417361117235" lon="-1.5491724293693425"><ele>28.0</ele><time>2026-03-23T16:50:51.999Z</time></trkpt><trkpt lat="47.290494348897866" lon="-1.5491505526020648"><ele>28.000000000000004</ele><time>2026-03-23T16:50:53.999Z</time></trkpt><trkpt lat="47.290578335567645" lon="-1.5491617843523147"><ele>28.0</ele><time>2026-03-23T16:50:55.999Z</time></trkpt><trkpt lat="47.29068239689552" lon="-1.5491775423302772"><ele>28.0</ele><time>2026-03-23T16:50:57.999Z</time></trkpt><trkpt lat="47.290789978622726" lon="-1.5491723455503108"><ele>27.999999999999996</ele><time>2026-03-23T16:50:59.999Z</time></trkpt><trkpt lat="47.290860093242756" lon="-1.549161113800061"><ele>27.999999999999996</ele><time>2026-03-23T16:51:00.999Z</time></trkpt><trkpt lat="47.290989006913534" lon="-1.5491602756097438"><ele>28.0</ele><time>2026-03-23T16:51:02.999Z</time></trkpt><trkpt lat="47.29106180374258" lon="-1.5491585154100778"><ele>28.0</ele><time>2026-03-23T16:51:04.999Z</time></trkpt><trkpt lat="47.2912550485202" lon="-1.54917377047385"><ele>28.0</ele><time>2026-03-23T16:51:07.999Z</time></trkpt><trkpt lat="47.29140638378196" lon="-1.5491827391102435"><ele>28.0</ele><time>2026-03-23T16:51:09.999Z</time></trkpt><trkpt lat="47.29148073126309" lon="-1.5491678193225982"><ele>28.0</ele><time>2026-03-23T16:51:10.999Z</time></trkpt><trkpt lat="47.29154623583638" lon="-1.5491674002274396"><ele>28.0</ele><time>2026-03-23T16:51:11.999Z</time></trkpt><trkpt lat="47.29174170181834" lon="-1.5491133369519832"><ele>27.833333333333336</ele><time>2026-03-23T16:51:14.999Z</time></trkpt><trkpt lat="47.291843709579936" lon="-1.5490881912424685"><ele>27.666666666666668</ele><time>2026-03-23T16:51:16.999Z</time></trkpt><trkpt lat="47.2919165483185" lon="-1.5490820724531533"><ele>27.5</ele><time>2026-03-23T16:51:17.999Z</time></trkpt><trkpt lat="47.29201972954654" lon="-1.5490805637105824"><ele>27.333333333333336</ele><time>2026-03-23T16:51:19.999Z</time></trkpt><trkpt lat="47.292101117826334" lon="-1.5490566752865436"><ele>27.166666666666668</ele><time>2026-03-23T16:51:21.999Z</time></trkpt><trkpt lat="47.29217441756957" lon="-1.5490340441479804"><ele>27.0</ele><time>2026-03-23T16:51:23.999Z</time></trkpt><trkpt lat="47.29230957575821" lon="-1.5491050388678433"><ele>27.333333333333332</ele><time>2026-03-23T16:51:25.999Z</time></trkpt><trkpt lat="47.2923938557946" lon="-1.549176117406738"><ele>27.666666666666664</ele><time>2026-03-23T16:51:27.999Z</time></trkpt><trkpt lat="47.29248970285737" lon="-1.5492005087449674"><ele>28.0</ele><time>2026-03-23T16:51:30Z</time></trkpt><trkpt lat="47.29257243224167" lon="-1.5491952281459693"><ele>28.333333333333332</ele><time>2026-03-23T16:51:32Z</time></trkpt><trkpt lat="47.29264514525168" lon="-1.5491912886514787"><ele>28.666666666666664</ele><time>2026-03-23T16:51:34Z</time></trkpt><trkpt lat="47.29273478970611" lon="-1.5491602756097438"><ele>29.0</ele><time>2026-03-23T16:51:36Z</time></trkpt><trkpt lat="47.292820327027975" lon="-1.5491441823556544"><ele>28.999999999999996</ele><time>2026-03-23T16:51:38Z</time></trkpt><trkpt lat="47.29291424625301" lon="-1.549138734118593"><ele>29.0</ele><time>2026-03-23T16:51:40Z</time></trkpt><trkpt lat="47.29298591152513" lon="-1.5491494629546525"><ele>29.0</ele><time>2026-03-23T16:51:42Z</time></trkpt><trkpt lat="47.293081758587896" lon="-1.549167567865503"><ele>29.0</ele><time>2026-03-23T16:51:45Z</time></trkpt><trkpt lat="47.29315878827804" lon="-1.54915960505749"><ele>28.999999999999996</ele><time>2026-03-23T16:51:47Z</time></trkpt><trkpt lat="47.29323728480124" lon="-1.5491310227676751"><ele>29.0</ele><time>2026-03-23T16:51:49Z</time></trkpt><trkpt lat="47.293312135196565" lon="-1.549115180970681"><ele>29.4</ele><time>2026-03-23T16:51:51Z</time></trkpt><trkpt lat="47.29339649905199" lon="-1.5490808989867093"><ele>29.799999999999997</ele><time>2026-03-23T16:51:53Z</time></trkpt><trkpt lat="47.29346636221492" lon="-1.5490174479797008"><ele>30.200000000000003</ele><time>2026-03-23T16:51:55Z</time></trkpt><trkpt lat="47.29353794366801" lon="-1.5489601995810391"><ele>30.6</ele><time>2026-03-23T16:51:57Z</time></trkpt><trkpt lat="47.293670713014244" lon="-1.5489577688291194"><ele>31.0</ele><time>2026-03-23T16:51:59Z</time></trkpt><trkpt lat="47.29376471605831" lon="-1.5489440225079179"><ele>31.0</ele><time>2026-03-23T16:52:01Z</time></trkpt><trkpt lat="47.29388487064028" lon="-1.5489414241179347"><ele>31.0</ele><time>2026-03-23T16:52:03Z</time></trkpt><trkpt lat="47.29401717898184" lon="-1.5489446930601716"><ele>31.0</ele><time>2026-03-23T16:52:05Z</time></trkpt><trkpt lat="47.29412786201322" lon="-1.5489233192070841"><ele>31.0</ele><time>2026-03-23T16:52:07Z</time></trkpt><trkpt lat="47.29422408626163" lon="-1.5489185415222764"><ele>31.4</ele><time>2026-03-23T16:52:09Z</time></trkpt><trkpt lat="47.294357568069636" lon="-1.548920385540974"><ele>31.8</ele><time>2026-03-23T16:52:11Z</time></trkpt><trkpt lat="47.2944518225708" lon="-1.548877721653831"><ele>32.199999999999996</ele><time>2026-03-23T16:52:13Z</time></trkpt><trkpt lat="47.29457030077213" lon="-1.5488804038628459"><ele>32.6</ele><time>2026-03-23T16:52:15Z</time></trkpt><trkpt lat="47.2946632560783" lon="-1.5489026159062504"><ele>33.0</ele><time>2026-03-23T16:52:16Z</time></trkpt><trkpt lat="47.294728383465944" lon="-1.5489063877626776"><ele>32.833333333333336</ele><time>2026-03-23T16:52:17Z</time></trkpt><trkpt lat="47.294831774241565" lon="-1.548943687231791"><ele>32.666666666666664</ele><time>2026-03-23T16:52:19Z</time></trkpt><trkpt lat="47.29489861991936" lon="-1.5489559248104217"><ele>32.5</ele><time>2026-03-23T16:52:20Z</time></trkpt><trkpt lat="47.294979798651575" lon="-1.5489507280304553"><ele>32.33333333333333</ele><time>2026-03-23T16:52:21Z</time></trkpt><trkpt lat="47.29504429739648" lon="-1.5489514824017407"><ele>32.166666666666664</ele><time>2026-03-23T16:52:22Z</time></trkpt><trkpt lat="47.29512434457177" lon="-1.548940166832459"><ele>32.0</ele><time>2026-03-23T16:52:23Z</time></trkpt><trkpt lat="47.29520757687026" lon="-1.548970844598067"><ele>31.999999999999996</ele><time>2026-03-23T16:52:24Z</time></trkpt><trkpt lat="47.29528091852301" lon="-1.5489815734341266"><ele>32.0</ele><time>2026-03-23T16:52:25Z</time></trkpt><trkpt lat="47.29535032068127" lon="-1.5489374008044123"><ele>32.0</ele><time>2026-03-23T16:52:26Z</time></trkpt><trkpt lat="47.29542169258678" lon="-1.5489211399122595"><ele>32.0</ele><time>2026-03-23T16:52:27Z</time></trkpt><trkpt lat="47.295547588772415" lon="-1.5489078126862168"><ele>31.999999999999996</ele><time>2026-03-23T16:52:29Z</time></trkpt><trkpt lat="47.29562168479645" lon="-1.5489067230388045"><ele>32.0</ele><time>2026-03-23T16:52:30Z</time></trkpt><trkpt lat="47.29570122905755" lon="-1.5489026159062504"><ele>31.857142857142854</ele><time>2026-03-23T16:52:31Z</time></trkpt><trkpt lat="47.29576656599277" lon="-1.5488799847676873"><ele>31.71428571428571</ele><time>2026-03-23T16:52:32Z</time></trkpt><trkpt lat="47.29583865036005" lon="-1.5488764643683552"><ele>31.57142857142857</ele><time>2026-03-23T16:52:33Z</time></trkpt><trkpt lat="47.29589418046856" lon="-1.5488318726434827"><ele>31.42857142857143</ele><time>2026-03-23T16:52:34Z</time></trkpt><trkpt lat="47.29596446272665" lon="-1.5488361474141001"><ele>31.28571428571429</ele><time>2026-03-23T16:52:35Z</time></trkpt><trkpt lat="47.29603223041379" lon="-1.5488192997887253"><ele>31.142857142857146</ele><time>2026-03-23T16:52:36Z</time></trkpt><trkpt lat="47.296097567349015" lon="-1.548787867651832"><ele>31.0</ele><time>2026-03-23T16:52:37Z</time></trkpt><trkpt lat="47.2962072026425" lon="-1.5487329661860585"><ele>31.000000000000004</ele><time>2026-03-23T16:52:39Z</time></trkpt><trkpt lat="47.29627082128757" lon="-1.5487163700177788"><ele>31.0</ele><time>2026-03-23T16:52:40Z</time></trkpt><trkpt lat="47.29633540385151" lon="-1.5487063955530045"><ele>31.0</ele><time>2026-03-23T16:52:41Z</time></trkpt><trkpt lat="47.29640874550426" lon="-1.5486905537560103"><ele>31.0</ele><time>2026-03-23T16:52:42Z</time></trkpt><trkpt lat="47.29647722565317" lon="-1.5486904699369786"><ele>31.000000000000004</ele><time>2026-03-23T16:52:43Z</time></trkpt><trkpt lat="47.296579778238474" lon="-1.5486789029106018"><ele>31.0</ele><time>2026-03-23T16:52:45Z</time></trkpt><trkpt lat="47.29670072910124" lon="-1.548662642018449"><ele>30.166666666666668</ele><time>2026-03-23T16:52:47Z</time></trkpt><trkpt lat="47.29676786814564" lon="-1.5486784838154433"><ele>29.333333333333336</ele><time>2026-03-23T16:52:48Z</time></trkpt><trkpt lat="47.296830774328946" lon="-1.5486580319717047"><ele>28.5</ele><time>2026-03-23T16:52:49Z</time></trkpt><trkpt lat="47.29690285869622" lon="-1.5486438665553448"><ele>27.666666666666664</ele><time>2026-03-23T16:52:50Z</time></trkpt><trkpt lat="47.29697775100106" lon="-1.548629701138985"><ele>26.833333333333332</ele><time>2026-03-23T16:52:51Z</time></trkpt><trkpt lat="47.29710188698703" lon="-1.548618469388735"><ele>26.0</ele><time>2026-03-23T16:52:53Z</time></trkpt><trkpt lat="47.2971890168705" lon="-1.5486218221500037"><ele>25.999999999999996</ele><time>2026-03-23T16:52:55Z</time></trkpt><trkpt lat="47.297264831184684" lon="-1.5486162062748787"><ele>26.0</ele><time>2026-03-23T16:52:59Z</time></trkpt><trkpt lat="47.297339388213395" lon="-1.5485711116358158"><ele>26.0</ele><time>2026-03-23T16:53:01Z</time></trkpt><trkpt lat="47.29740770072424" lon="-1.548556359486234"><ele>26.0</ele><time>2026-03-23T16:53:02Z</time></trkpt><trkpt lat="47.29754269127482" lon="-1.5485123544945834"><ele>25.999999999999996</ele><time>2026-03-23T16:53:04Z</time></trkpt><trkpt lat="47.29761075232857" lon="-1.548491232098591"><ele>26.0</ele><time>2026-03-23T16:53:05Z</time></trkpt><trkpt lat="47.297693188346265" lon="-1.548458794133317"><ele>26.0</ele><time>2026-03-23T16:53:06Z</time></trkpt><trkpt lat="47.29776263241404" lon="-1.548434318976056"><ele>26.0</ele><time>2026-03-23T16:53:07Z</time></trkpt><trkpt lat="47.2978423443132" lon="-1.5484526753440018"><ele>26.0</ele><time>2026-03-23T16:53:08Z</time></trkpt><trkpt lat="47.29792486414993" lon="-1.5484530106201286"><ele>26.0</ele><time>2026-03-23T16:53:09Z</time></trkpt><trkpt lat="47.298054490282475" lon="-1.5484701935216303"><ele>26.0</ele><time>2026-03-23T16:53:11Z</time></trkpt><trkpt lat="47.29818042837763" lon="-1.548451166601431"><ele>25.666666666666664</ele><time>2026-03-23T16:53:13Z</time></trkpt><trkpt lat="47.298301546878456" lon="-1.5484265238061066"><ele>25.333333333333332</ele><time>2026-03-23T16:53:15Z</time></trkpt><trkpt lat="47.29839194570416" lon="-1.548410179094922"><ele>25.0</ele><time>2026-03-23T16:53:17Z</time></trkpt><trkpt lat="47.298456863544224" lon="-1.548372795806777"><ele>24.666666666666664</ele><time>2026-03-23T16:53:18Z</time></trkpt><trkpt lat="47.298531211025356" lon="-1.5483672637506838"><ele>24.333333333333332</ele><time>2026-03-23T16:53:19Z</time></trkpt><trkpt lat="47.298601241826354" lon="-1.548340106384408"><ele>24.0</ele><time>2026-03-23T16:53:20Z</time></trkpt><trkpt lat="47.2987395851382" lon="-1.5482551138862486"><ele>24.0</ele><time>2026-03-23T16:53:22Z</time></trkpt><trkpt lat="47.29885894343936" lon="-1.5482272021486871"><ele>24.0</ele><time>2026-03-23T16:53:24Z</time></trkpt><trkpt lat="47.29893194981599" lon="-1.5482078399523609"><ele>24.0</ele><time>2026-03-23T16:53:25Z</time></trkpt><trkpt lat="47.2990339994871" lon="-1.5481826104238146"><ele>24.0</ele><time>2026-03-23T16:53:27Z</time></trkpt><trkpt lat="47.29912205137992" lon="-1.5481521841153019"><ele>24.0</ele><time>2026-03-23T16:53:29Z</time></trkpt><trkpt lat="47.29918495756322" lon="-1.5481711272164695"><ele>24.4</ele><time>2026-03-23T16:53:31Z</time></trkpt><trkpt lat="47.29927439247006" lon="-1.548128295691263"><ele>24.799999999999997</ele><time>2026-03-23T16:53:33Z</time></trkpt><trkpt lat="47.299383105754195" lon="-1.5480952709927671"><ele>25.200000000000003</ele><time>2026-03-23T16:53:35Z</time></trkpt><trkpt lat="47.29949567471379" lon="-1.5480517689153068"><ele>25.6</ele><time>2026-03-23T16:53:37Z</time></trkpt><trkpt lat="47.29957316540861" lon="-1.5480212587877624"><ele>26.0</ele><time>2026-03-23T16:53:39Z</time></trkpt><trkpt lat="47.29968933858657" lon="-1.5479546226575485"><ele>25.999999999999996</ele><time>2026-03-23T16:53:41Z</time></trkpt><trkpt lat="47.299748640551506" lon="-1.5479205083116403"><ele>26.0</ele><time>2026-03-23T16:53:42Z</time></trkpt><trkpt lat="47.299807439602255" lon="-1.5478786826148143"><ele>26.0</ele><time>2026-03-23T16:53:43Z</time></trkpt><trkpt lat="47.29989574295217" lon="-1.5478611644371858"><ele>26.0</ele><time>2026-03-23T16:53:44Z</time></trkpt><trkpt lat="47.30000546206468" lon="-1.5478330012425294"><ele>25.999999999999996</ele><time>2026-03-23T16:53:46Z</time></trkpt><trkpt lat="47.30011283424431" lon="-1.5477909240886083"><ele>26.0</ele><time>2026-03-23T16:53:48Z</time></trkpt><trkpt lat="47.30023713786834" lon="-1.547737028451215"><ele>26.0</ele><time>2026-03-23T16:53:50Z</time></trkpt><trkpt lat="47.30029011149639" lon="-1.5476759243770946"><ele>26.0</ele><time>2026-03-23T16:53:51Z</time></trkpt><trkpt lat="47.30040653613145" lon="-1.547638708727013"><ele>26.0</ele><time>2026-03-23T16:53:53Z</time></trkpt><trkpt lat="47.300511184192544" lon="-1.547589506955396"><ele>26.0</ele><time>2026-03-23T16:53:55Z</time></trkpt><trkpt lat="47.30062345978553" lon="-1.547563858331691"><ele>26.0</ele><time>2026-03-23T16:53:57Z</time></trkpt><trkpt lat="47.30068825189704" lon="-1.5475448314114917"><ele>25.666666666666664</ele><time>2026-03-23T16:53:58Z</time></trkpt><trkpt lat="47.300750864713734" lon="-1.5475151594742642"><ele>25.333333333333332</ele><time>2026-03-23T16:53:59Z</time></trkpt><trkpt lat="47.30082680475647" lon="-1.5474838949754344"><ele>25.0</ele><time>2026-03-23T16:54:00Z</time></trkpt><trkpt lat="47.30089662600989" lon="-1.547460760922681"><ele>24.666666666666664</ele><time>2026-03-23T16:54:01Z</time></trkpt><trkpt lat="47.30096875228668" lon="-1.5474304184332"><ele>24.333333333333332</ele><time>2026-03-23T16:54:02Z</time></trkpt><trkpt lat="47.3010800639608" lon="-1.5473687276258574"><ele>24.0</ele><time>2026-03-23T16:54:04Z</time></trkpt><trkpt lat="47.301165475554114" lon="-1.5472885966315375"><ele>24.0</ele><time>2026-03-23T16:54:06Z</time></trkpt><trkpt lat="47.30126312472606" lon="-1.547198239715348"><ele>24.0</ele><time>2026-03-23T16:54:08Z</time></trkpt><trkpt lat="47.301360229074305" lon="-1.5471908636405571"><ele>24.0</ele><time>2026-03-23T16:54:09Z</time></trkpt><trkpt lat="47.30142171033407" lon="-1.547144344077955"><ele>24.0</ele><time>2026-03-23T16:54:10Z</time></trkpt><trkpt lat="47.30148562234575" lon="-1.5471004229053362"><ele>24.0</ele><time>2026-03-23T16:54:11Z</time></trkpt><trkpt lat="47.301598191305345" lon="-1.5470502153053387"><ele>23.5</ele><time>2026-03-23T16:54:13Z</time></trkpt><trkpt lat="47.30168100450868" lon="-1.5469715092345577"><ele>23.0</ele><time>2026-03-23T16:54:15Z</time></trkpt><trkpt lat="47.30179177135909" lon="-1.546934042127381"><ele>22.5</ele><time>2026-03-23T16:54:17Z</time></trkpt><trkpt lat="47.301945411644226" lon="-1.5468826610609394"><ele>22.0</ele><time>2026-03-23T16:54:19Z</time></trkpt><trkpt lat="47.30202189651067" lon="-1.5468482114389044"><ele>22.0</ele><time>2026-03-23T16:54:20Z</time></trkpt><trkpt lat="47.302115396640545" lon="-1.5468496363624435"><ele>22.0</ele><time>2026-03-23T16:54:21Z</time></trkpt><trkpt lat="47.302180649756735" lon="-1.5468184556826454"><ele>22.0</ele><time>2026-03-23T16:54:22Z</time></trkpt><trkpt lat="47.302299337505644" lon="-1.546744275839577"><ele>22.0</ele><time>2026-03-23T16:54:24Z</time></trkpt><trkpt lat="47.30238885623152" lon="-1.5467052161707977"><ele>22.0</ele><time>2026-03-23T16:54:25Z</time></trkpt><trkpt lat="47.30245947376574" lon="-1.5466673299684623"><ele>21.8</ele><time>2026-03-23T16:54:26Z</time></trkpt><trkpt lat="47.302578077695614" lon="-1.5466540865614513"><ele>21.6</ele><time>2026-03-23T16:54:27Z</time></trkpt><trkpt lat="47.30268809017474" lon="-1.5465635620071985"><ele>21.400000000000002</ele><time>2026-03-23T16:54:29Z</time></trkpt><trkpt lat="47.30275296610529" lon="-1.5465359017267324"><ele>21.200000000000003</ele><time>2026-03-23T16:54:30Z</time></trkpt><trkpt lat="47.30282475710595" lon="-1.5465469658389188"><ele>21.0</ele><time>2026-03-23T16:54:31Z</time></trkpt><trkpt lat="47.30289319534535" lon="-1.5465572755798198"><ele>21.0</ele><time>2026-03-23T16:54:32Z</time></trkpt><trkpt lat="47.30295681399042" lon="-1.5465878695263962"><ele>21.0</ele><time>2026-03-23T16:54:33Z</time></trkpt><trkpt lat="47.30302726388658" lon="-1.5466431062682966"><ele>21.0</ele><time>2026-03-23T16:54:35Z</time></trkpt><trkpt lat="47.303088493689245" lon="-1.546675376595507"><ele>21.0</ele><time>2026-03-23T16:54:37Z</time></trkpt><trkpt lat="47.30314922057772" lon="-1.5467280149474243"><ele>21.0</ele><time>2026-03-23T16:54:40Z</time></trkpt><trkpt lat="47.30311380703682" lon="-1.5468790568425757"><ele>21.0</ele><time>2026-03-23T16:54:43Z</time></trkpt><trkpt lat="47.3030682933026" lon="-1.5470234770342213"><ele>21.200000000000003</ele><time>2026-03-23T16:54:45Z</time></trkpt><trkpt lat="47.30300630912865" lon="-1.5471684001400574"><ele>21.400000000000002</ele><time>2026-03-23T16:54:47Z</time></trkpt><trkpt lat="47.30297621809626" lon="-1.5472506266101702"><ele>21.6</ele><time>2026-03-23T16:54:48Z</time></trkpt><trkpt lat="47.30289591946388" lon="-1.5473671350642548"><ele>21.8</ele><time>2026-03-23T16:54:50Z</time></trkpt><trkpt lat="47.302844370759374" lon="-1.5474251378342019"><ele>22.0</ele><time>2026-03-23T16:54:51Z</time></trkpt><trkpt lat="47.30274831414903" lon="-1.5475331805660832"><ele>22.0</ele><time>2026-03-23T16:54:53Z</time></trkpt><trkpt lat="47.30269182012165" lon="-1.5476007387056459"><ele>22.0</ele><time>2026-03-23T16:54:54Z</time></trkpt><trkpt lat="47.30258880653167" lon="-1.5476895030602325"><ele>22.0</ele><time>2026-03-23T16:54:56Z</time></trkpt><trkpt lat="47.30250373021448" lon="-1.5477889124318471"><ele>22.0</ele><time>2026-03-23T16:54:58Z</time></trkpt><trkpt lat="47.302431059113985" lon="-1.5478913392886033"><ele>22.0</ele><time>2026-03-23T16:55:00Z</time></trkpt><trkpt lat="47.30235034138644" lon="-1.548002818600785"><ele>22.0</ele><time>2026-03-23T16:55:02Z</time></trkpt><trkpt lat="47.30227385652" lon="-1.5480719693019502"><ele>22.0</ele><time>2026-03-23T16:55:04Z</time></trkpt><trkpt lat="47.302188025831526" lon="-1.5481587219997757"><ele>22.0</ele><time>2026-03-23T16:55:06Z</time></trkpt><trkpt lat="47.302110535136705" lon="-1.5482721291496868"><ele>22.0</ele><time>2026-03-23T16:55:08Z</time></trkpt><trkpt lat="47.30203367308462" lon="-1.5483582112952585"><ele>22.0</ele><time>2026-03-23T16:55:10Z</time></trkpt><trkpt lat="47.301939753859585" lon="-1.5484356600805635"><ele>22.6</ele><time>2026-03-23T16:55:12Z</time></trkpt><trkpt lat="47.30184038639749" lon="-1.548499781639826"><ele>23.200000000000003</ele><time>2026-03-23T16:55:14Z</time></trkpt><trkpt lat="47.30174168948764" lon="-1.5485545154675362"><ele>23.8</ele><time>2026-03-23T16:55:16Z</time></trkpt><trkpt lat="47.301648482724374" lon="-1.5486268512919066"><ele>24.4</ele><time>2026-03-23T16:55:18Z</time></trkpt><trkpt lat="47.30154308029199" lon="-1.5486977621927378"><ele>25.0</ele><time>2026-03-23T16:55:20Z</time></trkpt><trkpt lat="47.30143097233707" lon="-1.5487588662668585"><ele>25.4</ele><time>2026-03-23T16:55:22Z</time></trkpt><trkpt lat="47.30132154659117" lon="-1.5488023683443188"><ele>25.8</ele><time>2026-03-23T16:55:24Z</time></trkpt><trkpt lat="47.30121647943491" lon="-1.5488669089987397"><ele>26.200000000000003</ele><time>2026-03-23T16:55:26Z</time></trkpt><trkpt lat="47.301118536896354" lon="-1.548917787150991"><ele>26.6</ele><time>2026-03-23T16:55:28Z</time></trkpt><trkpt lat="47.30106615000153" lon="-1.5490495506688478"><ele>27.0</ele><time>2026-03-23T16:55:30Z</time></trkpt><trkpt lat="47.301028263799196" lon="-1.5491861756905438"><ele>27.0</ele><time>2026-03-23T16:55:32Z</time></trkpt><trkpt lat="47.30095789772207" lon="-1.549251303078187"><ele>27.000000000000004</ele><time>2026-03-23T16:55:34Z</time></trkpt><trkpt lat="47.30087726381356" lon="-1.5491902828230981"><ele>27.000000000000004</ele><time>2026-03-23T16:55:36Z</time></trkpt><trkpt lat="47.3007734958523" lon="-1.5491745248451354"><ele>27.0</ele><time>2026-03-23T16:55:38Z</time></trkpt><trkpt lat="47.30071620554412" lon="-1.5492323599770192"><ele>27.0</ele><time>2026-03-23T16:55:39Z</time></trkpt><trkpt lat="47.30061394632543" lon="-1.5492799691870336"><ele>27.6</ele><time>2026-03-23T16:55:41Z</time></trkpt><trkpt lat="47.300539389296716" lon="-1.5493388101472978"><ele>28.200000000000003</ele><time>2026-03-23T16:55:43Z</time></trkpt><trkpt lat="47.30044811037118" lon="-1.549383485691202"><ele>28.8</ele><time>2026-03-23T16:55:45Z</time></trkpt><trkpt lat="47.30035041928971" lon="-1.5494541451349384"><ele>29.4</ele><time>2026-03-23T16:55:47Z</time></trkpt><trkpt lat="47.300269911109744" lon="-1.5495204459890253"><ele>30.0</ele><time>2026-03-23T16:55:49Z</time></trkpt><trkpt lat="47.300182487859665" lon="-1.5495377965285904"><ele>30.0</ele><time>2026-03-23T16:55:51Z</time></trkpt><trkpt lat="47.30009967465633" lon="-1.5495838969960338"><ele>30.0</ele><time>2026-03-23T16:55:53Z</time></trkpt><trkpt lat="47.30002306406134" lon="-1.5496206935509569"><ele>30.0</ele><time>2026-03-23T16:55:55Z</time></trkpt><trkpt lat="47.299924199513434" lon="-1.5496729966267475"><ele>30.0</ele><time>2026-03-23T16:55:57Z</time></trkpt><trkpt lat="47.29985374961728" lon="-1.5497271437212357"><ele>30.0</ele><time>2026-03-23T16:55:59Z</time></trkpt><trkpt lat="47.2997990996086" lon="-1.5498260501786598"><ele>30.0</ele><time>2026-03-23T16:56:01Z</time></trkpt><trkpt lat="47.29972542267972" lon="-1.5499242860838305"><ele>30.0</ele><time>2026-03-23T16:56:03Z</time></trkpt><trkpt lat="47.29962404356086" lon="-1.5499955322607886"><ele>30.0</ele><time>2026-03-23T16:56:05Z</time></trkpt><trkpt lat="47.29952463418925" lon="-1.550016906113876"><ele>30.0</ele><time>2026-03-23T16:56:07Z</time></trkpt><trkpt lat="47.299454938664375" lon="-1.5500346757485997"><ele>30.0</ele><time>2026-03-23T16:56:08Z</time></trkpt><trkpt lat="47.29935557120228" lon="-1.5500611625626217"><ele>30.0</ele><time>2026-03-23T16:56:10Z</time></trkpt><trkpt lat="47.299279505430995" lon="-1.5501269605025183"><ele>30.0</ele><time>2026-03-23T16:56:12Z</time></trkpt><trkpt lat="47.299184412739514" lon="-1.5502151381238831"><ele>30.0</ele><time>2026-03-23T16:56:14Z</time></trkpt><trkpt lat="47.299094349189936" lon="-1.5503253601505889"><ele>30.0</ele><time>2026-03-23T16:56:16Z</time></trkpt><trkpt lat="47.29902004361832" lon="-1.5503814350828067"><ele>30.0</ele><time>2026-03-23T16:56:18Z</time></trkpt><trkpt lat="47.29891799394721" lon="-1.5504380129292146"><ele>30.0</ele><time>2026-03-23T16:56:20Z</time></trkpt><trkpt lat="47.29883945551449" lon="-1.5505219995989934"><ele>30.0</ele><time>2026-03-23T16:56:22Z</time></trkpt><trkpt lat="47.29874507528478" lon="-1.5505794156357184"><ele>30.0</ele><time>2026-03-23T16:56:24Z</time></trkpt><trkpt lat="47.29864172641867" lon="-1.5506375022246974"><ele>30.0</ele><time>2026-03-23T16:56:26Z</time></trkpt><trkpt lat="47.29853825182402" lon="-1.550716543571605"><ele>30.0</ele><time>2026-03-23T16:56:28Z</time></trkpt><trkpt lat="47.298423880755244" lon="-1.550803128631367"><ele>30.0</ele><time>2026-03-23T16:56:30Z</time></trkpt><trkpt lat="47.29833050635391" lon="-1.5508819185211797"><ele>30.0</ele><time>2026-03-23T16:56:32Z</time></trkpt><trkpt lat="47.29826940227979" lon="-1.5509079024210115"><ele>30.0</ele><time>2026-03-23T16:56:33Z</time></trkpt><trkpt lat="47.29819316887045" lon="-1.5510006900891204"><ele>30.0</ele><time>2026-03-23T16:56:35Z</time></trkpt><trkpt lat="47.29809371758932" lon="-1.5510795637979646"><ele>30.0</ele><time>2026-03-23T16:56:37Z</time></trkpt><trkpt lat="47.29800973091954" lon="-1.5511427633478783"><ele>30.6</ele><time>2026-03-23T16:56:39Z</time></trkpt><trkpt lat="47.29791296184742" lon="-1.5512112434967897"><ele>31.2</ele><time>2026-03-23T16:56:41Z</time></trkpt><trkpt lat="47.29784108702773" lon="-1.5512929670527122"><ele>31.799999999999997</ele><time>2026-03-23T16:56:43Z</time></trkpt><trkpt lat="47.29777964767748" lon="-1.551363794134512"><ele>32.4</ele><time>2026-03-23T16:56:45Z</time></trkpt><trkpt lat="47.2976967087456" lon="-1.5514186117812538"><ele>33.0</ele><time>2026-03-23T16:56:47Z</time></trkpt><trkpt lat="47.29761016559535" lon="-1.5514956414714003"><ele>33.0</ele><time>2026-03-23T16:56:49Z</time></trkpt><trkpt lat="47.29754118253225" lon="-1.5515858307495263"><ele>33.0</ele><time>2026-03-23T16:56:51Z</time></trkpt><trkpt lat="47.29745438792491" lon="-1.551668057219639"><ele>33.0</ele><time>2026-03-23T16:56:53Z</time></trkpt><trkpt lat="47.29738930244678" lon="-1.5517606772496846"><ele>33.0</ele><time>2026-03-23T16:56:55Z</time></trkpt><trkpt lat="47.2973021306538" lon="-1.551832510159865"><ele>33.0</ele><time>2026-03-23T16:56:57Z</time></trkpt><trkpt lat="47.29723189030522" lon="-1.5519107133164554"><ele>33.199999999999996</ele><time>2026-03-23T16:56:59Z</time></trkpt><trkpt lat="47.29715620171958" lon="-1.55201062560226"><ele>33.4</ele><time>2026-03-23T16:57:01Z</time></trkpt><trkpt lat="47.297104066281854" lon="-1.5521369408830554"><ele>33.599999999999994</ele><time>2026-03-23T16:57:03Z</time></trkpt><trkpt lat="47.29705193084413" lon="-1.5522222686573417"><ele>33.8</ele><time>2026-03-23T16:57:05Z</time></trkpt><trkpt lat="47.29699200023645" lon="-1.5523096080883894"><ele>34.0</ele><time>2026-03-23T16:57:07Z</time></trkpt><trkpt lat="47.29692930360073" lon="-1.5524417907014045"><ele>34.4</ele><time>2026-03-23T16:57:09Z</time></trkpt><trkpt lat="47.29685914707118" lon="-1.5525577962412989"><ele>34.8</ele><time>2026-03-23T16:57:11Z</time></trkpt><trkpt lat="47.296796785711585" lon="-1.5526427887394583"><ele>35.2</ele><time>2026-03-23T16:57:13Z</time></trkpt><trkpt lat="47.296742470979034" lon="-1.5527386777117407"><ele>35.6</ele><time>2026-03-23T16:57:15Z</time></trkpt><trkpt lat="47.29669234719807" lon="-1.552846468986527"><ele>36.0</ele><time>2026-03-23T16:57:17Z</time></trkpt><trkpt lat="47.29663384151393" lon="-1.5529525000616469"><ele>36.2</ele><time>2026-03-23T16:57:19Z</time></trkpt><trkpt lat="47.2965914709934" lon="-1.5530638117357651"><ele>36.400000000000006</ele><time>2026-03-23T16:57:21Z</time></trkpt><trkpt lat="47.29652445767754" lon="-1.5531434398158948"><ele>36.6</ele><time>2026-03-23T16:57:23Z</time></trkpt><trkpt lat="47.296455726071535" lon="-1.553262127564804"><ele>36.800000000000004</ele><time>2026-03-23T16:57:25Z</time></trkpt><trkpt lat="47.296386114365696" lon="-1.553400512786166"><ele>37.0</ele><time>2026-03-23T16:57:27Z</time></trkpt><trkpt lat="47.29632576466286" lon="-1.5535229723915025"><ele>37.2</ele><time>2026-03-23T16:57:29Z</time></trkpt><trkpt lat="47.296265205412446" lon="-1.5536218788489267"><ele>37.400000000000006</ele><time>2026-03-23T16:57:31Z</time></trkpt><trkpt lat="47.29621265087956" lon="-1.5537529718145298"><ele>37.599999999999994</ele><time>2026-03-23T16:57:33Z</time></trkpt><trkpt lat="47.29615871333265" lon="-1.5538626071080135"><ele>37.8</ele><time>2026-03-23T16:57:35Z</time></trkpt><trkpt lat="47.29611240331763" lon="-1.5539574064328838"><ele>38.0</ele><time>2026-03-23T16:57:37Z</time></trkpt><trkpt lat="47.29604488708758" lon="-1.5540609229370523"><ele>38.0</ele><time>2026-03-23T16:57:39Z</time></trkpt><trkpt lat="47.295984453565715" lon="-1.5541827119901348"><ele>38.0</ele><time>2026-03-23T16:57:41Z</time></trkpt><trkpt lat="47.29594141249293" lon="-1.5542804449811152"><ele>38.0</ele><time>2026-03-23T16:57:43Z</time></trkpt><trkpt lat="47.29588630147958" lon="-1.5543968696161679"><ele>38.0</ele><time>2026-03-23T16:57:45Z</time></trkpt><trkpt lat="47.29582968172365" lon="-1.5545183233931237"><ele>38.0</ele><time>2026-03-23T16:57:47Z</time></trkpt><trkpt lat="47.295753364495276" lon="-1.5546343289330178"><ele>38.0</ele><time>2026-03-23T16:57:49Z</time></trkpt><trkpt lat="47.295684968165396" lon="-1.5547467302545483"><ele>38.0</ele><time>2026-03-23T16:57:51Z</time></trkpt><trkpt lat="47.29564234618777" lon="-1.5548989456161435"><ele>38.0</ele><time>2026-03-23T16:57:53Z</time></trkpt><trkpt lat="47.29560793847525" lon="-1.5550114307567058"><ele>38.0</ele><time>2026-03-23T16:57:55Z</time></trkpt><trkpt lat="47.29554398455405" lon="-1.5551147796228109"><ele>38.0</ele><time>2026-03-23T16:57:57Z</time></trkpt><trkpt lat="47.29549327403986" lon="-1.555202286691922"><ele>38.4</ele><time>2026-03-23T16:57:59Z</time></trkpt><trkpt lat="47.29545027487659" lon="-1.5553191304221332"><ele>38.8</ele><time>2026-03-23T16:58:01Z</time></trkpt><trkpt lat="47.2953791963377" lon="-1.5554184559747162"><ele>39.2</ele><time>2026-03-23T16:58:03Z</time></trkpt><trkpt lat="47.29532982692802" lon="-1.5555254928782167"><ele>39.6</ele><time>2026-03-23T16:58:05Z</time></trkpt><trkpt lat="47.29527555410498" lon="-1.5556282550111"><ele>40.0</ele><time>2026-03-23T16:58:07Z</time></trkpt><trkpt lat="47.295214533849894" lon="-1.5557409077897255"><ele>40.0</ele><time>2026-03-23T16:58:09Z</time></trkpt><trkpt lat="47.295148568271934" lon="-1.5558466035887186"><ele>40.0</ele><time>2026-03-23T16:58:11Z</time></trkpt><trkpt lat="47.29509567846292" lon="-1.5559763554498143"><ele>40.0</ele><time>2026-03-23T16:58:13Z</time></trkpt><trkpt lat="47.29503687941217" lon="-1.5560761000975556"><ele>40.0</ele><time>2026-03-23T16:58:15Z</time></trkpt><trkpt lat="47.29497204539114" lon="-1.5561839751913735"><ele>40.0</ele><time>2026-03-23T16:58:17Z</time></trkpt><trkpt lat="47.294917269653915" lon="-1.55626687221374"><ele>40.4</ele><time>2026-03-23T16:58:19Z</time></trkpt><trkpt lat="47.294853315732716" lon="-1.5563952829703283"><ele>40.8</ele><time>2026-03-23T16:58:21Z</time></trkpt><trkpt lat="47.29480327577078" lon="-1.5565250348314237"><ele>41.2</ele><time>2026-03-23T16:58:23Z</time></trkpt><trkpt lat="47.29473965712571" lon="-1.5566293057068779"><ele>41.6</ele><time>2026-03-23T16:58:25Z</time></trkpt><trkpt lat="47.29467318863356" lon="-1.5567330736681415"><ele>42.0</ele><time>2026-03-23T16:58:27Z</time></trkpt><trkpt lat="47.29462252002889" lon="-1.556857293473144"><ele>42.2</ele><time>2026-03-23T16:58:29Z</time></trkpt><trkpt lat="47.29456434962088" lon="-1.5569677669569448"><ele>42.400000000000006</ele><time>2026-03-23T16:58:31Z</time></trkpt><trkpt lat="47.294501233889996" lon="-1.5570895560100275"><ele>42.599999999999994</ele><time>2026-03-23T16:58:33Z</time></trkpt><trkpt lat="47.294457522264956" lon="-1.5572001133128601"><ele>42.8</ele><time>2026-03-23T16:58:35Z</time></trkpt><trkpt lat="47.29440618310803" lon="-1.5573238302036723"><ele>43.0</ele><time>2026-03-23T16:58:37Z</time></trkpt><trkpt lat="47.2943603760072" lon="-1.557417288424035"><ele>43.4</ele><time>2026-03-23T16:58:39Z</time></trkpt><trkpt lat="47.294287453449606" lon="-1.5575251635178526"><ele>43.8</ele><time>2026-03-23T16:58:41Z</time></trkpt><trkpt lat="47.29422102686697" lon="-1.5576357208206855"><ele>44.2</ele><time>2026-03-23T16:58:43Z</time></trkpt><trkpt lat="47.29418154810303" lon="-1.5577413328006469"><ele>44.6</ele><time>2026-03-23T16:58:45Z</time></trkpt><trkpt lat="47.294118893376826" lon="-1.5578527282937968"><ele>45.0</ele><time>2026-03-23T16:58:47Z</time></trkpt><trkpt lat="47.294042911424576" lon="-1.5579732600614036"><ele>45.4</ele><time>2026-03-23T16:58:49Z</time></trkpt><trkpt lat="47.293992955281674" lon="-1.558078033851048"><ele>45.8</ele><time>2026-03-23T16:58:51Z</time></trkpt><trkpt lat="47.2939362097972" lon="-1.5581947099431959"><ele>46.2</ele><time>2026-03-23T16:58:53Z</time></trkpt><trkpt lat="47.29389077988201" lon="-1.5582781936987846"><ele>46.6</ele><time>2026-03-23T16:58:54Z</time></trkpt><trkpt lat="47.29382959198886" lon="-1.5584039222463577"><ele>47.0</ele><time>2026-03-23T16:58:56Z</time></trkpt><trkpt lat="47.29376400359654" lon="-1.5585210174336643"><ele>47.0</ele><time>2026-03-23T16:58:58Z</time></trkpt><trkpt lat="47.29371434082025" lon="-1.5586345922216387"><ele>47.0</ele><time>2026-03-23T16:59:00Z</time></trkpt><trkpt lat="47.2936653066867" lon="-1.5587126277401657"><ele>47.0</ele><time>2026-03-23T16:59:01Z</time></trkpt><trkpt lat="47.293595233976184" lon="-1.5588235203191254"><ele>47.0</ele><time>2026-03-23T16:59:03Z</time></trkpt><trkpt lat="47.29352667000824" lon="-1.5589353349074337"><ele>47.0</ele><time>2026-03-23T16:59:05Z</time></trkpt><trkpt lat="47.29347181045198" lon="-1.5590370073929047"><ele>47.0</ele><time>2026-03-23T16:59:07Z</time></trkpt><trkpt lat="47.29341804054314" lon="-1.559095261619947"><ele>47.0</ele><time>2026-03-23T16:59:08Z</time></trkpt><trkpt lat="47.29337491565132" lon="-1.5591684356346345"><ele>47.0</ele><time>2026-03-23T16:59:09Z</time></trkpt><trkpt lat="47.29331108745867" lon="-1.5592987742289521"><ele>47.0</ele><time>2026-03-23T16:59:11Z</time></trkpt><trkpt lat="47.29326301724398" lon="-1.5593676734730222"><ele>47.0</ele><time>2026-03-23T16:59:12Z</time></trkpt><trkpt lat="47.29318988513881" lon="-1.559516200797222"><ele>47.0</ele><time>2026-03-23T16:59:14Z</time></trkpt><trkpt lat="47.293121824085055" lon="-1.5596498921528081"><ele>46.6</ele><time>2026-03-23T16:59:16Z</time></trkpt><trkpt lat="47.293057786344825" lon="-1.5597740281387789"><ele>46.2</ele><time>2026-03-23T16:59:18Z</time></trkpt><trkpt lat="47.29297740389341" lon="-1.5598948951825125"><ele>45.8</ele><time>2026-03-23T16:59:20Z</time></trkpt><trkpt lat="47.29289760817522" lon="-1.5600081346943602"><ele>45.4</ele><time>2026-03-23T16:59:22Z</time></trkpt><trkpt lat="47.29285507001662" lon="-1.5600982401534542"><ele>45.0</ele><time>2026-03-23T16:59:23Z</time></trkpt><trkpt lat="47.292832061692415" lon="-1.5601859986796605"><ele>45.0</ele><time>2026-03-23T16:59:24Z</time></trkpt><trkpt lat="47.29275281079793" lon="-1.5603255573674666"><ele>45.0</ele><time>2026-03-23T16:59:26Z</time></trkpt><trkpt lat="47.292725443884066" lon="-1.560415327550434"><ele>45.0</ele><time>2026-03-23T16:59:27Z</time></trkpt><trkpt lat="47.29265168313616" lon="-1.5605586580946673"><ele>45.0</ele><time>2026-03-23T16:59:29Z</time></trkpt><trkpt lat="47.29261937089943" lon="-1.5606523677721253"><ele>45.0</ele><time>2026-03-23T16:59:30Z</time></trkpt><trkpt lat="47.29254225739025" lon="-1.560814473779463"><ele>44.833333333333336</ele><time>2026-03-23T16:59:32Z</time></trkpt><trkpt lat="47.29248815220528" lon="-1.5608728956445688"><ele>44.666666666666664</ele><time>2026-03-23T16:59:33Z</time></trkpt><trkpt lat="47.29243601676755" lon="-1.5609538648292058"><ele>44.5</ele><time>2026-03-23T16:59:34Z</time></trkpt><trkpt lat="47.29236887772315" lon="-1.5611001290395492"><ele>44.33333333333333</ele><time>2026-03-23T16:59:36Z</time></trkpt><trkpt lat="47.29232357353651" lon="-1.5612196549787756"><ele>44.166666666666664</ele><time>2026-03-23T16:59:37Z</time></trkpt><trkpt lat="47.29226892352783" lon="-1.5613162145033117"><ele>44.0</ele><time>2026-03-23T16:59:38Z</time></trkpt><trkpt lat="47.29221607562833" lon="-1.5614244248732565"><ele>43.83333333333333</ele><time>2026-03-23T16:59:39Z</time></trkpt><trkpt lat="47.29216285054319" lon="-1.561520313845539"><ele>43.666666666666664</ele><time>2026-03-23T16:59:40Z</time></trkpt><trkpt lat="47.29211825881832" lon="-1.5616105869426966"><ele>43.5</ele><time>2026-03-23T16:59:41Z</time></trkpt><trkpt lat="47.292062770619324" lon="-1.5616783965393544"><ele>43.333333333333336</ele><time>2026-03-23T16:59:42Z</time></trkpt><trkpt lat="47.29200279810213" lon="-1.561790127308631"><ele>43.16666666666667</ele><time>2026-03-23T16:59:43Z</time></trkpt><trkpt lat="47.29195569180631" lon="-1.561876209454203"><ele>43.0</ele><time>2026-03-23T16:59:44Z</time></trkpt><trkpt lat="47.29190950751983" lon="-1.5619820728912595"><ele>42.199999999999996</ele><time>2026-03-23T16:59:45Z</time></trkpt><trkpt lat="47.29183863852852" lon="-1.5620955638602023"><ele>41.4</ele><time>2026-03-23T16:59:46Z</time></trkpt><trkpt lat="47.29180121333086" lon="-1.5621911175563579"><ele>40.599999999999994</ele><time>2026-03-23T16:59:47Z</time></trkpt><trkpt lat="47.29177405596458" lon="-1.5623340290054328"><ele>39.8</ele><time>2026-03-23T16:59:48Z</time></trkpt><trkpt lat="47.29174279146575" lon="-1.562441149727965"><ele>39.0</ele><time>2026-03-23T16:59:49Z</time></trkpt><trkpt lat="47.291711275509826" lon="-1.5625751763596782"><ele>39.0</ele><time>2026-03-23T16:59:50Z</time></trkpt><trkpt lat="47.291687093719176" lon="-1.5627132263049135"><ele>39.0</ele><time>2026-03-23T16:59:51Z</time></trkpt><trkpt lat="47.29166324720465" lon="-1.5628466662034046"><ele>39.0</ele><time>2026-03-23T16:59:52Z</time></trkpt><trkpt lat="47.29165792469614" lon="-1.5629950258895409"><ele>39.0</ele><time>2026-03-23T16:59:53Z</time></trkpt><trkpt lat="47.29163395245307" lon="-1.5631279628738417"><ele>39.0</ele><time>2026-03-23T16:59:54Z</time></trkpt><trkpt lat="47.2915943898701" lon="-1.5632568765446202"><ele>38.2</ele><time>2026-03-23T16:59:55Z</time></trkpt><trkpt lat="47.29156962134623" lon="-1.563407750801708"><ele>37.4</ele><time>2026-03-23T16:59:56Z</time></trkpt><trkpt lat="47.2915269993686" lon="-1.5635380893960256"><ele>36.6</ele><time>2026-03-23T16:59:57Z</time></trkpt><trkpt lat="47.291461578614346" lon="-1.5636469703182239"><ele>35.8</ele><time>2026-03-23T16:59:58Z</time></trkpt><trkpt lat="47.29140923362904" lon="-1.5637383330627939"><ele>35.0</ele><time>2026-03-23T16:59:59Z</time></trkpt><trkpt lat="47.291361121504835" lon="-1.5638274326935073"><ele>34.83333333333333</ele><time>2026-03-23T17:00:00Z</time></trkpt><trkpt lat="47.29129276708447" lon="-1.563887028025057"><ele>34.666666666666664</ele><time>2026-03-23T17:00:01Z</time></trkpt><trkpt lat="47.29124570269816" lon="-1.5639714337899946"><ele>34.5</ele><time>2026-03-23T17:00:02Z</time></trkpt><trkpt lat="47.29119855449282" lon="-1.5640430990621113"><ele>34.333333333333336</ele><time>2026-03-23T17:00:03Z</time></trkpt><trkpt lat="47.29114604186945" lon="-1.5641292650267147"><ele>34.16666666666667</ele><time>2026-03-23T17:00:04Z</time></trkpt><trkpt lat="47.29109671436929" lon="-1.564219370485809"><ele>34.0</ele><time>2026-03-23T17:00:05Z</time></trkpt><trkpt lat="47.291038460142246" lon="-1.5643103141352201"><ele>34.0</ele><time>2026-03-23T17:00:06Z</time></trkpt><trkpt lat="47.290994455150596" lon="-1.5644144173726107"><ele>34.0</ele><time>2026-03-23T17:00:07Z</time></trkpt><trkpt lat="47.29095300663941" lon="-1.5645402297392157"><ele>34.0</ele><time>2026-03-23T17:00:08Z</time></trkpt><trkpt lat="47.290920903950266" lon="-1.564664701001313"><ele>34.0</ele><time>2026-03-23T17:00:09Z</time></trkpt><trkpt lat="47.29090707381003" lon="-1.5648129768684178"><ele>34.0</ele><time>2026-03-23T17:00:10Z</time></trkpt><trkpt lat="47.290915246165625" lon="-1.5649465844049724"><ele>32.8</ele><time>2026-03-23T17:00:11Z</time></trkpt><trkpt lat="47.29093645238065" lon="-1.5650531183942826"><ele>31.599999999999998</ele><time>2026-03-23T17:00:12Z</time></trkpt><trkpt lat="47.29097178210252" lon="-1.5651846304550443"><ele>30.4</ele><time>2026-03-23T17:00:13Z</time></trkpt><trkpt lat="47.291031586981646" lon="-1.5653186570867572"><ele>29.2</ele><time>2026-03-23T17:00:14Z</time></trkpt><trkpt lat="47.29109629527413" lon="-1.5653852093979392"><ele>28.0</ele><time>2026-03-23T17:00:15Z</time></trkpt><trkpt lat="47.291155722967616" lon="-1.5655232593431747"><ele>27.2</ele><time>2026-03-23T17:00:16Z</time></trkpt><trkpt lat="47.29121204935693" lon="-1.5656686853632011"><ele>26.4</ele><time>2026-03-23T17:00:17Z</time></trkpt><trkpt lat="47.29128995914691" lon="-1.5657720342293062"><ele>25.599999999999998</ele><time>2026-03-23T17:00:18Z</time></trkpt><trkpt lat="47.29135286533021" lon="-1.5658794064089339"><ele>24.799999999999997</ele><time>2026-03-23T17:00:19Z</time></trkpt><trkpt lat="47.29141895663672" lon="-1.5660023689284603"><ele>24.0</ele><time>2026-03-23T17:00:20Z</time></trkpt><trkpt lat="47.29148806542837" lon="-1.5661139320596735"><ele>24.0</ele><time>2026-03-23T17:00:21Z</time></trkpt><trkpt lat="47.291592797308496" lon="-1.5661462023868842"><ele>24.0</ele><time>2026-03-23T17:00:22Z</time></trkpt><trkpt lat="47.291694092608324" lon="-1.5662063844516558"><ele>24.0</ele><time>2026-03-23T17:00:23Z</time></trkpt><trkpt lat="47.291812151714495" lon="-1.566205462442307"><ele>24.0</ele><time>2026-03-23T17:00:24Z</time></trkpt><trkpt lat="47.2919120640003" lon="-1.566184256227283"><ele>24.0</ele><time>2026-03-23T17:00:25.001Z</time></trkpt><trkpt lat="47.29200514503502" lon="-1.5661744494005723"><ele>24.0</ele><time>2026-03-23T17:00:26Z</time></trkpt><trkpt lat="47.29210044727408" lon="-1.5661648940309567"><ele>24.0</ele><time>2026-03-23T17:00:27Z</time></trkpt><trkpt lat="47.292196922979585" lon="-1.5661902911975665"><ele>24.0</ele><time>2026-03-23T17:00:28Z</time></trkpt><trkpt lat="47.292291219390265" lon="-1.566226920114426"><ele>24.0</ele><time>2026-03-23T17:00:29Z</time></trkpt><trkpt lat="47.29234054689043" lon="-1.5663258265718503"><ele>24.0</ele><time>2026-03-23T17:00:30Z</time></trkpt><trkpt lat="47.29242604230278" lon="-1.5664158482119128"><ele>22.4</ele><time>2026-03-23T17:00:31Z</time></trkpt><trkpt lat="47.29248815220528" lon="-1.5665179397925422"><ele>20.799999999999997</ele><time>2026-03-23T17:00:32Z</time></trkpt><trkpt lat="47.29254204784267" lon="-1.5666436683401155"><ele>19.200000000000003</ele><time>2026-03-23T17:00:33Z</time></trkpt><trkpt lat="47.29257880248808" lon="-1.5667600091561364"><ele>17.6</ele><time>2026-03-23T17:00:34Z</time></trkpt><trkpt lat="47.29259532624673" lon="-1.5668939314641461"><ele>16.0</ele><time>2026-03-23T17:00:35Z</time></trkpt><trkpt lat="47.292619491707825" lon="-1.5670457771925994"><ele>15.600000000000001</ele><time>2026-03-23T17:00:36Z</time></trkpt><trkpt lat="47.292640186000654" lon="-1.567183142951005"><ele>15.200000000000001</ele><time>2026-03-23T17:00:37Z</time></trkpt><trkpt lat="47.29267674502664" lon="-1.5673292242005163"><ele>14.799999999999999</ele><time>2026-03-23T17:00:38Z</time></trkpt><trkpt lat="47.2926823353668" lon="-1.5674669100628011"><ele>14.399999999999999</ele><time>2026-03-23T17:00:39Z</time></trkpt><trkpt lat="47.29271400258624" lon="-1.567614208908349"><ele>14.0</ele><time>2026-03-23T17:00:40Z</time></trkpt><trkpt lat="47.292726449712454" lon="-1.5677474811687764"><ele>15.333333333333334</ele><time>2026-03-23T17:00:41Z</time></trkpt><trkpt lat="47.292738896838664" lon="-1.5678723715260325"><ele>16.666666666666668</ele><time>2026-03-23T17:00:42Z</time></trkpt><trkpt lat="47.29275188878858" lon="-1.5679931547507344"><ele>18.0</ele><time>2026-03-23T17:00:43Z</time></trkpt><trkpt lat="47.2927699098804" lon="-1.5681009460255206"><ele>19.333333333333332</ele><time>2026-03-23T17:00:44Z</time></trkpt><trkpt lat="47.29276689239526" lon="-1.5682063903674186"><ele>20.666666666666664</ele><time>2026-03-23T17:00:45Z</time></trkpt><trkpt lat="47.29277887851679" lon="-1.5683042909964624"><ele>22.0</ele><time>2026-03-23T17:00:46.001Z</time></trkpt><trkpt lat="47.29280867618257" lon="-1.5684602782144847"><ele>22.0</ele><time>2026-03-23T17:00:48.001Z</time></trkpt><trkpt lat="47.29282523044133" lon="-1.568586928771407"><ele>22.0</ele><time>2026-03-23T17:00:50.001Z</time></trkpt><trkpt lat="47.29285377082163" lon="-1.5687500406071253"><ele>22.0</ele><time>2026-03-23T17:00:52.001Z</time></trkpt><trkpt lat="47.29288151492113" lon="-1.5688916947707243"><ele>22.0</ele><time>2026-03-23T17:00:54.001Z</time></trkpt><trkpt lat="47.292905319526135" lon="-1.5690452512368271"><ele>22.0</ele><time>2026-03-23T17:00:56.001Z</time></trkpt><trkpt lat="47.29292941749775" lon="-1.5691419783994267"><ele>22.8</ele><time>2026-03-23T17:00:58.001Z</time></trkpt><trkpt lat="47.2929469775849" lon="-1.5693010669216227"><ele>23.6</ele><time>2026-03-23T17:01:00.001Z</time></trkpt><trkpt lat="47.29295724541628" lon="-1.5693947765990806"><ele>24.400000000000002</ele><time>2026-03-23T17:01:01.001Z</time></trkpt><trkpt lat="47.29297124319458" lon="-1.5695500094458177"><ele>25.200000000000003</ele><time>2026-03-23T17:01:03.001Z</time></trkpt><trkpt lat="47.292989096648334" lon="-1.569659477101238"><ele>26.0</ele><time>2026-03-23T17:01:05.001Z</time></trkpt><trkpt lat="47.29295343165034" lon="-1.5698383469149189"><ele>26.0</ele><time>2026-03-23T17:01:07.001Z</time></trkpt><trkpt lat="47.29292329870844" lon="-1.5699383430197555"><ele>26.0</ele><time>2026-03-23T17:01:08.001Z</time></trkpt><trkpt lat="47.292846017561196" lon="-1.5700748004033882"><ele>26.0</ele><time>2026-03-23T17:01:10.001Z</time></trkpt><trkpt lat="47.292751134417294" lon="-1.5701940748855194"><ele>26.0</ele><time>2026-03-23T17:01:12.001Z</time></trkpt><trkpt lat="47.29267812804066" lon="-1.5702985133990368"><ele>26.0</ele><time>2026-03-23T17:01:14.001Z</time></trkpt><trkpt lat="47.29258550801062" lon="-1.5703917201623043"><ele>26.4</ele><time>2026-03-23T17:01:16.001Z</time></trkpt><trkpt lat="47.29249339089476" lon="-1.5704499743893467"><ele>26.8</ele><time>2026-03-23T17:01:18.001Z</time></trkpt><trkpt lat="47.29240936231547" lon="-1.5704882796868407"><ele>27.199999999999996</ele><time>2026-03-23T17:01:20.001Z</time></trkpt><trkpt lat="47.29232881222599" lon="-1.5705044567599618"><ele>27.599999999999998</ele><time>2026-03-23T17:01:22.001Z</time></trkpt><trkpt lat="47.29220052719795" lon="-1.5703898761436066"><ele>28.0</ele><time>2026-03-23T17:01:24.001Z</time></trkpt><trkpt lat="47.29212224022233" lon="-1.5704399999245726"><ele>28.000000000000004</ele><time>2026-03-23T17:01:26.001Z</time></trkpt><trkpt lat="47.292052963792614" lon="-1.5704723540708148"><ele>28.0</ele><time>2026-03-23T17:01:28.001Z</time></trkpt><trkpt lat="47.29196524717592" lon="-1.5704538300648057"><ele>28.0</ele><time>2026-03-23T17:01:30.001Z</time></trkpt><trkpt lat="47.29190045506441" lon="-1.5704667381956898"><ele>28.0</ele><time>2026-03-23T17:01:32.001Z</time></trkpt><trkpt lat="47.2918206174367" lon="-1.5704834181830012"><ele>28.000000000000004</ele><time>2026-03-23T17:01:34.001Z</time></trkpt><trkpt lat="47.29174249809914" lon="-1.570492889733585"><ele>28.0</ele><time>2026-03-23T17:01:36.001Z</time></trkpt><trkpt lat="47.291676993525854" lon="-1.5704980865135514"><ele>28.000000000000004</ele><time>2026-03-23T17:01:38.001Z</time></trkpt><trkpt lat="47.29159661107444" lon="-1.5705130901202284"><ele>28.0</ele><time>2026-03-23T17:01:40.001Z</time></trkpt><trkpt lat="47.291521676860086" lon="-1.5705231484040343"><ele>28.0</ele><time>2026-03-23T17:01:42.001Z</time></trkpt><trkpt lat="47.29145566937261" lon="-1.5705295186504447"><ele>28.0</ele><time>2026-03-23T17:01:44.001Z</time></trkpt><trkpt lat="47.291371431245736" lon="-1.5705579333021962"><ele>28.000000000000004</ele><time>2026-03-23T17:01:47.001Z</time></trkpt><trkpt lat="47.29127516508781" lon="-1.570571260528239"><ele>28.0</ele><time>2026-03-23T17:01:50.001Z</time></trkpt><trkpt lat="47.291185478723875" lon="-1.570566231386336"><ele>28.833333333333336</ele><time>2026-03-23T17:01:52.001Z</time></trkpt><trkpt lat="47.291086530356935" lon="-1.5705496352180564"><ele>29.666666666666668</ele><time>2026-03-23T17:01:54.001Z</time></trkpt><trkpt lat="47.29099944238298" lon="-1.5705410856768214"><ele>30.5</ele><time>2026-03-23T17:01:56.001Z</time></trkpt><trkpt lat="47.29091516234659" lon="-1.5705453604474389"><ele>31.333333333333336</ele><time>2026-03-23T17:01:58.001Z</time></trkpt><trkpt lat="47.290824805430404" lon="-1.570560028777989"><ele>32.166666666666664</ele><time>2026-03-23T17:02:00.001Z</time></trkpt><trkpt lat="47.29074178267949" lon="-1.570580061526569"><ele>33.0</ele><time>2026-03-23T17:02:02.001Z</time></trkpt><trkpt lat="47.290670997507206" lon="-1.570604788140925"><ele>33.0</ele><time>2026-03-23T17:02:04.001Z</time></trkpt><trkpt lat="47.29059648238801" lon="-1.5706464461996879"><ele>33.0</ele><time>2026-03-23T17:02:06.001Z</time></trkpt><trkpt lat="47.29052712213927" lon="-1.5706911217435922"><ele>33.0</ele><time>2026-03-23T17:02:08.001Z</time></trkpt><trkpt lat="47.290454492948285" lon="-1.570744179190668"><ele>33.0</ele><time>2026-03-23T17:02:10.001Z</time></trkpt><trkpt lat="47.29039351460271" lon="-1.5708159282818164"><ele>33.0</ele><time>2026-03-23T17:02:12.001Z</time></trkpt><trkpt lat="47.29034619875931" lon="-1.5708871744587747"><ele>33.0</ele><time>2026-03-23T17:02:14.001Z</time></trkpt><trkpt lat="47.29028869890355" lon="-1.5709809679552642"><ele>33.666666666666664</ele><time>2026-03-23T17:02:16.001Z</time></trkpt><trkpt lat="47.29022772055798" lon="-1.5710714086904851"><ele>34.333333333333336</ele><time>2026-03-23T17:02:18.001Z</time></trkpt><trkpt lat="47.290166867940954" lon="-1.571152210237059"><ele>35.0</ele><time>2026-03-23T17:02:20.001Z</time></trkpt><trkpt lat="47.29010689542376" lon="-1.5712278150036663"><ele>35.66666666666667</ele><time>2026-03-23T17:02:22.001Z</time></trkpt><trkpt lat="47.29005714882844" lon="-1.571320099757585"><ele>36.333333333333336</ele><time>2026-03-23T17:02:24.001Z</time></trkpt><trkpt lat="47.29000924625181" lon="-1.5714151505395504"><ele>37.0</ele><time>2026-03-23T17:02:26.001Z</time></trkpt><trkpt lat="47.28995727845215" lon="-1.5715079382076593"><ele>37.16666666666667</ele><time>2026-03-23T17:02:28.001Z</time></trkpt><trkpt lat="47.28989877276801" lon="-1.571596954019341"><ele>37.333333333333336</ele><time>2026-03-23T17:02:30.001Z</time></trkpt><trkpt lat="47.28983624377035" lon="-1.5716746542617415"><ele>37.5</ele><time>2026-03-23T17:02:32.001Z</time></trkpt><trkpt lat="47.28976688352161" lon="-1.5717724710717533"><ele>37.666666666666664</ele><time>2026-03-23T17:02:35.001Z</time></trkpt><trkpt lat="47.28971546054565" lon="-1.5718598943218327"><ele>37.83333333333333</ele><time>2026-03-23T17:02:37.001Z</time></trkpt><trkpt lat="47.28966386993163" lon="-1.5719414502396918"><ele>38.0</ele><time>2026-03-23T17:02:39.001Z</time></trkpt><trkpt lat="47.28961257268422" lon="-1.5720322262510396"><ele>38.666666666666664</ele><time>2026-03-23T17:02:41.001Z</time></trkpt><trkpt lat="47.2895591380515" lon="-1.5721263550236562"><ele>39.33333333333333</ele><time>2026-03-23T17:02:43.001Z</time></trkpt><trkpt lat="47.28950704452329" lon="-1.5722064021989444"><ele>40.0</ele><time>2026-03-23T17:02:45.001Z</time></trkpt><trkpt lat="47.28946174033665" lon="-1.5722852759077885"><ele>40.666666666666664</ele><time>2026-03-23T17:02:47.001Z</time></trkpt><trkpt lat="47.28940524630927" lon="-1.5723770577475171"><ele>41.333333333333336</ele><time>2026-03-23T17:02:49.001Z</time></trkpt><trkpt lat="47.28935063821011" lon="-1.5724644809975963"><ele>42.0</ele><time>2026-03-23T17:02:51.001Z</time></trkpt><trkpt lat="47.289293725087575" lon="-1.572560369969879"><ele>42.0</ele><time>2026-03-23T17:02:53.001Z</time></trkpt><trkpt lat="47.28922226936304" lon="-1.5726805664613588"><ele>42.0</ele><time>2026-03-23T17:02:55.001Z</time></trkpt><trkpt lat="47.28916095574134" lon="-1.572772096843992"><ele>42.0</ele><time>2026-03-23T17:02:57.001Z</time></trkpt><trkpt lat="47.28909343951129" lon="-1.5728627052172766"><ele>42.0</ele><time>2026-03-23T17:02:59.001Z</time></trkpt><trkpt lat="47.28903656829827" lon="-1.572972424329792"><ele>42.0</ele><time>2026-03-23T17:03:01.001Z</time></trkpt><trkpt lat="47.28899340149694" lon="-1.5730668883785355"><ele>42.0</ele><time>2026-03-23T17:03:03.001Z</time></trkpt><trkpt lat="47.28894038595938" lon="-1.5731586702182638"><ele>42.0</ele><time>2026-03-23T17:03:05.001Z</time></trkpt><trkpt lat="47.28890266739511" lon="-1.5732448361828673"><ele>42.0</ele><time>2026-03-23T17:03:07.001Z</time></trkpt><trkpt lat="47.28885333989494" lon="-1.5733494423344483"><ele>42.0</ele><time>2026-03-23T17:03:09.001Z</time></trkpt><trkpt lat="47.288783183365396" lon="-1.5734657831504693"><ele>42.0</ele><time>2026-03-23T17:03:11.001Z</time></trkpt><trkpt lat="47.288724929138354" lon="-1.5735493507250897"><ele>42.0</ele><time>2026-03-23T17:03:13.001Z</time></trkpt><trkpt lat="47.28867744565689" lon="-1.5736483410015456"><ele>42.0</ele><time>2026-03-23T17:03:15.001Z</time></trkpt><trkpt lat="47.28863515895539" lon="-1.5737236943110577"><ele>42.0</ele><time>2026-03-23T17:03:16.001Z</time></trkpt><trkpt lat="47.28856315840714" lon="-1.5738628339037055"><ele>42.0</ele><time>2026-03-23T17:03:18.001Z</time></trkpt><trkpt lat="47.28849451062017" lon="-1.5739978663637992"><ele>42.0</ele><time>2026-03-23T17:03:20.001Z</time></trkpt><trkpt lat="47.2883970709958" lon="-1.5740926656886693"><ele>42.0</ele><time>2026-03-23T17:03:22.001Z</time></trkpt><trkpt lat="47.28834497746759" lon="-1.574211772532737"><ele>42.0</ele><time>2026-03-23T17:03:24.001Z</time></trkpt><trkpt lat="47.28823815011167" lon="-1.5743058174863218"><ele>42.0</ele><time>2026-03-23T17:03:26.001Z</time></trkpt><trkpt lat="47.28818580512636" lon="-1.5744093339904903"><ele>42.0</ele><time>2026-03-23T17:03:28.001Z</time></trkpt><trkpt lat="47.28811669633471" lon="-1.5745049715056778"><ele>42.0</ele><time>2026-03-23T17:03:30.001Z</time></trkpt><trkpt lat="47.28804364804857" lon="-1.5746037941440703"><ele>42.0</ele><time>2026-03-23T17:03:32.001Z</time></trkpt><trkpt lat="47.28794570551001" lon="-1.5746718551978232"><ele>42.0</ele><time>2026-03-23T17:03:34.001Z</time></trkpt><trkpt lat="47.28786456868731" lon="-1.574759110809839"><ele>42.0</ele><time>2026-03-23T17:03:36.001Z</time></trkpt><trkpt lat="47.28777400222354" lon="-1.5748379845186833"><ele>42.0</ele><time>2026-03-23T17:03:38.001Z</time></trkpt><trkpt lat="47.28768046018415" lon="-1.5749156847610835"><ele>42.0</ele><time>2026-03-23T17:03:40.001Z</time></trkpt><trkpt lat="47.287588426887325" lon="-1.5749964024886256"><ele>42.0</ele><time>2026-03-23T17:03:42.001Z</time></trkpt><trkpt lat="47.28748591621154" lon="-1.5750741865500575"><ele>42.0</ele><time>2026-03-23T17:03:44.001Z</time></trkpt><trkpt lat="47.28740163617515" lon="-1.5751639567330247"><ele>42.0</ele><time>2026-03-23T17:03:46.001Z</time></trkpt><trkpt lat="47.287295521280996" lon="-1.5752556547537215"><ele>42.0</ele><time>2026-03-23T17:03:48.001Z</time></trkpt><trkpt lat="47.28719598618083" lon="-1.5753576625153192"><ele>42.0</ele><time>2026-03-23T17:03:50.001Z</time></trkpt><trkpt lat="47.28709138002925" lon="-1.5754239633694063"><ele>42.2</ele><time>2026-03-23T17:03:52.001Z</time></trkpt><trkpt lat="47.2870019032129" lon="-1.5755066927537094"><ele>42.400000000000006</ele><time>2026-03-23T17:03:54.001Z</time></trkpt><trkpt lat="47.286939583762816" lon="-1.5755323413774143"><ele>42.599999999999994</ele><time>2026-03-23T17:03:55.001Z</time></trkpt><trkpt lat="47.286861087239615" lon="-1.5756027493640552"><ele>42.8</ele><time>2026-03-23T17:03:57.001Z</time></trkpt><trkpt lat="47.28676532399588" lon="-1.5757025778308285"><ele>43.0</ele><time>2026-03-23T17:03:59.001Z</time></trkpt><trkpt lat="47.28667903230273" lon="-1.575772482903279"><ele>43.0</ele><time>2026-03-23T17:04:01.001Z</time></trkpt><trkpt lat="47.28659932040357" lon="-1.5758780110642088"><ele>43.0</ele><time>2026-03-23T17:04:03.001Z</time></trkpt><trkpt lat="47.28650334761225" lon="-1.5759324096157923"><ele>43.0</ele><time>2026-03-23T17:04:05.001Z</time></trkpt><trkpt lat="47.286426443650655" lon="-1.5760082658394947"><ele>43.0</ele><time>2026-03-23T17:04:07.001Z</time></trkpt><trkpt lat="47.28633269206368" lon="-1.5760501753553524"><ele>43.0</ele><time>2026-03-23T17:04:09.001Z</time></trkpt><trkpt lat="47.28626069151544" lon="-1.5761657618000882"><ele>43.2</ele><time>2026-03-23T17:04:11.001Z</time></trkpt><trkpt lat="47.286169747866026" lon="-1.576233236120619"><ele>43.4</ele><time>2026-03-23T17:04:13.001Z</time></trkpt><trkpt lat="47.286077295474044" lon="-1.5762992855176108"><ele>43.6</ele><time>2026-03-23T17:04:15.001Z</time></trkpt><trkpt lat="47.2859905008667" lon="-1.5763947553947348"><ele>43.800000000000004</ele><time>2026-03-23T17:04:17.001Z</time></trkpt><trkpt lat="47.28590219751679" lon="-1.5764917340144295"><ele>44.0</ele><time>2026-03-23T17:04:19.001Z</time></trkpt><trkpt lat="47.285815151452354" lon="-1.576574631036796"><ele>44.0</ele><time>2026-03-23T17:04:21.001Z</time></trkpt><trkpt lat="47.285740259147516" lon="-1.5766499005272767"><ele>44.0</ele><time>2026-03-23T17:04:23.001Z</time></trkpt><trkpt lat="47.28565891277724" lon="-1.576729947702565"><ele>44.0</ele><time>2026-03-23T17:04:25.001Z</time></trkpt><trkpt lat="47.28555564773016" lon="-1.5767862740918777"><ele>44.0</ele><time>2026-03-23T17:04:27.001Z</time></trkpt><trkpt lat="47.28547363080763" lon="-1.5768873598441266"><ele>44.0</ele><time>2026-03-23T17:04:29.001Z</time></trkpt><trkpt lat="47.285368773198954" lon="-1.5769763756558084"><ele>43.75</ele><time>2026-03-23T17:04:31.001Z</time></trkpt><trkpt lat="47.285273051864735" lon="-1.5770609490588092"><ele>43.5</ele><time>2026-03-23T17:04:33.001Z</time></trkpt><trkpt lat="47.285190783485106" lon="-1.577219534666815"><ele>43.25</ele><time>2026-03-23T17:04:35.001Z</time></trkpt><trkpt lat="47.285097995817" lon="-1.5773110650494482"><ele>43.0</ele><time>2026-03-23T17:04:37.001Z</time></trkpt><trkpt lat="47.285038065209314" lon="-1.5774340275689749"><ele>43.0</ele><time>2026-03-23T17:04:39.001Z</time></trkpt><trkpt lat="47.28495210879229" lon="-1.5775251388564495"><ele>43.0</ele><time>2026-03-23T17:04:41.001Z</time></trkpt><trkpt lat="47.2849428886988" lon="-1.57764877192823"><ele>43.0</ele><time>2026-03-23T17:04:43.001Z</time></trkpt><trkpt lat="47.28485085540198" lon="-1.5777847263976723"><ele>43.0</ele><time>2026-03-23T17:04:45.001Z</time></trkpt><trkpt lat="47.284809197343215" lon="-1.5778583195075186"><ele>43.0</ele><time>2026-03-23T17:04:46.001Z</time></trkpt><trkpt lat="47.28472923398696" lon="-1.5779703855529221"><ele>42.8</ele><time>2026-03-23T17:04:48.001Z</time></trkpt><trkpt lat="47.28467688900165" lon="-1.5780286397799643"><ele>42.599999999999994</ele><time>2026-03-23T17:04:49.001Z</time></trkpt><trkpt lat="47.2845855681666" lon="-1.578159565107504"><ele>42.400000000000006</ele><time>2026-03-23T17:04:51.001Z</time></trkpt><trkpt lat="47.28449500170283" lon="-1.5783090144410528"><ele>42.2</ele><time>2026-03-23T17:04:53.001Z</time></trkpt><trkpt lat="47.284447182945236" lon="-1.578376991675774"><ele>42.0</ele><time>2026-03-23T17:04:54.001Z</time></trkpt><trkpt lat="47.28438519877128" lon="-1.5784376766547359"><ele>42.0</ele><time>2026-03-23T17:04:55.001Z</time></trkpt><trkpt lat="47.28433683518998" lon="-1.5785123594119943"><ele>42.0</ele><time>2026-03-23T17:04:56.001Z</time></trkpt><trkpt lat="47.28428239472888" lon="-1.5785797499134937"><ele>42.0</ele><time>2026-03-23T17:04:57.001Z</time></trkpt><trkpt lat="47.28420343720101" lon="-1.578710423783938"><ele>42.0</ele><time>2026-03-23T17:04:59.001Z</time></trkpt><trkpt lat="47.284163497432395" lon="-1.5787840168937843"><ele>42.0</ele><time>2026-03-23T17:05:00.001Z</time></trkpt><trkpt lat="47.284106751947924" lon="-1.5788370743408602"><ele>42.0</ele><time>2026-03-23T17:05:01.001Z</time></trkpt><trkpt lat="47.284063249870464" lon="-1.5789069794133108"><ele>42.285714285714285</ele><time>2026-03-23T17:05:02.001Z</time></trkpt><trkpt lat="47.284014970108196" lon="-1.5789757110193174"><ele>42.57142857142857</ele><time>2026-03-23T17:05:03.001Z</time></trkpt><trkpt lat="47.28395646442406" lon="-1.5790476277485295"><ele>42.85714285714286</ele><time>2026-03-23T17:05:04.001Z</time></trkpt><trkpt lat="47.28392519992523" lon="-1.5791332069799109"><ele>43.14285714285714</ele><time>2026-03-23T17:05:05.001Z</time></trkpt><trkpt lat="47.28387448941104" lon="-1.5791966579869194"><ele>43.42857142857143</ele><time>2026-03-23T17:05:06.001Z</time></trkpt><trkpt lat="47.28382847276263" lon="-1.5792614500984357"><ele>43.714285714285715</ele><time>2026-03-23T17:05:07.001Z</time></trkpt><trkpt lat="47.28377981581472" lon="-1.5793259907528565"><ele>44.0</ele><time>2026-03-23T17:05:08.001Z</time></trkpt><trkpt lat="47.2837237408825" lon="-1.5794182755067752"><ele>44.0</ele><time>2026-03-23T17:05:10.001Z</time></trkpt><trkpt lat="47.28367399428718" lon="-1.5795069560423303"><ele>44.0</ele><time>2026-03-23T17:05:13.001Z</time></trkpt><trkpt lat="47.28362793572925" lon="-1.5796017553672004"><ele>44.0</ele><time>2026-03-23T17:05:17.001Z</time></trkpt><trkpt lat="47.2835958330401" lon="-1.5797059424236226"><ele>44.0</ele><time>2026-03-23T17:05:19.001Z</time></trkpt><trkpt lat="47.283560587137266" lon="-1.5798350237324645"><ele>44.0</ele><time>2026-03-23T17:05:21.001Z</time></trkpt><trkpt lat="47.28353150193326" lon="-1.5799812879428081"><ele>44.0</ele><time>2026-03-23T17:05:23.001Z</time></trkpt><trkpt lat="47.28350723632358" lon="-1.5801355149611644"><ele>44.0</ele><time>2026-03-23T17:05:25.001Z</time></trkpt><trkpt lat="47.28351050526582" lon="-1.5803017281010563"><ele>44.0</ele><time>2026-03-23T17:05:27.001Z</time></trkpt><trkpt lat="47.283464572436436" lon="-1.5805006306633171"><ele>44.0</ele><time>2026-03-23T17:05:29.001Z</time></trkpt><trkpt lat="47.28346046530388" lon="-1.5806593000903544"><ele>44.0</ele><time>2026-03-23T17:05:31.001Z</time></trkpt><trkpt lat="47.283490095331594" lon="-1.5808130241945206"><ele>43.800000000000004</ele><time>2026-03-23T17:05:33.001Z</time></trkpt><trkpt lat="47.283485024280175" lon="-1.5810153633370818"><ele>43.6</ele><time>2026-03-23T17:05:35.001Z</time></trkpt><trkpt lat="47.28348372508518" lon="-1.5811857674285594"><ele>43.4</ele><time>2026-03-23T17:05:37.001Z</time></trkpt><trkpt lat="47.28347341534428" lon="-1.5813647210612718"><ele>43.2</ele><time>2026-03-23T17:05:39.001Z</time></trkpt><trkpt lat="47.283477229110225" lon="-1.5814656391754573"><ele>43.0</ele><time>2026-03-23T17:05:40.001Z</time></trkpt><trkpt lat="47.283474085896536" lon="-1.5815751068308777"><ele>43.333333333333336</ele><time>2026-03-23T17:05:41.001Z</time></trkpt><trkpt lat="47.28346566208385" lon="-1.5816910285517403"><ele>43.66666666666667</ele><time>2026-03-23T17:05:42.001Z</time></trkpt><trkpt lat="47.28345878892325" lon="-1.5818832255914639"><ele>44.0</ele><time>2026-03-23T17:05:44.001Z</time></trkpt><trkpt lat="47.28345849555664" lon="-1.5819888375714253"><ele>44.333333333333336</ele><time>2026-03-23T17:05:45.001Z</time></trkpt><trkpt lat="47.28345023938201" lon="-1.5820927731707526"><ele>44.666666666666664</ele><time>2026-03-23T17:05:46.001Z</time></trkpt><trkpt lat="47.28344349194996" lon="-1.5821864828482104"><ele>45.0</ele><time>2026-03-23T17:05:47.001Z</time></trkpt><trkpt lat="47.283427063419744" lon="-1.5822874847814274"><ele>45.0</ele><time>2026-03-23T17:05:48.001Z</time></trkpt><trkpt lat="47.283424632667824" lon="-1.5823865588769153"><ele>45.0</ele><time>2026-03-23T17:05:49.001Z</time></trkpt><trkpt lat="47.28342375256799" lon="-1.5825892332956033"><ele>45.0</ele><time>2026-03-23T17:05:51.001Z</time></trkpt><trkpt lat="47.28340971288018" lon="-1.582686211915298"><ele>45.0</ele><time>2026-03-23T17:05:52.001Z</time></trkpt><trkpt lat="47.283415328755304" lon="-1.5827976074084478"><ele>45.0</ele><time>2026-03-23T17:05:53.001Z</time></trkpt><trkpt lat="47.28341792714529" lon="-1.5828985255226333"><ele>45.0</ele><time>2026-03-23T17:05:54.001Z</time></trkpt><trkpt lat="47.283412688455805" lon="-1.5829944144949157"><ele>45.0</ele><time>2026-03-23T17:05:55.001Z</time></trkpt><trkpt lat="47.28340636011891" lon="-1.583153167740985"><ele>45.0</ele><time>2026-03-23T17:05:57.001Z</time></trkpt><trkpt lat="47.28338796184145" lon="-1.5832676645383081"><ele>45.0</ele><time>2026-03-23T17:05:58.001Z</time></trkpt><trkpt lat="47.28338892576031" lon="-1.5834436845049107"><ele>45.0</ele><time>2026-03-23T17:06:00.001Z</time></trkpt><trkpt lat="47.28338217832826" lon="-1.5835426747813668"><ele>45.0</ele><time>2026-03-23T17:06:01.001Z</time></trkpt><trkpt lat="47.2833748860725" lon="-1.5836364682778563"><ele>45.0</ele><time>2026-03-23T17:06:02.001Z</time></trkpt><trkpt lat="47.283362606584355" lon="-1.58374023623912"><ele>44.8</ele><time>2026-03-23T17:06:03.001Z</time></trkpt><trkpt lat="47.28335078810088" lon="-1.5838370472207515"><ele>44.6</ele><time>2026-03-23T17:06:04.001Z</time></trkpt><trkpt lat="47.28332409173928" lon="-1.5839967224761693"><ele>44.400000000000006</ele><time>2026-03-23T17:06:06.001Z</time></trkpt><trkpt lat="47.28333008480005" lon="-1.5841263905182332"><ele>44.2</ele><time>2026-03-23T17:06:07.001Z</time></trkpt><trkpt lat="47.28330921386115" lon="-1.5842294041082114"><ele>44.0</ele><time>2026-03-23T17:06:08.001Z</time></trkpt><trkpt lat="47.283306364014074" lon="-1.584410453216717"><ele>44.0</ele><time>2026-03-23T17:06:10.001Z</time></trkpt><trkpt lat="47.28331001014195" lon="-1.5845097787692999"><ele>44.0</ele><time>2026-03-23T17:06:11.001Z</time></trkpt><trkpt lat="47.283316464207395" lon="-1.5846050810083603"><ele>44.0</ele><time>2026-03-23T17:06:12.001Z</time></trkpt><trkpt lat="47.28331189607017" lon="-1.5847050771131967"><ele>44.0</ele><time>2026-03-23T17:06:13.001Z</time></trkpt><trkpt lat="47.28330363989554" lon="-1.5847977809622742"><ele>44.0</ele><time>2026-03-23T17:06:14.001Z</time></trkpt><trkpt lat="47.28328825910322" lon="-1.5849586296841363"><ele>44.0</ele><time>2026-03-23T17:06:16.001Z</time></trkpt><trkpt lat="47.2832688969069" lon="-1.5851119346931437"><ele>43.800000000000004</ele><time>2026-03-23T17:06:18.001Z</time></trkpt><trkpt lat="47.283263239122256" lon="-1.58529155887811"><ele>43.6</ele><time>2026-03-23T17:06:21.001Z</time></trkpt><trkpt lat="47.28325183973394" lon="-1.5854565147325261"><ele>43.4</ele><time>2026-03-23T17:06:23.001Z</time></trkpt><trkpt lat="47.28325288747184" lon="-1.5856770426049696"><ele>43.2</ele><time>2026-03-23T17:06:25.001Z</time></trkpt><trkpt lat="47.283250917724594" lon="-1.5857700817301736"><ele>43.0</ele><time>2026-03-23T17:06:26.001Z</time></trkpt><trkpt lat="47.28325167209588" lon="-1.5858655516072975"><ele>43.0</ele><time>2026-03-23T17:06:27.001Z</time></trkpt><trkpt lat="47.283243709287866" lon="-1.5859660506263245"><ele>43.0</ele><time>2026-03-23T17:06:28.001Z</time></trkpt><trkpt lat="47.283231387890204" lon="-1.5860714111491907"><ele>43.0</ele><time>2026-03-23T17:06:29.001Z</time></trkpt><trkpt lat="47.283213576345965" lon="-1.5861787833288183"><ele>43.0</ele><time>2026-03-23T17:06:30.001Z</time></trkpt><trkpt lat="47.283204062885865" lon="-1.5863622631892433"><ele>43.0</ele><time>2026-03-23T17:06:32.001Z</time></trkpt><trkpt lat="47.28318952028386" lon="-1.5864661987885706"><ele>43.0</ele><time>2026-03-23T17:06:33.001Z</time></trkpt><trkpt lat="47.2831652965837" lon="-1.5865637641414874"><ele>43.2</ele><time>2026-03-23T17:06:34.001Z</time></trkpt><trkpt lat="47.283119782849475" lon="-1.5867267083391423"><ele>43.4</ele><time>2026-03-23T17:06:36.001Z</time></trkpt><trkpt lat="47.28309736125849" lon="-1.5868136286750312"><ele>43.6</ele><time>2026-03-23T17:06:37.001Z</time></trkpt><trkpt lat="47.28304493245415" lon="-1.5869708731785295"><ele>43.800000000000004</ele><time>2026-03-23T17:06:39.001Z</time></trkpt><trkpt lat="47.28300448977135" lon="-1.587135996671009"><ele>44.0</ele><time>2026-03-23T17:06:41.001Z</time></trkpt><trkpt lat="47.2829665616595" lon="-1.5872703585788488"><ele>44.6</ele><time>2026-03-23T17:06:43.001Z</time></trkpt><trkpt lat="47.282904074571356" lon="-1.5874259267017128"><ele>45.2</ele><time>2026-03-23T17:06:45.001Z</time></trkpt><trkpt lat="47.28284946647219" lon="-1.5875519905254127"><ele>45.800000000000004</ele><time>2026-03-23T17:06:47.001Z</time></trkpt><trkpt lat="47.28280709595166" lon="-1.5876928903177265"><ele>46.400000000000006</ele><time>2026-03-23T17:06:49.001Z</time></trkpt><trkpt lat="47.28275600825183" lon="-1.5878430940225607"><ele>47.0</ele><time>2026-03-23T17:06:51.001Z</time></trkpt><trkpt lat="47.28268974930726" lon="-1.5879824850723034"><ele>47.2</ele><time>2026-03-23T17:06:53.001Z</time></trkpt><trkpt lat="47.28263321337037" lon="-1.5881261508926638"><ele>47.400000000000006</ele><time>2026-03-23T17:06:55.001Z</time></trkpt><trkpt lat="47.28259109430693" lon="-1.588252717630554"><ele>47.599999999999994</ele><time>2026-03-23T17:06:57.001Z</time></trkpt><trkpt lat="47.28254063524984" lon="-1.5883945394322168"><ele>47.8</ele><time>2026-03-23T17:06:59.001Z</time></trkpt><trkpt lat="47.282506353265866" lon="-1.5885079465821277"><ele>48.0</ele><time>2026-03-23T17:07:01.001Z</time></trkpt><trkpt lat="47.28247005962513" lon="-1.5886384528145088"><ele>48.2</ele><time>2026-03-23T17:07:03.001Z</time></trkpt><trkpt lat="47.28241323032163" lon="-1.5887487586602462"><ele>48.4</ele><time>2026-03-23T17:07:05.001Z</time></trkpt><trkpt lat="47.28236457337372" lon="-1.588864345104982"><ele>48.6</ele><time>2026-03-23T17:07:07.001Z</time></trkpt><trkpt lat="47.282310174822136" lon="-1.5889772493407026"><ele>48.800000000000004</ele><time>2026-03-23T17:07:09.001Z</time></trkpt><trkpt lat="47.28223452814601" lon="-1.5891046542689102"><ele>49.0</ele><time>2026-03-23T17:07:11.001Z</time></trkpt><trkpt lat="47.282184027179404" lon="-1.5892303828164833"><ele>49.400000000000006</ele><time>2026-03-23T17:07:13.001Z</time></trkpt><trkpt lat="47.282150834842845" lon="-1.5893237572178145"><ele>49.8</ele><time>2026-03-23T17:07:15.001Z</time></trkpt><trkpt lat="47.282097064934" lon="-1.5894354879870911"><ele>50.2</ele><time>2026-03-23T17:07:17.001Z</time></trkpt><trkpt lat="47.282034787393435" lon="-1.5895638987436793"><ele>50.599999999999994</ele><time>2026-03-23T17:07:19.001Z</time></trkpt><trkpt lat="47.28197108492933" lon="-1.5896845143303178"><ele>51.0</ele><time>2026-03-23T17:07:21.001Z</time></trkpt><trkpt lat="47.28190985512666" lon="-1.5898039564505124"><ele>51.199999999999996</ele><time>2026-03-23T17:07:23.001Z</time></trkpt><trkpt lat="47.28185512129895" lon="-1.5899169445052648"><ele>51.4</ele><time>2026-03-23T17:07:25.001Z</time></trkpt><trkpt lat="47.28179334667258" lon="-1.5900246519610193"><ele>51.6</ele><time>2026-03-23T17:07:27.001Z</time></trkpt><trkpt lat="47.28172021456741" lon="-1.590148452670863"><ele>51.8</ele><time>2026-03-23T17:07:29.001Z</time></trkpt><trkpt lat="47.2816591524028" lon="-1.590252472089222"><ele>52.0</ele><time>2026-03-23T17:07:31.001Z</time></trkpt><trkpt lat="47.28160031144254" lon="-1.5903735905900507"><ele>52.2</ele><time>2026-03-23T17:07:33.001Z</time></trkpt><trkpt lat="47.28153380104087" lon="-1.5904693957433016"><ele>52.400000000000006</ele><time>2026-03-23T17:07:35.001Z</time></trkpt><trkpt lat="47.281464356973096" lon="-1.5905643627062351"><ele>52.599999999999994</ele><time>2026-03-23T17:07:37.001Z</time></trkpt><trkpt lat="47.28139503863387" lon="-1.5906748361900362"><ele>52.8</ele><time>2026-03-23T17:07:39.001Z</time></trkpt><trkpt lat="47.28131976914339" lon="-1.590794194491199"><ele>53.0</ele><time>2026-03-23T17:07:41.001Z</time></trkpt><trkpt lat="47.28123527955942" lon="-1.590909948573998"><ele>53.0</ele><time>2026-03-23T17:07:43.001Z</time></trkpt><trkpt lat="47.281157411678954" lon="-1.5910117886975323"><ele>53.0</ele><time>2026-03-23T17:07:45.001Z</time></trkpt><trkpt lat="47.28111173030667" lon="-1.591078760103873"><ele>53.0</ele><time>2026-03-23T17:07:46.001Z</time></trkpt><trkpt lat="47.28104232814841" lon="-1.5911820251509465"><ele>53.0</ele><time>2026-03-23T17:07:48.001Z</time></trkpt><trkpt lat="47.280998574613854" lon="-1.5912907384350814"><ele>53.0</ele><time>2026-03-23T17:07:50.001Z</time></trkpt><trkpt lat="47.28093981747262" lon="-1.591443791986994"><ele>53.0</ele><time>2026-03-23T17:07:52Z</time></trkpt><trkpt lat="47.280876743651255" lon="-1.5915812551990072"><ele>53.0</ele><time>2026-03-23T17:07:54Z</time></trkpt><trkpt lat="47.28079141587697" lon="-1.5916769765332264"><ele>53.0</ele><time>2026-03-23T17:07:56Z</time></trkpt><trkpt lat="47.2806974128329" lon="-1.5917794872090143"><ele>53.0</ele><time>2026-03-23T17:07:58Z</time></trkpt><trkpt lat="47.28060718164526" lon="-1.5919001866146847"><ele>53.25</ele><time>2026-03-23T17:08:00Z</time></trkpt><trkpt lat="47.280531032054945" lon="-1.5920409187689348"><ele>53.5</ele><time>2026-03-23T17:08:02Z</time></trkpt><trkpt lat="47.280455762564465" lon="-1.5921691618874596"><ele>53.75</ele><time>2026-03-23T17:08:04Z</time></trkpt><trkpt lat="47.28038480975412" lon="-1.5923017635956334"><ele>54.0</ele><time>2026-03-23T17:08:06Z</time></trkpt><trkpt lat="47.280308031521066" lon="-1.5924304258093167"><ele>54.0</ele><time>2026-03-23T17:08:08Z</time></trkpt><trkpt lat="47.28025782392107" lon="-1.5924968104824353"><ele>54.0</ele><time>2026-03-23T17:08:09Z</time></trkpt><trkpt lat="47.28020996325396" lon="-1.5925586689278413"><ele>54.0</ele><time>2026-03-23T17:08:10Z</time></trkpt><trkpt lat="47.28013096381657" lon="-1.5926973894253305"><ele>54.0</ele><time>2026-03-23T17:08:12Z</time></trkpt><trkpt lat="47.28006642316215" lon="-1.5927574876710704"><ele>54.0</ele><time>2026-03-23T17:08:13Z</time></trkpt><trkpt lat="47.27998117920689" lon="-1.5928802825525337"><ele>54.0</ele><time>2026-03-23T17:08:15Z</time></trkpt><trkpt lat="47.27993206125431" lon="-1.592938788236671"><ele>54.0</ele><time>2026-03-23T17:08:16Z</time></trkpt><trkpt lat="47.279834956906065" lon="-1.5930753294393356"><ele>54.00000000000001</ele><time>2026-03-23T17:08:18Z</time></trkpt><trkpt lat="47.279787599153146" lon="-1.5931456536069448"><ele>54.00000000000001</ele><time>2026-03-23T17:08:19Z</time></trkpt><trkpt lat="47.27970734243028" lon="-1.5932806860670383"><ele>54.0</ele><time>2026-03-23T17:08:21Z</time></trkpt><trkpt lat="47.27961715315215" lon="-1.5934056602433262"><ele>54.0</ele><time>2026-03-23T17:08:23Z</time></trkpt><trkpt lat="47.279541967480704" lon="-1.5935437101885617"><ele>53.2</ele><time>2026-03-23T17:08:25Z</time></trkpt><trkpt lat="47.2794634709575" lon="-1.5936824306860506"><ele>52.400000000000006</ele><time>2026-03-23T17:08:27Z</time></trkpt><trkpt lat="47.27941929832779" lon="-1.5938245039448085"><ele>51.6</ele><time>2026-03-23T17:08:29Z</time></trkpt><trkpt lat="47.2793860221722" lon="-1.5939037129297795"><ele>50.8</ele><time>2026-03-23T17:08:30Z</time></trkpt><trkpt lat="47.279355092949494" lon="-1.5940313693150823"><ele>50.0</ele><time>2026-03-23T17:08:32Z</time></trkpt><trkpt lat="47.279351656369194" lon="-1.5941441897317712"><ele>50.0</ele><time>2026-03-23T17:08:34Z</time></trkpt><trkpt lat="47.27935647596352" lon="-1.5942891128376073"><ele>50.0</ele><time>2026-03-23T17:08:36Z</time></trkpt><trkpt lat="47.279336066029295" lon="-1.594430599363143"><ele>50.0</ele><time>2026-03-23T17:08:38Z</time></trkpt><trkpt lat="47.27925153453581" lon="-1.5945349540576288"><ele>50.0</ele><time>2026-03-23T17:08:40Z</time></trkpt><trkpt lat="47.27914487481795" lon="-1.5945748519167253"><ele>50.0</ele><time>2026-03-23T17:08:42Z</time></trkpt><trkpt lat="47.279037586457356" lon="-1.594604691492016"><ele>50.0</ele><time>2026-03-23T17:08:44Z</time></trkpt><trkpt lat="47.27897530891679" lon="-1.5946589224055359"><ele>50.0</ele><time>2026-03-23T17:08:45Z</time></trkpt><trkpt lat="47.27888306607239" lon="-1.5947766881450962"><ele>50.0</ele><time>2026-03-23T17:08:47Z</time></trkpt><trkpt lat="47.278799833773896" lon="-1.5949084516629528"><ele>50.0</ele><time>2026-03-23T17:08:49Z</time></trkpt><trkpt lat="47.278764126866385" lon="-1.5949898399427487"><ele>50.0</ele><time>2026-03-23T17:08:50Z</time></trkpt><trkpt lat="47.278730138249024" lon="-1.5950774308308913"><ele>50.0</ele><time>2026-03-23T17:08:51Z</time></trkpt><trkpt lat="47.27866019126706" lon="-1.5952357649818019"><ele>50.0</ele><time>2026-03-23T17:08:53Z</time></trkpt><trkpt lat="47.27861471944235" lon="-1.5953195840135173"><ele>50.0</ele><time>2026-03-23T17:08:54Z</time></trkpt><trkpt lat="47.27855902169578" lon="-1.595484623686965"><ele>50.0</ele><time>2026-03-23T17:08:56Z</time></trkpt><trkpt lat="47.27852641609244" lon="-1.5955736394986468"><ele>50.0</ele><time>2026-03-23T17:08:57Z</time></trkpt><trkpt lat="47.278497833802625" lon="-1.595663409681614"><ele>50.0</ele><time>2026-03-23T17:08:58Z</time></trkpt><trkpt lat="47.27846652739428" lon="-1.5957476478084882"><ele>50.0</ele><time>2026-03-23T17:08:59Z</time></trkpt><trkpt lat="47.27841845717959" lon="-1.5958927385523876"><ele>50.0</ele><time>2026-03-23T17:09:01Z</time></trkpt><trkpt lat="47.27836234033786" lon="-1.5960534196361862"><ele>50.0</ele><time>2026-03-23T17:09:03Z</time></trkpt><trkpt lat="47.27833459623836" lon="-1.596142435447868"><ele>50.0</ele><time>2026-03-23T17:09:04Z</time></trkpt><trkpt lat="47.27828401145272" lon="-1.596285933630165"><ele>50.00000000000001</ele><time>2026-03-23T17:09:06Z</time></trkpt><trkpt lat="47.27826737337492" lon="-1.5963861811920965"><ele>50.0</ele><time>2026-03-23T17:09:08Z</time></trkpt><trkpt lat="47.278275042816325" lon="-1.5964831598117915"><ele>50.0</ele><time>2026-03-23T17:09:13Z</time></trkpt><trkpt lat="47.27827738974921" lon="-1.596591956914958"><ele>50.0</ele><time>2026-03-23T17:09:18Z</time></trkpt><trkpt lat="47.27831766479395" lon="-1.5967044420555203"><ele>50.0</ele><time>2026-03-23T17:09:21Z</time></trkpt><trkpt lat="47.27834964175455" lon="-1.5967936255052655"><ele>50.00000000000001</ele><time>2026-03-23T17:09:23Z</time></trkpt><trkpt lat="47.27837122515522" lon="-1.5968929510578485"><ele>50.0</ele><time>2026-03-23T17:09:25Z</time></trkpt><trkpt lat="47.278360747776254" lon="-1.5970202721670241"><ele>50.2</ele><time>2026-03-23T17:09:27Z</time></trkpt><trkpt lat="47.27831665896557" lon="-1.5971507783994052"><ele>50.4</ele><time>2026-03-23T17:09:29Z</time></trkpt><trkpt lat="47.27824243721299" lon="-1.597272483633456"><ele>50.599999999999994</ele><time>2026-03-23T17:09:31Z</time></trkpt><trkpt lat="47.27814772170715" lon="-1.5973501000568244"><ele>50.8</ele><time>2026-03-23T17:09:33Z</time></trkpt><trkpt lat="47.27805065926842" lon="-1.5974065940842008"><ele>51.0</ele><time>2026-03-23T17:09:35Z</time></trkpt><trkpt lat="47.27793586910449" lon="-1.5974714700147485"><ele>50.599999999999994</ele><time>2026-03-23T17:09:37Z</time></trkpt><trkpt lat="47.27785707921468" lon="-1.597586218269167"><ele>50.2</ele><time>2026-03-23T17:09:39Z</time></trkpt><trkpt lat="47.27779387966476" lon="-1.5977238491192438"><ele>49.8</ele><time>2026-03-23T17:09:41Z</time></trkpt><trkpt lat="47.27773784664206" lon="-1.5978409443065504"><ele>49.400000000000006</ele><time>2026-03-23T17:09:43Z</time></trkpt><trkpt lat="47.27771932263605" lon="-1.5979315526798348"><ele>49.0</ele><time>2026-03-23T17:09:44Z</time></trkpt><trkpt lat="47.27767603010617" lon="-1.5980787388995272"><ele>48.99999999999999</ele><time>2026-03-23T17:09:46Z</time></trkpt><trkpt lat="47.27762263738297" lon="-1.5982328820988518"><ele>49.0</ele><time>2026-03-23T17:09:48Z</time></trkpt><trkpt lat="47.277581607966944" lon="-1.5983111690744742"><ele>49.0</ele><time>2026-03-23T17:09:49Z</time></trkpt><trkpt lat="47.27753458549015" lon="-1.5984701737776383"><ele>49.0</ele><time>2026-03-23T17:09:51Z</time></trkpt><trkpt lat="47.2775088111379" lon="-1.5985589381322252"><ele>48.99999999999999</ele><time>2026-03-23T17:09:52Z</time></trkpt><trkpt lat="47.27748010311954" lon="-1.5986449364587652"><ele>49.0</ele><time>2026-03-23T17:09:53Z</time></trkpt><trkpt lat="47.27741531100801" lon="-1.5988137479886402"><ele>49.0</ele><time>2026-03-23T17:09:55Z</time></trkpt><trkpt lat="47.27735349447212" lon="-1.5989735908821214"><ele>49.0</ele><time>2026-03-23T17:09:57Z</time></trkpt><trkpt lat="47.27732935459099" lon="-1.599062103779613"><ele>49.0</ele><time>2026-03-23T17:09:58Z</time></trkpt><trkpt lat="47.27727918890051" lon="-1.599240889774262"><ele>49.0</ele><time>2026-03-23T17:10:00Z</time></trkpt><trkpt lat="47.27722638291053" lon="-1.5993995592012995"><ele>49.0</ele><time>2026-03-23T17:10:02Z</time></trkpt><trkpt lat="47.27719398685477" lon="-1.5995687060073014"><ele>49.166666666666664</ele><time>2026-03-23T17:10:04Z</time></trkpt><trkpt lat="47.27716494356028" lon="-1.5996529441341754"><ele>49.33333333333333</ele><time>2026-03-23T17:10:05Z</time></trkpt><trkpt lat="47.27713845674626" lon="-1.599744977430999"><ele>49.5</ele><time>2026-03-23T17:10:06Z</time></trkpt><trkpt lat="47.27709055416963" lon="-1.5999108552947638"><ele>49.66666666666667</ele><time>2026-03-23T17:10:08Z</time></trkpt><trkpt lat="47.27705371570519" lon="-1.5999988652780652"><ele>49.833333333333336</ele><time>2026-03-23T17:10:09Z</time></trkpt><trkpt lat="47.277018846988" lon="-1.6000873781755567"><ele>50.0</ele><time>2026-03-23T17:10:10Z</time></trkpt><trkpt lat="47.276957491456784" lon="-1.6002501547351482"><ele>50.00000000000001</ele><time>2026-03-23T17:10:12Z</time></trkpt><trkpt lat="47.27690896023742" lon="-1.60042516887337"><ele>50.0</ele><time>2026-03-23T17:10:14Z</time></trkpt><trkpt lat="47.27686826609752" lon="-1.6005060542389755"><ele>50.0</ele><time>2026-03-23T17:10:15Z</time></trkpt><trkpt lat="47.27683582813225" lon="-1.6005981713548307"><ele>50.0</ele><time>2026-03-23T17:10:16Z</time></trkpt><trkpt lat="47.27680355780504" lon="-1.600690623746813"><ele>50.00000000000001</ele><time>2026-03-23T17:10:17Z</time></trkpt><trkpt lat="47.27677686144344" lon="-1.6007846687003977"><ele>50.0</ele><time>2026-03-23T17:10:18Z</time></trkpt><trkpt lat="47.27673805323175" lon="-1.600879132749141"><ele>50.00000000000001</ele><time>2026-03-23T17:10:19Z</time></trkpt><trkpt lat="47.27671500299803" lon="-1.6009779553875336"><ele>50.0</ele><time>2026-03-23T17:10:20Z</time></trkpt><trkpt lat="47.276690779297866" lon="-1.6010805498823533"><ele>50.0</ele><time>2026-03-23T17:10:21Z</time></trkpt><trkpt lat="47.276673177301205" lon="-1.6011727508172404"><ele>50.0</ele><time>2026-03-23T17:10:22Z</time></trkpt><trkpt lat="47.27665130053393" lon="-1.6012670472279202"><ele>50.0</ele><time>2026-03-23T17:10:23Z</time></trkpt><trkpt lat="47.27663470436565" lon="-1.6013726592078816"><ele>50.00000000000001</ele><time>2026-03-23T17:10:24Z</time></trkpt><trkpt lat="47.27660758890889" lon="-1.6014843061581268"><ele>50.0</ele><time>2026-03-23T17:10:25Z</time></trkpt><trkpt lat="47.276587095155634" lon="-1.601588493214549"><ele>49.85714285714286</ele><time>2026-03-23T17:10:26Z</time></trkpt><trkpt lat="47.27657460611991" lon="-1.6016924288138763"><ele>49.714285714285715</ele><time>2026-03-23T17:10:27Z</time></trkpt><trkpt lat="47.27656023115597" lon="-1.6017977893367426"><ele>49.57142857142857</ele><time>2026-03-23T17:10:28Z</time></trkpt><trkpt lat="47.276549334681846" lon="-1.6018997132793087"><ele>49.42857142857143</ele><time>2026-03-23T17:10:29Z</time></trkpt><trkpt lat="47.27654715538702" lon="-1.6020111087724584"><ele>49.285714285714285</ele><time>2026-03-23T17:10:30Z</time></trkpt><trkpt lat="47.27654082705013" lon="-1.6021136194482464"><ele>49.142857142857146</ele><time>2026-03-23T17:10:31Z</time></trkpt><trkpt lat="47.276532738513566" lon="-1.602222500370445"><ele>49.0</ele><time>2026-03-23T17:10:32Z</time></trkpt><trkpt lat="47.2765328223326" lon="-1.602320568637552"><ele>48.99999999999999</ele><time>2026-03-23T17:10:33Z</time></trkpt><trkpt lat="47.276536300822414" lon="-1.6025149449721001"><ele>49.0</ele><time>2026-03-23T17:10:35Z</time></trkpt><trkpt lat="47.27654091086916" lon="-1.6026209760472203"><ele>49.0</ele><time>2026-03-23T17:10:36Z</time></trkpt><trkpt lat="47.276551052971996" lon="-1.6027267556652451"><ele>49.0</ele><time>2026-03-23T17:10:37Z</time></trkpt><trkpt lat="47.2765621589937" lon="-1.6028322838261748"><ele>48.99999999999999</ele><time>2026-03-23T17:10:38Z</time></trkpt><trkpt lat="47.27656689476899" lon="-1.6029383987203267"><ele>49.0</ele><time>2026-03-23T17:10:39Z</time></trkpt><trkpt lat="47.276574438481845" lon="-1.6030470281854299"><ele>48.99999999999999</ele><time>2026-03-23T17:10:40Z</time></trkpt><trkpt lat="47.27658504158936" lon="-1.60315012559444"><ele>49.0</ele><time>2026-03-23T17:10:41Z</time></trkpt><trkpt lat="47.27659656670622" lon="-1.6032503731563716"><ele>49.0</ele><time>2026-03-23T17:10:42Z</time></trkpt><trkpt lat="47.2766094748371" lon="-1.6033599246308239"><ele>49.0</ele><time>2026-03-23T17:10:43Z</time></trkpt><trkpt lat="47.27663269270889" lon="-1.6035246290281446"><ele>48.99999999999999</ele><time>2026-03-23T17:10:45Z</time></trkpt><trkpt lat="47.276645852296866" lon="-1.6036278102561865"><ele>49.0</ele><time>2026-03-23T17:10:46Z</time></trkpt><trkpt lat="47.27665712595663" lon="-1.6037353500738774"><ele>48.99999999999999</ele><time>2026-03-23T17:10:47Z</time></trkpt><trkpt lat="47.276656287766315" lon="-1.6038432251676953"><ele>49.0</ele><time>2026-03-23T17:10:48Z</time></trkpt><trkpt lat="47.27667669770054" lon="-1.6039451491102612"><ele>49.0</ele><time>2026-03-23T17:10:49Z</time></trkpt><trkpt lat="47.27668185257099" lon="-1.6040606517359652"><ele>49.0</ele><time>2026-03-23T17:10:50Z</time></trkpt><trkpt lat="47.276697568639435" lon="-1.6041622404024043"><ele>48.99999999999999</ele><time>2026-03-23T17:10:51Z</time></trkpt><trkpt lat="47.27671320088885" lon="-1.604282520712916"><ele>49.0</ele><time>2026-03-23T17:10:52Z</time></trkpt><trkpt lat="47.27673545484177" lon="-1.6043883841499726"><ele>49.0</ele><time>2026-03-23T17:10:53Z</time></trkpt><trkpt lat="47.27676680315963" lon="-1.604488128797714"><ele>49.0</ele><time>2026-03-23T17:10:54Z</time></trkpt><trkpt lat="47.276775981343604" lon="-1.6045887116357727"><ele>49.0</ele><time>2026-03-23T17:10:55Z</time></trkpt><trkpt lat="47.27679161359302" lon="-1.6046879533693237"><ele>49.0</ele><time>2026-03-23T17:10:56Z</time></trkpt><trkpt lat="47.276802174791015" lon="-1.604809826241438"><ele>49.0</ele><time>2026-03-23T17:10:57Z</time></trkpt><trkpt lat="47.27682841014794" lon="-1.6049121692791626"><ele>49.0</ele><time>2026-03-23T17:10:58Z</time></trkpt><trkpt lat="47.27686047092757" lon="-1.6050000954434323"><ele>49.0</ele><time>2026-03-23T17:10:59Z</time></trkpt><trkpt lat="47.27687509734861" lon="-1.605114759878819"><ele>49.166666666666664</ele><time>2026-03-23T17:11:00Z</time></trkpt><trkpt lat="47.27688134186647" lon="-1.6052284184858252"><ele>49.33333333333333</ele><time>2026-03-23T17:11:01Z</time></trkpt><trkpt lat="47.27688318588517" lon="-1.6053373832270552"><ele>49.5</ele><time>2026-03-23T17:11:02Z</time></trkpt><trkpt lat="47.27687702518634" lon="-1.605448778720205"><ele>49.66666666666667</ele><time>2026-03-23T17:11:03Z</time></trkpt><trkpt lat="47.27686482951722" lon="-1.6055750940010003"><ele>49.833333333333336</ele><time>2026-03-23T17:11:04Z</time></trkpt><trkpt lat="47.276827069043435" lon="-1.6057603340610915"><ele>50.0</ele><time>2026-03-23T17:11:06Z</time></trkpt><trkpt lat="47.27677593943409" lon="-1.6058454941973144"><ele>50.00000000000001</ele><time>2026-03-23T17:11:07Z</time></trkpt><trkpt lat="47.27673780177466" lon="-1.6059220209732705"><ele>50.0</ele><time>2026-03-23T17:11:08Z</time></trkpt><trkpt lat="47.27667879317633" lon="-1.6060263756677564"><ele>50.0</ele><time>2026-03-23T17:11:09Z</time></trkpt><trkpt lat="47.27663566828451" lon="-1.6061200015261825"><ele>50.0</ele><time>2026-03-23T17:11:10Z</time></trkpt><trkpt lat="47.27659551896832" lon="-1.6062106937184988"><ele>50.00000000000001</ele><time>2026-03-23T17:11:11Z</time></trkpt><trkpt lat="47.27651027501307" lon="-1.6063650883749185"><ele>50.0</ele><time>2026-03-23T17:11:13Z</time></trkpt><trkpt lat="47.276463336355306" lon="-1.6064460575595558"><ele>49.333333333333336</ele><time>2026-03-23T17:11:14Z</time></trkpt><trkpt lat="47.276412961117245" lon="-1.606550244615978"><ele>48.66666666666667</ele><time>2026-03-23T17:11:15Z</time></trkpt><trkpt lat="47.27633815263144" lon="-1.606659879909462"><ele>48.0</ele><time>2026-03-23T17:11:16Z</time></trkpt><trkpt lat="47.27629896723411" lon="-1.6067468840643826"><ele>47.333333333333336</ele><time>2026-03-23T17:11:17Z</time></trkpt><trkpt lat="47.276255842342294" lon="-1.6068617161378327"><ele>46.66666666666667</ele><time>2026-03-23T17:11:18Z</time></trkpt><trkpt lat="47.27624917872927" lon="-1.6069837566480105"><ele>46.0</ele><time>2026-03-23T17:11:20Z</time></trkpt><trkpt lat="47.27623107381842" lon="-1.6070945654079383"><ele>45.833333333333336</ele><time>2026-03-23T17:11:21Z</time></trkpt><trkpt lat="47.27620546710423" lon="-1.6071991715595193"><ele>45.66666666666667</ele><time>2026-03-23T17:11:22Z</time></trkpt><trkpt lat="47.27617768109522" lon="-1.6073192004129357"><ele>45.5</ele><time>2026-03-23T17:11:23Z</time></trkpt><trkpt lat="47.276171143210746" lon="-1.6074144188329647"><ele>45.333333333333336</ele><time>2026-03-23T17:11:24Z</time></trkpt><trkpt lat="47.27613748986951" lon="-1.6075325198486516"><ele>45.166666666666664</ele><time>2026-03-23T17:11:25Z</time></trkpt><trkpt lat="47.276115906468846" lon="-1.6076408140376282"><ele>45.0</ele><time>2026-03-23T17:11:26Z</time></trkpt><trkpt lat="47.27608690508387" lon="-1.607731590048976"><ele>45.4</ele><time>2026-03-23T17:11:27Z</time></trkpt><trkpt lat="47.27607081182978" lon="-1.6078356094673347"><ele>45.8</ele><time>2026-03-23T17:11:28Z</time></trkpt><trkpt lat="47.276045791848816" lon="-1.6079226136222555"><ele>46.2</ele><time>2026-03-23T17:11:29Z</time></trkpt><trkpt lat="47.2760232864388" lon="-1.608018754051633"><ele>46.6</ele><time>2026-03-23T17:11:30Z</time></trkpt><trkpt lat="47.27596767251126" lon="-1.6081878170386033"><ele>47.0</ele><time>2026-03-23T17:11:32Z</time></trkpt><trkpt lat="47.27590564642779" lon="-1.6083449777230698"><ele>47.0</ele><time>2026-03-23T17:11:34Z</time></trkpt><trkpt lat="47.275868346958674" lon="-1.6084258630886752"><ele>47.0</ele><time>2026-03-23T17:11:35Z</time></trkpt><trkpt lat="47.275823713324286" lon="-1.6085044015213925"><ele>47.0</ele><time>2026-03-23T17:11:36Z</time></trkpt><trkpt lat="47.2757825162702" lon="-1.6085855383440932"><ele>47.0</ele><time>2026-03-23T17:11:37Z</time></trkpt><trkpt lat="47.27574282795868" lon="-1.608670698480316"><ele>47.0</ele><time>2026-03-23T17:11:38Z</time></trkpt><trkpt lat="47.27569920015267" lon="-1.6087578702733"><ele>47.0</ele><time>2026-03-23T17:11:39Z</time></trkpt><trkpt lat="47.27566085294566" lon="-1.6088435333237134"><ele>47.0</ele><time>2026-03-23T17:11:40Z</time></trkpt><trkpt lat="47.275616512677885" lon="-1.608924670146414"><ele>47.14285714285714</ele><time>2026-03-23T17:11:41Z</time></trkpt><trkpt lat="47.275608130774714" lon="-1.6090337187066759"><ele>47.285714285714285</ele><time>2026-03-23T17:11:42Z</time></trkpt><trkpt lat="47.27555817463181" lon="-1.609143521638223"><ele>47.42857142857143</ele><time>2026-03-23T17:11:43Z</time></trkpt><trkpt lat="47.275507338389076" lon="-1.6092114150539125"><ele>47.57142857142857</ele><time>2026-03-23T17:11:44Z</time></trkpt><trkpt lat="47.27546165701679" lon="-1.6092848405256954"><ele>47.714285714285715</ele><time>2026-03-23T17:11:45Z</time></trkpt><trkpt lat="47.27541584991596" lon="-1.6093657258913008"><ele>47.857142857142854</ele><time>2026-03-23T17:11:46Z</time></trkpt><trkpt lat="47.27535906252197" lon="-1.6094386484488932"><ele>48.0</ele><time>2026-03-23T17:11:47Z</time></trkpt><trkpt lat="47.27530923210762" lon="-1.60951324738712"><ele>48.166666666666664</ele><time>2026-03-23T17:11:48Z</time></trkpt><trkpt lat="47.275259066417135" lon="-1.609585164116332"><ele>48.33333333333333</ele><time>2026-03-23T17:11:49Z</time></trkpt><trkpt lat="47.275177007585086" lon="-1.6096917819246739"><ele>48.5</ele><time>2026-03-23T17:11:51Z</time></trkpt><trkpt lat="47.2751236567714" lon="-1.6097511257991286"><ele>48.666666666666664</ele><time>2026-03-23T17:11:52Z</time></trkpt><trkpt lat="47.27506557018242" lon="-1.609818181024501"><ele>48.83333333333333</ele><time>2026-03-23T17:11:53Z</time></trkpt><trkpt lat="47.275005932941355" lon="-1.609891774134347"><ele>49.0</ele><time>2026-03-23T17:11:54Z</time></trkpt><trkpt lat="47.27493280083618" lon="-1.6099488548949452"><ele>48.99999999999999</ele><time>2026-03-23T17:11:55Z</time></trkpt><trkpt lat="47.27480828766457" lon="-1.6100258845850919"><ele>49.0</ele><time>2026-03-23T17:11:57Z</time></trkpt><trkpt lat="47.27474274118177" lon="-1.6100808698698972"><ele>49.0</ele><time>2026-03-23T17:11:58Z</time></trkpt><trkpt lat="47.2746823076599" lon="-1.6101319156602119"><ele>49.0</ele><time>2026-03-23T17:11:59Z</time></trkpt><trkpt lat="47.27462535262785" lon="-1.6101864818498586"><ele>48.99999999999999</ele><time>2026-03-23T17:12:00Z</time></trkpt><trkpt lat="47.274573007642545" lon="-1.6102510225042796"><ele>49.0</ele><time>2026-03-23T17:12:01Z</time></trkpt><trkpt lat="47.27451965682886" lon="-1.6103096120074487"><ele>48.2</ele><time>2026-03-23T17:12:02Z</time></trkpt><trkpt lat="47.27442787498913" lon="-1.6104402020588613"><ele>47.400000000000006</ele><time>2026-03-23T17:12:04Z</time></trkpt><trkpt lat="47.27431870070032" lon="-1.6105183213964203"><ele>46.6</ele><time>2026-03-23T17:12:06Z</time></trkpt><trkpt lat="47.274240539453245" lon="-1.6105396952495077"><ele>45.8</ele><time>2026-03-23T17:12:07Z</time></trkpt><trkpt lat="47.27418140512637" lon="-1.610585544259856"><ele>45.0</ele><time>2026-03-23T17:12:08Z</time></trkpt><trkpt lat="47.27412260607562" lon="-1.6106365900501707"><ele>45.0</ele><time>2026-03-23T17:12:09Z</time></trkpt><trkpt lat="47.27407696661285" lon="-1.6107105184361439"><ele>45.0</ele><time>2026-03-23T17:12:10Z</time></trkpt><trkpt lat="47.273985478139736" lon="-1.6108036413803797"><ele>45.0</ele><time>2026-03-23T17:12:12Z</time></trkpt><trkpt lat="47.27393212732605" lon="-1.6108670085683565"><ele>45.0</ele><time>2026-03-23T17:12:13Z</time></trkpt><trkpt lat="47.27382844318382" lon="-1.6110077407226069"><ele>45.0</ele><time>2026-03-23T17:12:15Z</time></trkpt><trkpt lat="47.27373594888232" lon="-1.6111269313857062"><ele>45.166666666666664</ele><time>2026-03-23T17:12:17Z</time></trkpt><trkpt lat="47.273639976091005" lon="-1.611243691296886"><ele>45.333333333333336</ele><time>2026-03-23T17:12:19Z</time></trkpt><trkpt lat="47.273571160665966" lon="-1.6113225650057301"><ele>45.5</ele><time>2026-03-23T17:12:20Z</time></trkpt><trkpt lat="47.27352933496914" lon="-1.611404791475843"><ele>45.66666666666667</ele><time>2026-03-23T17:12:21Z</time></trkpt><trkpt lat="47.273484366058625" lon="-1.6114912088975417"><ele>45.833333333333336</ele><time>2026-03-23T17:12:22Z</time></trkpt><trkpt lat="47.273453520654954" lon="-1.6115938033923614"><ele>46.0</ele><time>2026-03-23T17:12:23Z</time></trkpt><trkpt lat="47.27341609545729" lon="-1.6116936318591346"><ele>46.0</ele><time>2026-03-23T17:12:24Z</time></trkpt><trkpt lat="47.27335888896815" lon="-1.6117882635459413"><ele>46.0</ele><time>2026-03-23T17:12:25Z</time></trkpt><trkpt lat="47.27332557090304" lon="-1.611897395925235"><ele>46.0</ele><time>2026-03-23T17:12:26Z</time></trkpt><trkpt lat="47.27326224562458" lon="-1.6119785327479355"><ele>46.0</ele><time>2026-03-23T17:12:27Z</time></trkpt><trkpt lat="47.27319938135079" lon="-1.6121403034791464"><ele>46.0</ele><time>2026-03-23T17:12:29Z</time></trkpt><trkpt lat="47.27316782348535" lon="-1.6122338455185408"><ele>46.0</ele><time>2026-03-23T17:12:30Z</time></trkpt><trkpt lat="47.27313588843427" lon="-1.6123211849495882"><ele>46.0</ele><time>2026-03-23T17:12:31Z</time></trkpt><trkpt lat="47.273106174587525" lon="-1.6124077700093504"><ele>46.0</ele><time>2026-03-23T17:12:32Z</time></trkpt><trkpt lat="47.273082202344455" lon="-1.612500976772618"><ele>46.0</ele><time>2026-03-23T17:12:33Z</time></trkpt><trkpt lat="47.27304431614212" lon="-1.6126819420620917"><ele>46.0</ele><time>2026-03-23T17:12:35Z</time></trkpt><trkpt lat="47.27303823926232" lon="-1.6128346603378771"><ele>46.0</ele><time>2026-03-23T17:12:37Z</time></trkpt><trkpt lat="47.27301565003327" lon="-1.6129327286049844"><ele>46.0</ele><time>2026-03-23T17:12:38Z</time></trkpt><trkpt lat="47.272988827943124" lon="-1.6130317188814403"><ele>45.8</ele><time>2026-03-23T17:12:39Z</time></trkpt><trkpt lat="47.272961502938784" lon="-1.6131338104620698"><ele>45.599999999999994</ele><time>2026-03-23T17:12:40Z</time></trkpt><trkpt lat="47.27294163782827" lon="-1.6132349800333503"><ele>45.4</ele><time>2026-03-23T17:12:41Z</time></trkpt><trkpt lat="47.272899267307736" lon="-1.6134098265335088"><ele>45.2</ele><time>2026-03-23T17:12:43Z</time></trkpt><trkpt lat="47.2728399653428" lon="-1.6135728545501955"><ele>45.0</ele><time>2026-03-23T17:12:45Z</time></trkpt><trkpt lat="47.272822489074684" lon="-1.613684333862377"><ele>45.0</ele><time>2026-03-23T17:12:46Z</time></trkpt><trkpt lat="47.27280186959288" lon="-1.6137741040453442"><ele>45.0</ele><time>2026-03-23T17:12:47Z</time></trkpt><trkpt lat="47.27277102418921" lon="-1.613861694933487"><ele>45.0</ele><time>2026-03-23T17:12:48Z</time></trkpt><trkpt lat="47.272734772457994" lon="-1.6140186041608582"><ele>45.0</ele><time>2026-03-23T17:12:50Z</time></trkpt><trkpt lat="47.27268117018721" lon="-1.6142128966763747"><ele>45.0</ele><time>2026-03-23T17:12:52Z</time></trkpt><trkpt lat="47.27266113743863" lon="-1.6143091209247842"><ele>45.0</ele><time>2026-03-23T17:12:53Z</time></trkpt><trkpt lat="47.27263586600057" lon="-1.6144015733167663"><ele>45.0</ele><time>2026-03-23T17:12:54Z</time></trkpt><trkpt lat="47.27260510441593" lon="-1.6144901700332894"><ele>45.0</ele><time>2026-03-23T17:12:55Z</time></trkpt><trkpt lat="47.27257220544598" lon="-1.6146561317160861"><ele>45.0</ele><time>2026-03-23T17:12:57Z</time></trkpt><trkpt lat="47.272554058625616" lon="-1.6147573012873668"><ele>45.0</ele><time>2026-03-23T17:12:58Z</time></trkpt><trkpt lat="47.27254286878488" lon="-1.6148569621160764"><ele>45.0</ele><time>2026-03-23T17:12:59Z</time></trkpt><trkpt lat="47.27253708527169" lon="-1.614964585752799"><ele>45.2</ele><time>2026-03-23T17:13:01Z</time></trkpt><trkpt lat="47.2725125262954" lon="-1.6150514222696564"><ele>45.4</ele><time>2026-03-23T17:13:02Z</time></trkpt><trkpt lat="47.272484363100745" lon="-1.6152288671597979"><ele>45.599999999999994</ele><time>2026-03-23T17:13:04Z</time></trkpt><trkpt lat="47.27245557126335" lon="-1.6153518296793246"><ele>45.8</ele><time>2026-03-23T17:13:06Z</time></trkpt><trkpt lat="47.2724435432323" lon="-1.6154514905080342"><ele>46.0</ele><time>2026-03-23T17:13:07Z</time></trkpt><trkpt lat="47.27243289821527" lon="-1.615605633707359"><ele>46.199999999999996</ele><time>2026-03-23T17:13:09Z</time></trkpt><trkpt lat="47.27241135672412" lon="-1.6157714277520923"><ele>46.4</ele><time>2026-03-23T17:13:11Z</time></trkpt><trkpt lat="47.272413033104755" lon="-1.6159256547704486"><ele>46.6</ele><time>2026-03-23T17:13:13Z</time></trkpt><trkpt lat="47.27242036727003" lon="-1.6160942148432285"><ele>46.8</ele><time>2026-03-23T17:13:15Z</time></trkpt><trkpt lat="47.272420409179546" lon="-1.6161932051196846"><ele>47.0</ele><time>2026-03-23T17:13:16Z</time></trkpt><trkpt lat="47.272443794689394" lon="-1.6163428220912965"><ele>47.0</ele><time>2026-03-23T17:13:18Z</time></trkpt><trkpt lat="47.27244547107003" lon="-1.6165237035617386"><ele>47.0</ele><time>2026-03-23T17:13:20Z</time></trkpt><trkpt lat="47.272466844923116" lon="-1.6166783496752537"><ele>47.0</ele><time>2026-03-23T17:13:22Z</time></trkpt><trkpt lat="47.2724876739525" lon="-1.6168264579042948"><ele>47.0</ele><time>2026-03-23T17:13:24Z</time></trkpt><trkpt lat="47.27253478024832" lon="-1.6169788409039536"><ele>47.0</ele><time>2026-03-23T17:13:26Z</time></trkpt><trkpt lat="47.272575516297735" lon="-1.6171624884024423"><ele>46.75</ele><time>2026-03-23T17:13:28Z</time></trkpt><trkpt lat="47.27262413133613" lon="-1.6173418611303132"><ele>46.5</ele><time>2026-03-23T17:13:30Z</time></trkpt><trkpt lat="47.27265962869606" lon="-1.6174960881486697"><ele>46.25</ele><time>2026-03-23T17:13:32Z</time></trkpt><trkpt lat="47.27271235086701" lon="-1.6176558472231195"><ele>46.0</ele><time>2026-03-23T17:13:34Z</time></trkpt><trkpt lat="47.272744160189546" lon="-1.6178380697980688"><ele>46.5</ele><time>2026-03-23T17:13:36Z</time></trkpt><trkpt lat="47.27277890317819" lon="-1.6180031932905483"><ele>47.0</ele><time>2026-03-23T17:13:38Z</time></trkpt><trkpt lat="47.27277529895983" lon="-1.6181807219997217"><ele>47.5</ele><time>2026-03-23T17:13:40Z</time></trkpt><trkpt lat="47.2727844771438" lon="-1.6183254774674942"><ele>48.0</ele><time>2026-03-23T17:13:42Z</time></trkpt><trkpt lat="47.27276767142794" lon="-1.6184977255776696"><ele>48.0</ele><time>2026-03-23T17:13:44Z</time></trkpt><trkpt lat="47.27277324539355" lon="-1.618648180739599"><ele>48.0</ele><time>2026-03-23T17:13:46Z</time></trkpt><trkpt lat="47.27275191344998" lon="-1.6187492664918477"><ele>48.0</ele><time>2026-03-23T17:13:47Z</time></trkpt><trkpt lat="47.272734353362836" lon="-1.6188426408931789"><ele>48.0</ele><time>2026-03-23T17:13:48Z</time></trkpt><trkpt lat="47.272703298411585" lon="-1.6189381945893344"><ele>48.0</ele><time>2026-03-23T17:13:49Z</time></trkpt><trkpt lat="47.272661221257664" lon="-1.6190521046534359"><ele>48.0</ele><time>2026-03-23T17:13:50Z</time></trkpt><trkpt lat="47.27262962148271" lon="-1.6191453114167034"><ele>47.599999999999994</ele><time>2026-03-23T17:13:51Z</time></trkpt><trkpt lat="47.272577947049655" lon="-1.6192985326066793"><ele>47.199999999999996</ele><time>2026-03-23T17:13:53Z</time></trkpt><trkpt lat="47.272524009502746" lon="-1.6194755584016622"><ele>46.8</ele><time>2026-03-23T17:13:55Z</time></trkpt><trkpt lat="47.27248650048605" lon="-1.619564658032376"><ele>46.4</ele><time>2026-03-23T17:13:56Z</time></trkpt><trkpt lat="47.27246156432412" lon="-1.6196607984617535"><ele>46.0</ele><time>2026-03-23T17:13:57Z</time></trkpt><trkpt lat="47.27243880745701" lon="-1.6197628062233513"><ele>45.66666666666667</ele><time>2026-03-23T17:13:58Z</time></trkpt><trkpt lat="47.27239899341694" lon="-1.6198685020223444"><ele>45.333333333333336</ele><time>2026-03-23T17:13:59Z</time></trkpt><trkpt lat="47.27235741917721" lon="-1.6199589427575654"><ele>45.0</ele><time>2026-03-23T17:14:00Z</time></trkpt><trkpt lat="47.27232343055985" lon="-1.6200667340323516"><ele>44.666666666666664</ele><time>2026-03-23T17:14:01Z</time></trkpt><trkpt lat="47.272287681742824" lon="-1.6201845835909434"><ele>44.33333333333333</ele><time>2026-03-23T17:14:02Z</time></trkpt><trkpt lat="47.2722577583485" lon="-1.6202846635148118"><ele>44.0</ele><time>2026-03-23T17:14:03Z</time></trkpt><trkpt lat="47.27222720631144" lon="-1.6203825641438554"><ele>42.2</ele><time>2026-03-23T17:14:04Z</time></trkpt><trkpt lat="47.27217431650243" lon="-1.6205244697645498"><ele>40.400000000000006</ele><time>2026-03-23T17:14:06Z</time></trkpt><trkpt lat="47.27212025322697" lon="-1.620656317101438"><ele>38.6</ele><time>2026-03-23T17:14:08Z</time></trkpt><trkpt lat="47.27209083274684" lon="-1.6207856498673752"><ele>36.8</ele><time>2026-03-23T17:14:10Z</time></trkpt><trkpt lat="47.27201899983666" lon="-1.6208344325438335"><ele>35.0</ele><time>2026-03-23T17:14:12Z</time></trkpt><trkpt lat="47.271924242421306" lon="-1.6208055987969234"><ele>35.0</ele><time>2026-03-23T17:14:14Z</time></trkpt><trkpt lat="47.27189637259326" lon="-1.6206930298373294"><ele>35.0</ele><time>2026-03-23T17:14:16Z</time></trkpt><trkpt lat="47.27190672424368" lon="-1.6205886751428438"><ele>35.0</ele><time>2026-03-23T17:14:18Z</time></trkpt><trkpt lat="47.27187768094919" lon="-1.6204957198366714"><ele>35.0</ele><time>2026-03-23T17:14:20Z</time></trkpt><trkpt lat="47.271788581318475" lon="-1.620409805329163"><ele>35.0</ele><time>2026-03-23T17:14:22Z</time></trkpt><trkpt lat="47.271703588820316" lon="-1.620313161985595"><ele>35.0</ele><time>2026-03-23T17:14:24Z</time></trkpt><trkpt lat="47.27163100153885" lon="-1.6202093940243312"><ele>35.0</ele><time>2026-03-23T17:14:26Z</time></trkpt><trkpt lat="47.271590684584595" lon="-1.620134627448041"><ele>35.0</ele><time>2026-03-23T17:14:27Z</time></trkpt><trkpt lat="47.271509631580926" lon="-1.620016526432354"><ele>35.0</ele><time>2026-03-23T17:14:29Z</time></trkpt><trkpt lat="47.271480294919826" lon="-1.6199311148390358"><ele>35.0</ele><time>2026-03-23T17:14:30Z</time></trkpt><trkpt lat="47.271431344605304" lon="-1.6198548395201748"><ele>35.0</ele><time>2026-03-23T17:14:31Z</time></trkpt><trkpt lat="47.27134651974521" lon="-1.6197266802206818"><ele>35.0</ele><time>2026-03-23T17:14:33Z</time></trkpt><trkpt lat="47.27126383227042" lon="-1.6196652408704344"><ele>35.0</ele><time>2026-03-23T17:14:35Z</time></trkpt><trkpt lat="47.2712069610574" lon="-1.61952040158363"><ele>35.0</ele><time>2026-03-23T17:14:37Z</time></trkpt><trkpt lat="47.27111857388846" lon="-1.6194012109205307"><ele>35.0</ele><time>2026-03-23T17:14:39Z</time></trkpt><trkpt lat="47.27106115785173" lon="-1.6192861273899855"><ele>35.0</ele><time>2026-03-23T17:14:41Z</time></trkpt><trkpt lat="47.27103429385207" lon="-1.619198117406684"><ele>35.0</ele><time>2026-03-23T17:14:42Z</time></trkpt><trkpt lat="47.27099054031751" lon="-1.619067108260113"><ele>36.33333333333333</ele><time>2026-03-23T17:14:44Z</time></trkpt><trkpt lat="47.2709809849479" lon="-1.6189595684424218"><ele>37.666666666666664</ele><time>2026-03-23T17:14:46Z</time></trkpt><trkpt lat="47.27097528525374" lon="-1.6188023239389235"><ele>39.0</ele><time>2026-03-23T17:14:48Z</time></trkpt><trkpt lat="47.27097826082937" lon="-1.6186842229232365"><ele>40.333333333333336</ele><time>2026-03-23T17:14:50Z</time></trkpt><trkpt lat="47.27092335936359" lon="-1.6186114680037076"><ele>41.66666666666667</ele><time>2026-03-23T17:14:53Z</time></trkpt><trkpt lat="47.27081552617929" lon="-1.618631668390351"><ele>43.0</ele><time>2026-03-23T17:14:55Z</time></trkpt><trkpt lat="47.27071322505108" lon="-1.618613731117564"><ele>43.16666666666667</ele><time>2026-03-23T17:14:57Z</time></trkpt><trkpt lat="47.27063535717062" lon="-1.6185495257392697"><ele>43.333333333333336</ele><time>2026-03-23T17:14:59Z</time></trkpt><trkpt lat="47.27055828557096" lon="-1.6184563189760022"><ele>43.5</ele><time>2026-03-23T17:15:01Z</time></trkpt><trkpt lat="47.27049043406478" lon="-1.6183654591456227"><ele>43.666666666666664</ele><time>2026-03-23T17:15:03Z</time></trkpt><trkpt lat="47.27042195391587" lon="-1.6182647086695006"><ele>43.83333333333333</ele><time>2026-03-23T17:15:05Z</time></trkpt><trkpt lat="47.27035850290886" lon="-1.618221290411072"><ele>44.0</ele><time>2026-03-23T17:15:07Z</time></trkpt><trkpt lat="47.2703065351092" lon="-1.618155324833112"><ele>44.0</ele><time>2026-03-23T17:15:09Z</time></trkpt><trkpt lat="47.27024308410219" lon="-1.6180553287282753"><ele>44.0</ele><time>2026-03-23T17:15:11Z</time></trkpt><trkpt lat="47.27018713489852" lon="-1.6179502196625042"><ele>44.0</ele><time>2026-03-23T17:15:13Z</time></trkpt><trkpt lat="47.2701424174451" lon="-1.6178071405753658"><ele>44.0</ele><time>2026-03-23T17:15:15Z</time></trkpt><trkpt lat="47.27008697115562" lon="-1.617707563565688"><ele>44.0</ele><time>2026-03-23T17:15:17Z</time></trkpt><trkpt lat="47.27003579963676" lon="-1.6175965033486648"><ele>44.666666666666664</ele><time>2026-03-23T17:15:19Z</time></trkpt><trkpt lat="47.269993051930584" lon="-1.6174962557867332"><ele>45.33333333333333</ele><time>2026-03-23T17:15:21Z</time></trkpt><trkpt lat="47.269961577884175" lon="-1.6174013726428313"><ele>46.0</ele><time>2026-03-23T17:15:23Z</time></trkpt><trkpt lat="47.26991975218735" lon="-1.6173022147283118"><ele>46.666666666666664</ele><time>2026-03-23T17:15:25Z</time></trkpt><trkpt lat="47.269875663376666" lon="-1.6171867959216397"><ele>47.333333333333336</ele><time>2026-03-23T17:15:27Z</time></trkpt><trkpt lat="47.26983572360805" lon="-1.617079423742012"><ele>48.0</ele><time>2026-03-23T17:15:29Z</time></trkpt><trkpt lat="47.269804668656796" lon="-1.6169738117620507"><ele>48.0</ele><time>2026-03-23T17:15:31Z</time></trkpt><trkpt lat="47.26978308525613" lon="-1.6168550401941097"><ele>48.0</ele><time>2026-03-23T17:15:33Z</time></trkpt><trkpt lat="47.2697708476775" lon="-1.6167485900238312"><ele>48.0</ele><time>2026-03-23T17:15:35Z</time></trkpt><trkpt lat="47.26975655653259" lon="-1.6165827121600662"><ele>48.0</ele><time>2026-03-23T17:15:38Z</time></trkpt><trkpt lat="47.269747420258135" lon="-1.6164461709574018"><ele>48.0</ele><time>2026-03-23T17:15:40Z</time></trkpt><trkpt lat="47.26972835142842" lon="-1.61630879156442"><ele>48.0</ele><time>2026-03-23T17:15:42Z</time></trkpt><trkpt lat="47.26971649103543" lon="-1.6161548160031587"><ele>48.0</ele><time>2026-03-23T17:15:45Z</time></trkpt><trkpt lat="47.26968987849286" lon="-1.6160302609220296"><ele>48.0</ele><time>2026-03-23T17:15:47Z</time></trkpt><trkpt lat="47.269676593176335" lon="-1.6159276664272098"><ele>48.0</ele><time>2026-03-23T17:15:49Z</time></trkpt><trkpt lat="47.26965304002842" lon="-1.615793891252592"><ele>48.0</ele><time>2026-03-23T17:15:52Z</time></trkpt><trkpt lat="47.2696212726154" lon="-1.6156729403898265"><ele>48.0</ele><time>2026-03-23T17:15:54Z</time></trkpt><trkpt lat="47.26959264841607" lon="-1.615544697271302"><ele>48.333333333333336</ele><time>2026-03-23T17:15:56Z</time></trkpt><trkpt lat="47.2695729090341" lon="-1.6154092457160496"><ele>48.66666666666667</ele><time>2026-03-23T17:15:58Z</time></trkpt><trkpt lat="47.269563186026424" lon="-1.61528075114043"><ele>49.0</ele><time>2026-03-23T17:16:00Z</time></trkpt><trkpt lat="47.26956184492192" lon="-1.6151572018876812"><ele>49.333333333333336</ele><time>2026-03-23T17:16:02Z</time></trkpt><trkpt lat="47.269561467736274" lon="-1.6150608938202402"><ele>49.66666666666667</ele><time>2026-03-23T17:16:04Z</time></trkpt><trkpt lat="47.26954231508753" lon="-1.6148996260032196"><ele>50.0</ele><time>2026-03-23T17:16:06Z</time></trkpt><trkpt lat="47.26953058042309" lon="-1.6147562116399545"><ele>50.50000000000001</ele><time>2026-03-23T17:16:08Z</time></trkpt><trkpt lat="47.26954453629187" lon="-1.6146241966650026"><ele>51.0</ele><time>2026-03-23T17:16:10Z</time></trkpt><trkpt lat="47.2695689276301" lon="-1.6145033296212687"><ele>51.5</ele><time>2026-03-23T17:16:12Z</time></trkpt><trkpt lat="47.26962487683377" lon="-1.614410458134128"><ele>52.0</ele><time>2026-03-23T17:16:14Z</time></trkpt><trkpt lat="47.2697018646144" lon="-1.6143834684059157"><ele>52.50000000000001</ele><time>2026-03-23T17:16:16Z</time></trkpt><trkpt lat="47.26976456125012" lon="-1.6143183410182729"><ele>53.0</ele><time>2026-03-23T17:16:18Z</time></trkpt><trkpt lat="47.269801441624075" lon="-1.6142215300366414"><ele>53.2</ele><time>2026-03-23T17:16:20Z</time></trkpt><trkpt lat="47.26983065255663" lon="-1.6141064465060961"><ele>53.4</ele><time>2026-03-23T17:16:22Z</time></trkpt><trkpt lat="47.26982809607616" lon="-1.6139781195685396"><ele>53.60000000000001</ele><time>2026-03-23T17:16:24Z</time></trkpt><trkpt lat="47.26978509691289" lon="-1.613867562265707"><ele>53.800000000000004</ele><time>2026-03-23T17:16:26Z</time></trkpt><trkpt lat="47.26968141277066" lon="-1.6137988306597002"><ele>54.0</ele><time>2026-03-23T17:16:28Z</time></trkpt><trkpt lat="47.26958933756432" lon="-1.6137867607191332"><ele>54.0</ele><time>2026-03-23T17:16:30Z</time></trkpt><trkpt lat="47.26950807501307" lon="-1.6137348767385014"><ele>54.0</ele><time>2026-03-23T17:16:32Z</time></trkpt><trkpt lat="47.269446509934276" lon="-1.613641921432329"><ele>54.0</ele><time>2026-03-23T17:16:34Z</time></trkpt><trkpt lat="47.26941440724513" lon="-1.6135582700386768"><ele>54.0</ele><time>2026-03-23T17:16:35Z</time></trkpt><trkpt lat="47.269372874914914" lon="-1.6134187951699024"><ele>54.0</ele><time>2026-03-23T17:16:37Z</time></trkpt><trkpt lat="47.269351626790375" lon="-1.6133238282069686"><ele>54.0</ele><time>2026-03-23T17:16:38Z</time></trkpt><trkpt lat="47.269336245998055" lon="-1.6132244188353542"><ele>54.2</ele><time>2026-03-23T17:16:39Z</time></trkpt><trkpt lat="47.26931202229789" lon="-1.613039178775263"><ele>54.400000000000006</ele><time>2026-03-23T17:16:41Z</time></trkpt><trkpt lat="47.26929701869121" lon="-1.612933399157238"><ele>54.6</ele><time>2026-03-23T17:16:42Z</time></trkpt><trkpt lat="47.26927753076634" lon="-1.6128346603378771"><ele>54.8</ele><time>2026-03-23T17:16:43Z</time></trkpt><trkpt lat="47.26926231761208" lon="-1.6127321496620892"><ele>55.0</ele><time>2026-03-23T17:16:44Z</time></trkpt><trkpt lat="47.26922761653295" lon="-1.6125425510123488"><ele>54.6</ele><time>2026-03-23T17:16:46Z</time></trkpt><trkpt lat="47.26920112971893" lon="-1.612363932655763"><ele>54.2</ele><time>2026-03-23T17:16:48Z</time></trkpt><trkpt lat="47.26919081997803" lon="-1.6122621763512606"><ele>53.8</ele><time>2026-03-23T17:16:49Z</time></trkpt><trkpt lat="47.269173343709916" lon="-1.6121696401402468"><ele>53.4</ele><time>2026-03-23T17:16:50Z</time></trkpt><trkpt lat="47.26914434232494" lon="-1.611984819175314"><ele>53.0</ele><time>2026-03-23T17:16:52Z</time></trkpt><trkpt lat="47.269133194393724" lon="-1.6118739265963544"><ele>52.85714285714286</ele><time>2026-03-23T17:16:53Z</time></trkpt><trkpt lat="47.26911420938304" lon="-1.611763034017395"><ele>52.71428571428571</ele><time>2026-03-23T17:16:54Z</time></trkpt><trkpt lat="47.26909308698705" lon="-1.6116402391359317"><ele>52.57142857142857</ele><time>2026-03-23T17:16:55Z</time></trkpt><trkpt lat="47.269086255735964" lon="-1.6115435119733321"><ele>52.42857142857143</ele><time>2026-03-23T17:16:56Z</time></trkpt><trkpt lat="47.26908386689356" lon="-1.611443096773337"><ele>52.28571428571429</ele><time>2026-03-23T17:16:57Z</time></trkpt><trkpt lat="47.269069450020105" lon="-1.6113400831833586"><ele>52.14285714285714</ele><time>2026-03-23T17:16:58Z</time></trkpt><trkpt lat="47.269059433645815" lon="-1.6112465411439643"><ele>52.0</ele><time>2026-03-23T17:16:59Z</time></trkpt><trkpt lat="47.269043047025114" lon="-1.6111370734885437"><ele>51.99999999999999</ele><time>2026-03-23T17:17:00Z</time></trkpt><trkpt lat="47.269034036479205" lon="-1.6110449563726885"><ele>52.0</ele><time>2026-03-23T17:17:01Z</time></trkpt><trkpt lat="47.269029677889556" lon="-1.6109429486110909"><ele>52.0</ele><time>2026-03-23T17:17:02Z</time></trkpt><trkpt lat="47.269038395068854" lon="-1.6107976064100962"><ele>52.0</ele><time>2026-03-23T17:17:04Z</time></trkpt><trkpt lat="47.268988606564015" lon="-1.6107059922084312"><ele>51.99999999999999</ele><time>2026-03-23T17:17:08Z</time></trkpt><trkpt lat="47.26888852664015" lon="-1.6106816846892336"><ele>52.0</ele><time>2026-03-23T17:17:11Z</time></trkpt><trkpt lat="47.26885663349858" lon="-1.6105747316047647"><ele>52.0</ele><time>2026-03-23T17:17:13Z</time></trkpt><trkpt lat="47.26883727130225" lon="-1.610467443244169"><ele>52.0</ele><time>2026-03-23T17:17:15Z</time></trkpt><trkpt lat="47.26878245365551" lon="-1.61033752374501"><ele>52.0</ele><time>2026-03-23T17:17:17Z</time></trkpt><trkpt lat="47.26878358521244" lon="-1.6101674549296592"><ele>52.0</ele><time>2026-03-23T17:17:19Z</time></trkpt><trkpt lat="47.26878890772095" lon="-1.6100060194745753"><ele>52.0</ele><time>2026-03-23T17:17:21Z</time></trkpt><trkpt lat="47.26878853053531" lon="-1.6098500322565528"><ele>51.83333333333333</ele><time>2026-03-23T17:17:23Z</time></trkpt><trkpt lat="47.26876518693498" lon="-1.6096883453443736"><ele>51.666666666666664</ele><time>2026-03-23T17:17:25Z</time></trkpt><trkpt lat="47.268771179995746" lon="-1.6095208749190062"><ele>51.5</ele><time>2026-03-23T17:17:27Z</time></trkpt><trkpt lat="47.268755002922624" lon="-1.6094247344896284"><ele>51.33333333333333</ele><time>2026-03-23T17:17:28Z</time></trkpt><trkpt lat="47.26872792937538" lon="-1.6093205474332062"><ele>51.166666666666664</ele><time>2026-03-23T17:17:29Z</time></trkpt><trkpt lat="47.268713302954346" lon="-1.6092239040896381"><ele>51.0</ele><time>2026-03-23T17:17:30Z</time></trkpt><trkpt lat="47.26868354719809" lon="-1.6090550925597633"><ele>51.599999999999994</ele><time>2026-03-23T17:17:32Z</time></trkpt><trkpt lat="47.26863727909258" lon="-1.6089488938465797"><ele>52.2</ele><time>2026-03-23T17:17:33Z</time></trkpt><trkpt lat="47.268623071766704" lon="-1.6088530048742973"><ele>52.800000000000004</ele><time>2026-03-23T17:17:34Z</time></trkpt><trkpt lat="47.2685931902819" lon="-1.6087332274779758"><ele>53.400000000000006</ele><time>2026-03-23T17:17:35Z</time></trkpt><trkpt lat="47.2685757559233" lon="-1.6085542738452632"><ele>54.0</ele><time>2026-03-23T17:17:37Z</time></trkpt><trkpt lat="47.268558405383736" lon="-1.6083660163000304"><ele>54.0</ele><time>2026-03-23T17:17:39Z</time></trkpt><trkpt lat="47.268550316847175" lon="-1.6082656849190669"><ele>54.0</ele><time>2026-03-23T17:17:40Z</time></trkpt><trkpt lat="47.2685387498208" lon="-1.6081619169578032"><ele>54.0</ele><time>2026-03-23T17:17:41Z</time></trkpt><trkpt lat="47.26854331795803" lon="-1.6080522816643192"><ele>54.0</ele><time>2026-03-23T17:17:42Z</time></trkpt><trkpt lat="47.26852458440444" lon="-1.607946921141453"><ele>54.0</ele><time>2026-03-23T17:17:43Z</time></trkpt><trkpt lat="47.268518046519965" lon="-1.607844410465665"><ele>54.0</ele><time>2026-03-23T17:17:44Z</time></trkpt><trkpt lat="47.268502875275225" lon="-1.6077367030099106"><ele>54.0</ele><time>2026-03-23T17:17:45Z</time></trkpt><trkpt lat="47.268481124236494" lon="-1.607635868714757"><ele>53.800000000000004</ele><time>2026-03-23T17:17:46Z</time></trkpt><trkpt lat="47.268478483936995" lon="-1.6074359603241155"><ele>53.60000000000001</ele><time>2026-03-23T17:17:48Z</time></trkpt><trkpt lat="47.26846389942548" lon="-1.6072866786286302"><ele>53.4</ele><time>2026-03-23T17:17:49Z</time></trkpt><trkpt lat="47.268452877222806" lon="-1.6071793902680345"><ele>53.2</ele><time>2026-03-23T17:17:50Z</time></trkpt><trkpt lat="47.26842362438074" lon="-1.6070171166226332"><ele>53.0</ele><time>2026-03-23T17:17:52Z</time></trkpt><trkpt lat="47.26840174761346" lon="-1.6068902146086161"><ele>53.16666666666667</ele><time>2026-03-23T17:17:53Z</time></trkpt><trkpt lat="47.26838603154501" lon="-1.6067768912777367"><ele>53.333333333333336</ele><time>2026-03-23T17:17:54Z</time></trkpt><trkpt lat="47.26836721417239" lon="-1.6066375840470255"><ele>53.5</ele><time>2026-03-23T17:17:55Z</time></trkpt><trkpt lat="47.26836813618174" lon="-1.6065235063448609"><ele>53.66666666666667</ele><time>2026-03-23T17:17:56Z</time></trkpt><trkpt lat="47.2683418589153" lon="-1.6063774097725807"><ele>53.833333333333336</ele><time>2026-03-23T17:17:57Z</time></trkpt><trkpt lat="47.268319437324315" lon="-1.6062594763949571"><ele>54.0</ele><time>2026-03-23T17:17:58Z</time></trkpt><trkpt lat="47.2682985244759" lon="-1.6061391960844453"><ele>54.0</ele><time>2026-03-23T17:17:59Z</time></trkpt><trkpt lat="47.268292238048524" lon="-1.6060231067255195"><ele>54.0</ele><time>2026-03-23T17:18:00Z</time></trkpt><trkpt lat="47.268259129530996" lon="-1.6059144772604161"><ele>54.0</ele><time>2026-03-23T17:18:01Z</time></trkpt><trkpt lat="47.2682070779123" lon="-1.6058182530120069"><ele>54.0</ele><time>2026-03-23T17:18:02Z</time></trkpt><trkpt lat="47.26819320586255" lon="-1.6056550573572568"><ele>54.0</ele><time>2026-03-23T17:18:05Z</time></trkpt><trkpt lat="47.26817673542282" lon="-1.60555455833823"><ele>54.0</ele><time>2026-03-23T17:18:06Z</time></trkpt><trkpt lat="47.26818796717307" lon="-1.6054267343148638"><ele>53.0</ele><time>2026-03-23T17:18:07Z</time></trkpt><trkpt lat="47.268163743472904" lon="-1.6052910313025166"><ele>52.00000000000001</ele><time>2026-03-23T17:18:08Z</time></trkpt><trkpt lat="47.268201462037176" lon="-1.6051324456945109"><ele>51.0</ele><time>2026-03-23T17:18:09Z</time></trkpt><trkpt lat="47.26818260275504" lon="-1.6050209663823294"><ele>50.0</ele><time>2026-03-23T17:18:10Z</time></trkpt><trkpt lat="47.2681621509113" lon="-1.6049063857659742"><ele>49.0</ele><time>2026-03-23T17:18:11Z</time></trkpt><trkpt lat="47.268136711835176" lon="-1.6047882847502872"><ele>48.99999999999999</ele><time>2026-03-23T17:18:12Z</time></trkpt><trkpt lat="47.26809652060947" lon="-1.6046747099623127"><ele>49.0</ele><time>2026-03-23T17:18:13Z</time></trkpt><trkpt lat="47.26807627831331" lon="-1.6045582015082283"><ele>49.0</ele><time>2026-03-23T17:18:14Z</time></trkpt><trkpt lat="47.26805980787358" lon="-1.6044577024892013"><ele>49.0</ele><time>2026-03-23T17:18:15Z</time></trkpt><trkpt lat="47.26804610346189" lon="-1.604367094115917"><ele>48.99999999999999</ele><time>2026-03-23T17:18:16Z</time></trkpt><trkpt lat="47.26804622919044" lon="-1.6042556148037352"><ele>49.0</ele><time>2026-03-23T17:18:17Z</time></trkpt><trkpt lat="47.26803478789261" lon="-1.6041397769019046"><ele>49.400000000000006</ele><time>2026-03-23T17:18:18Z</time></trkpt><trkpt lat="47.26795264524153" lon="-1.6040139645352995"><ele>49.8</ele><time>2026-03-23T17:18:19Z</time></trkpt><trkpt lat="47.26793081038377" lon="-1.6039156448110974"><ele>50.2</ele><time>2026-03-23T17:18:20Z</time></trkpt><trkpt lat="47.267902814827174" lon="-1.6037268005326424"><ele>50.599999999999994</ele><time>2026-03-23T17:18:22Z</time></trkpt><trkpt lat="47.26785851646891" lon="-1.6036376170828972"><ele>51.0</ele><time>2026-03-23T17:18:23Z</time></trkpt><trkpt lat="47.26783697497776" lon="-1.6035352740451725"><ele>51.0</ele><time>2026-03-23T17:18:24Z</time></trkpt><trkpt lat="47.26781643931499" lon="-1.603426141665879"><ele>51.0</ele><time>2026-03-23T17:18:25Z</time></trkpt><trkpt lat="47.267788276120335" lon="-1.603314829991761"><ele>51.0</ele><time>2026-03-23T17:18:26Z</time></trkpt><trkpt lat="47.26776878819546" lon="-1.6032006684705644"><ele>51.0</ele><time>2026-03-23T17:18:27Z</time></trkpt><trkpt lat="47.26773199164054" lon="-1.6031163465246587"><ele>51.0</ele><time>2026-03-23T17:18:28Z</time></trkpt><trkpt lat="47.26771434773436" lon="-1.6030123271062997"><ele>51.0</ele><time>2026-03-23T17:18:29Z</time></trkpt><trkpt lat="47.26768580735406" lon="-1.6029010992512134"><ele>50.4</ele><time>2026-03-23T17:18:30Z</time></trkpt><trkpt lat="47.2676631762155" lon="-1.6027886979296828"><ele>49.8</ele><time>2026-03-23T17:18:31Z</time></trkpt><trkpt lat="47.26760517344555" lon="-1.6026065591737653"><ele>49.199999999999996</ele><time>2026-03-23T17:18:33Z</time></trkpt><trkpt lat="47.26758145265958" lon="-1.6024922300145052"><ele>48.599999999999994</ele><time>2026-03-23T17:18:34Z</time></trkpt><trkpt lat="47.26755894724956" lon="-1.602373290808501"><ele>48.0</ele><time>2026-03-23T17:18:35Z</time></trkpt><trkpt lat="47.26751150567761" lon="-1.6022603865727802"><ele>48.0</ele><time>2026-03-23T17:18:36Z</time></trkpt><trkpt lat="47.26747005716643" lon="-1.6021548584118506"><ele>48.0</ele><time>2026-03-23T17:18:37Z</time></trkpt><trkpt lat="47.267436403825194" lon="-1.6020672675237078"><ele>48.0</ele><time>2026-03-23T17:18:38Z</time></trkpt><trkpt lat="47.26740425922653" lon="-1.6019684448853153"><ele>48.0</ele><time>2026-03-23T17:18:39Z</time></trkpt><trkpt lat="47.267368091314346" lon="-1.6018666047617809"><ele>48.0</ele><time>2026-03-23T17:18:40Z</time></trkpt><trkpt lat="47.26731918290934" lon="-1.6017785947784797"><ele>48.0</ele><time>2026-03-23T17:18:41Z</time></trkpt><trkpt lat="47.26728226062587" lon="-1.601690752433242"><ele>46.4</ele><time>2026-03-23T17:18:42Z</time></trkpt><trkpt lat="47.267198525413185" lon="-1.601583212615551"><ele>44.8</ele><time>2026-03-23T17:18:44Z</time></trkpt><trkpt lat="47.2671356611394" lon="-1.6015087813153877"><ele>43.2</ele><time>2026-03-23T17:18:46Z</time></trkpt><trkpt lat="47.267174343622536" lon="-1.6013760119691502"><ele>41.6</ele><time>2026-03-23T17:18:50Z</time></trkpt><trkpt lat="47.26723683071068" lon="-1.6012923605754983"><ele>40.0</ele><time>2026-03-23T17:18:52Z</time></trkpt><trkpt lat="47.26726214405826" lon="-1.601187000052632"><ele>39.8</ele><time>2026-03-23T17:18:54Z</time></trkpt><trkpt lat="47.26723997392437" lon="-1.601053224878014"><ele>39.6</ele><time>2026-03-23T17:18:56Z</time></trkpt><trkpt lat="47.26723871663889" lon="-1.6009307652726779"><ele>39.4</ele><time>2026-03-23T17:18:58Z</time></trkpt><trkpt lat="47.2672064882212" lon="-1.6007938049748547"><ele>39.2</ele><time>2026-03-23T17:19:01Z</time></trkpt><trkpt lat="47.26712849461219" lon="-1.6007125843331225"><ele>39.0</ele><time>2026-03-23T17:19:03Z</time></trkpt><trkpt lat="47.26704911798915" lon="-1.6006420925274496"><ele>39.0</ele><time>2026-03-23T17:19:05Z</time></trkpt><trkpt lat="47.2669800091975" lon="-1.6005596984192734"><ele>39.0</ele><time>2026-03-23T17:19:07Z</time></trkpt><trkpt lat="47.26690658372572" lon="-1.6004659049227838"><ele>39.0</ele><time>2026-03-23T17:19:09Z</time></trkpt><trkpt lat="47.266825195445925" lon="-1.6003752127304676"><ele>39.0</ele><time>2026-03-23T17:19:11Z</time></trkpt><trkpt lat="47.266779681711704" lon="-1.6002957522884014"><ele>39.0</ele><time>2026-03-23T17:19:12Z</time></trkpt><trkpt lat="47.26668685213408" lon="-1.6002232488259676"><ele>39.166666666666664</ele><time>2026-03-23T17:19:14Z</time></trkpt><trkpt lat="47.26661401339552" lon="-1.6001684311792255"><ele>39.333333333333336</ele><time>2026-03-23T17:19:15Z</time></trkpt><trkpt lat="47.26656120740554" lon="-1.6001059021815658"><ele>39.5</ele><time>2026-03-23T17:19:16Z</time></trkpt><trkpt lat="47.26650320463559" lon="-1.6000336501762271"><ele>39.66666666666667</ele><time>2026-03-23T17:19:17Z</time></trkpt><trkpt lat="47.266434473029584" lon="-1.5999643318369983"><ele>39.833333333333336</ele><time>2026-03-23T17:19:18Z</time></trkpt><trkpt lat="47.26638028402558" lon="-1.599900797010958"><ele>40.0</ele><time>2026-03-23T17:19:19Z</time></trkpt><trkpt lat="47.26629877001724" lon="-1.5998075064286588"><ele>39.8</ele><time>2026-03-23T17:19:20Z</time></trkpt><trkpt lat="47.266204808882684" lon="-1.5996323246523734"><ele>39.6</ele><time>2026-03-23T17:19:22Z</time></trkpt><trkpt lat="47.26614492018452" lon="-1.599555881695449"><ele>39.4</ele><time>2026-03-23T17:19:23Z</time></trkpt><trkpt lat="47.26608964153311" lon="-1.5994174964740866"><ele>39.2</ele><time>2026-03-23T17:19:24Z</time></trkpt><trkpt lat="47.26601776671341" lon="-1.5993333421662443"><ele>39.0</ele><time>2026-03-23T17:19:25Z</time></trkpt><trkpt lat="47.26594999902627" lon="-1.5992502775058142"><ele>39.0</ele><time>2026-03-23T17:19:26Z</time></trkpt><trkpt lat="47.26587703455916" lon="-1.5992446616306892"><ele>39.0</ele><time>2026-03-23T17:19:27Z</time></trkpt><trkpt lat="47.26581236817619" lon="-1.599178193138539"><ele>39.0</ele><time>2026-03-23T17:19:28Z</time></trkpt><trkpt lat="47.26574724078855" lon="-1.5991174243405453"><ele>39.0</ele><time>2026-03-23T17:19:29Z</time></trkpt><trkpt lat="47.265674946873695" lon="-1.599041232840716"><ele>39.0</ele><time>2026-03-23T17:19:30Z</time></trkpt><trkpt lat="47.26561891385099" lon="-1.5989262331292022"><ele>39.0</ele><time>2026-03-23T17:19:31Z</time></trkpt><trkpt lat="47.26554955360225" lon="-1.5988447610303749"><ele>38.0</ele><time>2026-03-23T17:19:32Z</time></trkpt><trkpt lat="47.2654762119495" lon="-1.5987590979799615"><ele>37.0</ele><time>2026-03-23T17:19:33Z</time></trkpt><trkpt lat="47.26537370127371" lon="-1.598711237312852"><ele>36.0</ele><time>2026-03-23T17:19:34Z</time></trkpt><trkpt lat="47.26529952143064" lon="-1.598641164602338"><ele>35.0</ele><time>2026-03-23T17:19:35Z</time></trkpt><trkpt lat="47.26522689223966" lon="-1.5985500533148633"><ele>34.0</ele><time>2026-03-23T17:19:36Z</time></trkpt><trkpt lat="47.265138924165875" lon="-1.59840429201871"><ele>33.6</ele><time>2026-03-23T17:19:37Z</time></trkpt><trkpt lat="47.265078113458365" lon="-1.5983146894738063"><ele>33.2</ele><time>2026-03-23T17:19:38Z</time></trkpt><trkpt lat="47.26502593611112" lon="-1.5982309542611224"><ele>32.800000000000004</ele><time>2026-03-23T17:19:39Z</time></trkpt><trkpt lat="47.26495129526338" lon="-1.5981422737255675"><ele>32.4</ele><time>2026-03-23T17:19:40Z</time></trkpt><trkpt lat="47.26488784425637" lon="-1.5979969315245728"><ele>32.0</ele><time>2026-03-23T17:19:41Z</time></trkpt><trkpt lat="47.26483197887173" lon="-1.597879920156298"><ele>31.166666666666664</ele><time>2026-03-23T17:19:42Z</time></trkpt><trkpt lat="47.26477523338726" lon="-1.5977874677643158"><ele>30.333333333333332</ele><time>2026-03-23T17:19:43Z</time></trkpt><trkpt lat="47.26472125393084" lon="-1.5976743120715"><ele>29.5</ele><time>2026-03-23T17:19:44Z</time></trkpt><trkpt lat="47.26467800331047" lon="-1.5975410398110723"><ele>28.666666666666664</ele><time>2026-03-23T17:19:45Z</time></trkpt><trkpt lat="47.26463701580396" lon="-1.597421849147973"><ele>27.833333333333332</ele><time>2026-03-23T17:19:46Z</time></trkpt><trkpt lat="47.264600973620325" lon="-1.5973236132428024"><ele>27.0</ele><time>2026-03-23T17:19:47Z</time></trkpt><trkpt lat="47.264457642629445" lon="-1.5973321526245268"><ele>27.0</ele><time>2026-03-23T17:19:48Z</time></trkpt><trkpt lat="47.264370944272926" lon="-1.5972961898179487"><ele>27.0</ele><time>2026-03-23T17:19:50Z</time></trkpt><trkpt lat="47.264292026647844" lon="-1.5971763977663707"><ele>27.0</ele><time>2026-03-23T17:19:52Z</time></trkpt><trkpt lat="47.26424024941874" lon="-1.5970884686019056"><ele>27.0</ele><time>2026-03-23T17:19:53Z</time></trkpt><trkpt lat="47.26419492666943" lon="-1.597007253298168"><ele>27.0</ele><time>2026-03-23T17:19:54Z</time></trkpt><trkpt lat="47.26415077179881" lon="-1.5969281871473504"><ele>27.0</ele><time>2026-03-23T17:19:55.001Z</time></trkpt><trkpt lat="47.264072662700386" lon="-1.5967976316566228"><ele>26.6</ele><time>2026-03-23T17:19:57Z</time></trkpt><trkpt lat="47.26402158228521" lon="-1.5967346567538332"><ele>26.200000000000003</ele><time>2026-03-23T17:19:58Z</time></trkpt><trkpt lat="47.26389023104272" lon="-1.5964944707363402"><ele>25.8</ele><time>2026-03-23T17:20:00Z</time></trkpt><trkpt lat="47.26383817795293" lon="-1.5964029641024327"><ele>25.4</ele><time>2026-03-23T17:20:01Z</time></trkpt><trkpt lat="47.26379325973391" lon="-1.5963241097880514"><ele>25.0</ele><time>2026-03-23T17:20:02Z</time></trkpt><trkpt lat="47.263743039102245" lon="-1.5962361019095481"><ele>25.333333333333336</ele><time>2026-03-23T17:20:03Z</time></trkpt><trkpt lat="47.26369477596853" lon="-1.5961515244028504"><ele>25.666666666666668</ele><time>2026-03-23T17:20:04Z</time></trkpt><trkpt lat="47.2636512604625" lon="-1.5960752667560967"><ele>26.0</ele><time>2026-03-23T17:20:05Z</time></trkpt><trkpt lat="47.26360898030627" lon="-1.5960011739660527"><ele>26.333333333333336</ele><time>2026-03-23T17:20:06Z</time></trkpt><trkpt lat="47.26352612777559" lon="-1.5958559811449018"><ele>26.666666666666668</ele><time>2026-03-23T17:20:08Z</time></trkpt><trkpt lat="47.26345841207851" lon="-1.5957373144864926"><ele>27.0</ele><time>2026-03-23T17:20:10Z</time></trkpt><trkpt lat="47.26341589962774" lon="-1.5956628146180458"><ele>27.0</ele><time>2026-03-23T17:20:11Z</time></trkpt><trkpt lat="47.26335153574013" lon="-1.595549995426105"><ele>27.000000000000004</ele><time>2026-03-23T17:20:13Z</time></trkpt><trkpt lat="47.26329887470354" lon="-1.5954574117969933"><ele>27.000000000000004</ele><time>2026-03-23T17:20:15Z</time></trkpt><trkpt lat="47.263234784411296" lon="-1.5953447343379785"><ele>27.0</ele><time>2026-03-23T17:20:17Z</time></trkpt><trkpt lat="47.26315394830638" lon="-1.5952023083484126"><ele>27.0</ele><time>2026-03-23T17:20:19Z</time></trkpt><trkpt lat="47.263091566450626" lon="-1.5950923613179457"><ele>27.0</ele><time>2026-03-23T17:20:21Z</time></trkpt><trkpt lat="47.263034590059135" lon="-1.5949919413249705"><ele>27.000000000000004</ele><time>2026-03-23T17:20:23Z</time></trkpt><trkpt lat="47.262964261470465" lon="-1.5948679882946593"><ele>27.000000000000004</ele><time>2026-03-23T17:20:25Z</time></trkpt><trkpt lat="47.26290533685607" lon="-1.5947641920115032"><ele>27.0</ele><time>2026-03-23T17:20:27Z</time></trkpt><trkpt lat="47.26286103416122" lon="-1.5946861722850443"><ele>27.0</ele><time>2026-03-23T17:20:29Z</time></trkpt><trkpt lat="47.262786965101064" lon="-1.594555732189299"><ele>27.666666666666664</ele><time>2026-03-23T17:20:31Z</time></trkpt><trkpt lat="47.26272750865577" lon="-1.594452285945074"><ele>28.333333333333332</ele><time>2026-03-23T17:20:33Z</time></trkpt><trkpt lat="47.2626534247435" lon="-1.5943247806382668"><ele>29.0</ele><time>2026-03-23T17:20:35Z</time></trkpt><trkpt lat="47.262467046630725" lon="-1.5940491950937663"><ele>29.0</ele><time>2026-03-23T17:20:37Z</time></trkpt><trkpt lat="47.26247627600806" lon="-1.593912817965424"><ele>29.0</ele><time>2026-03-23T17:20:38Z</time></trkpt><trkpt lat="47.2624132110571" lon="-1.5938894313230838"><ele>29.0</ele><time>2026-03-23T17:20:46Z</time></trkpt><trkpt lat="47.26248533935031" lon="-1.5936881303802073"><ele>29.0</ele><time>2026-03-23T17:20:48Z</time></trkpt><trkpt lat="47.26245235656133" lon="-1.593542704360181"><ele>29.0</ele><time>2026-03-23T17:20:49Z</time></trkpt><trkpt lat="47.26242201407185" lon="-1.5934542752817211"><ele>28.999999999999996</ele><time>2026-03-23T17:20:50Z</time></trkpt><trkpt lat="47.26238270294598" lon="-1.5933171473458347"><ele>29.0</ele><time>2026-03-23T17:20:53Z</time></trkpt><trkpt lat="47.26232109595767" lon="-1.5932161454126175"><ele>29.0</ele><time>2026-03-23T17:20:55Z</time></trkpt><trkpt lat="47.262295405424446" lon="-1.5931236092016037"><ele>29.0</ele><time>2026-03-23T17:20:57Z</time></trkpt><trkpt lat="47.26226238072595" lon="-1.5930278040483528"><ele>28.999999999999996</ele><time>2026-03-23T17:20:59Z</time></trkpt><trkpt lat="47.26220865272662" lon="-1.592930573971563"><ele>29.0</ele><time>2026-03-23T17:21:00Z</time></trkpt><trkpt lat="47.26213493388822" lon="-1.5927729941919377"><ele>29.0</ele><time>2026-03-23T17:21:02Z</time></trkpt><trkpt lat="47.262106644965016" lon="-1.5926874149605563"><ele>29.0</ele><time>2026-03-23T17:21:03Z</time></trkpt><trkpt lat="47.262061717964016" lon="-1.5925127360984612"><ele>29.0</ele><time>2026-03-23T17:21:05Z</time></trkpt><trkpt lat="47.26203317758372" lon="-1.5923783741906214"><ele>29.0</ele><time>2026-03-23T17:21:07Z</time></trkpt><trkpt lat="47.26201360583981" lon="-1.5922446828350352"><ele>29.0</ele><time>2026-03-23T17:21:09Z</time></trkpt><trkpt lat="47.26198502355" lon="-1.59213840030282"><ele>28.999999999999996</ele><time>2026-03-23T17:21:11Z</time></trkpt><trkpt lat="47.26195233412763" lon="-1.5920556709185167"><ele>29.0</ele><time>2026-03-23T17:21:14Z</time></trkpt><trkpt lat="47.261862102939986" lon="-1.591857606546573"><ele>29.0</ele><time>2026-03-23T17:21:17Z</time></trkpt><trkpt lat="47.26182212126186" lon="-1.5917802415802997"><ele>29.0</ele><time>2026-03-23T17:21:18Z</time></trkpt><trkpt lat="47.26177606270393" lon="-1.5916851069793028"><ele>28.999999999999996</ele><time>2026-03-23T17:21:19Z</time></trkpt><trkpt lat="47.261737254492246" lon="-1.5915917325779716"><ele>29.0</ele><time>2026-03-23T17:21:20Z</time></trkpt><trkpt lat="47.2616655054011" lon="-1.591465249659113"><ele>29.4</ele><time>2026-03-23T17:21:22Z</time></trkpt><trkpt lat="47.26169320759108" lon="-1.5913784969612874"><ele>29.799999999999997</ele><time>2026-03-23T17:21:23Z</time></trkpt><trkpt lat="47.261663200377726" lon="-1.5912408661112107"><ele>30.200000000000003</ele><time>2026-03-23T17:21:24Z</time></trkpt><trkpt lat="47.26165645294567" lon="-1.5910370182260787"><ele>30.6</ele><time>2026-03-23T17:21:25Z</time></trkpt><trkpt lat="47.26159316957673" lon="-1.5909414645299231"><ele>31.0</ele><time>2026-03-23T17:21:27Z</time></trkpt><trkpt lat="47.261567898138665" lon="-1.590845743195704"><ele>31.200000000000003</ele><time>2026-03-23T17:21:30Z</time></trkpt><trkpt lat="47.26156651512464" lon="-1.5905848983690054"><ele>31.400000000000002</ele><time>2026-03-23T17:21:31Z</time></trkpt><trkpt lat="47.261524186513626" lon="-1.5904900990441353"><ele>31.6</ele><time>2026-03-23T17:21:32Z</time></trkpt><trkpt lat="47.26146584846755" lon="-1.5903927851483135"><ele>31.8</ele><time>2026-03-23T17:21:33Z</time></trkpt><trkpt lat="47.26141161755403" lon="-1.5902728401139288"><ele>32.0</ele><time>2026-03-23T17:21:35Z</time></trkpt><trkpt lat="47.26141723342916" lon="-1.5901140868678596"><ele>32.0</ele><time>2026-03-23T17:21:37Z</time></trkpt><trkpt lat="47.261388818777405" lon="-1.5899783838555124"><ele>32.0</ele><time>2026-03-23T17:21:38Z</time></trkpt><trkpt lat="47.26132804997941" lon="-1.5898381546154523"><ele>32.0</ele><time>2026-03-23T17:21:40Z</time></trkpt><trkpt lat="47.26129829422315" lon="-1.5897423494622016"><ele>32.0</ele><time>2026-03-23T17:21:41Z</time></trkpt><trkpt lat="47.261308981149696" lon="-1.5895813331022761"><ele>32.0</ele><time>2026-03-23T17:21:44Z</time></trkpt><trkpt lat="47.26130147934636" lon="-1.5894757211223145"><ele>32.6</ele><time>2026-03-23T17:21:45Z</time></trkpt><trkpt lat="47.26133982655337" lon="-1.5893903933480282"><ele>33.2</ele><time>2026-03-23T17:21:46Z</time></trkpt><trkpt lat="47.261291085786425" lon="-1.5892870444819232"><ele>33.8</ele><time>2026-03-23T17:21:48Z</time></trkpt><trkpt lat="47.26124167446723" lon="-1.5891596395537155"><ele>34.4</ele><time>2026-03-23T17:21:50Z</time></trkpt><trkpt lat="47.26121053569695" lon="-1.589044639842202"><ele>35.0</ele><time>2026-03-23T17:21:52Z</time></trkpt><trkpt lat="47.26116171111097" lon="-1.5888934303089872"><ele>35.0</ele><time>2026-03-23T17:21:54Z</time></trkpt><trkpt lat="47.26114624649962" lon="-1.58880072645991"><ele>35.0</ele><time>2026-03-23T17:21:55Z</time></trkpt><trkpt lat="47.261130530431174" lon="-1.588681368158747"><ele>35.0</ele><time>2026-03-23T17:21:57Z</time></trkpt><trkpt lat="47.2610988887467" lon="-1.5885383728906406"><ele>35.0</ele><time>2026-03-23T17:21:59Z</time></trkpt><trkpt lat="47.26108866282483" lon="-1.5884198527797948"><ele>35.0</ele><time>2026-03-23T17:22:01Z</time></trkpt><trkpt lat="47.261072737208806" lon="-1.5883052721634399"><ele>35.0</ele><time>2026-03-23T17:22:03Z</time></trkpt><trkpt lat="47.26105915852567" lon="-1.5881797950729617"><ele>35.5</ele><time>2026-03-23T17:22:05Z</time></trkpt><trkpt lat="47.26104499310931" lon="-1.5880597662195453"><ele>36.0</ele><time>2026-03-23T17:22:07Z</time></trkpt><trkpt lat="47.261023032523" lon="-1.5879476163551098"><ele>36.5</ele><time>2026-03-23T17:22:09Z</time></trkpt><trkpt lat="47.26100165866991" lon="-1.5878373105093724"><ele>37.0</ele><time>2026-03-23T17:22:11Z</time></trkpt><trkpt lat="47.26098699033936" lon="-1.5877264179304127"><ele>37.5</ele><time>2026-03-23T17:22:13Z</time></trkpt><trkpt lat="47.26097152572801" lon="-1.5876128431424383"><ele>38.0</ele><time>2026-03-23T17:22:15Z</time></trkpt><trkpt lat="47.26095547438344" lon="-1.5875064767911913"><ele>38.0</ele><time>2026-03-23T17:22:17Z</time></trkpt><trkpt lat="47.260933932892286" lon="-1.5873978473260881"><ele>38.0</ele><time>2026-03-23T17:22:19Z</time></trkpt><trkpt lat="47.26091356486758" lon="-1.5872805006816864"><ele>38.0</ele><time>2026-03-23T17:22:21Z</time></trkpt><trkpt lat="47.260895795232855" lon="-1.587161896751809"><ele>38.0</ele><time>2026-03-23T17:22:23Z</time></trkpt><trkpt lat="47.26087764841249" lon="-1.5870522614583251"><ele>38.0</ele><time>2026-03-23T17:22:25Z</time></trkpt><trkpt lat="47.26085748993536" lon="-1.5869443025454757"><ele>38.0</ele><time>2026-03-23T17:22:27Z</time></trkpt><trkpt lat="47.260844288437866" lon="-1.5868377685561652"><ele>38.166666666666664</ele><time>2026-03-23T17:22:29Z</time></trkpt><trkpt lat="47.260830542116665" lon="-1.5867080166950698"><ele>38.33333333333333</ele><time>2026-03-23T17:22:31Z</time></trkpt><trkpt lat="47.2608441207998" lon="-1.586610702799248"><ele>38.5</ele><time>2026-03-23T17:22:33Z</time></trkpt><trkpt lat="47.26084403698077" lon="-1.5864723175778859"><ele>38.666666666666664</ele><time>2026-03-23T17:22:35Z</time></trkpt><trkpt lat="47.26084873084655" lon="-1.5863468404874077"><ele>38.833333333333336</ele><time>2026-03-23T17:22:37Z</time></trkpt><trkpt lat="47.26086117797276" lon="-1.586197139696764"><ele>39.0</ele><time>2026-03-23T17:22:39Z</time></trkpt><trkpt lat="47.26090283603152" lon="-1.5860797930523622"><ele>39.0</ele><time>2026-03-23T17:22:41Z</time></trkpt><trkpt lat="47.26096209608694" lon="-1.5859486162677277"><ele>39.0</ele><time>2026-03-23T17:22:43Z</time></trkpt><trkpt lat="47.26100916047325" lon="-1.585810314865397"><ele>39.0</ele><time>2026-03-23T17:22:45Z</time></trkpt><trkpt lat="47.26105027370831" lon="-1.585737559945868"><ele>39.0</ele><time>2026-03-23T17:22:46Z</time></trkpt><trkpt lat="47.261109072759055" lon="-1.5856212191298469"><ele>39.0</ele><time>2026-03-23T17:22:48Z</time></trkpt><trkpt lat="47.261194861538016" lon="-1.5855528227999671"><ele>39.0</ele><time>2026-03-23T17:22:50Z</time></trkpt><trkpt lat="47.26130395200779" lon="-1.5855694189682468"><ele>39.0</ele><time>2026-03-23T17:22:52Z</time></trkpt><trkpt lat="47.261372641704284" lon="-1.585551062600301"><ele>39.0</ele><time>2026-03-23T17:22:56Z</time></trkpt><trkpt lat="47.26135374051263" lon="-1.5854393318310245"><ele>39.0</ele><time>2026-03-23T17:23:00Z</time></trkpt><trkpt lat="47.261287649206125" lon="-1.5853376593455535"><ele>39.0</ele><time>2026-03-23T17:23:03Z</time></trkpt><trkpt lat="47.26122960452666" lon="-1.5852322988226872"><ele>39.0</ele><time>2026-03-23T17:23:05Z</time></trkpt><trkpt lat="47.261155508502625" lon="-1.5851514134570817"><ele>39.4</ele><time>2026-03-23T17:23:07Z</time></trkpt><trkpt lat="47.261074581227504" lon="-1.5850554406657675"><ele>39.8</ele><time>2026-03-23T17:23:09Z</time></trkpt><trkpt lat="47.260992522395455" lon="-1.5849967673435668"><ele>40.199999999999996</ele><time>2026-03-23T17:23:11Z</time></trkpt><trkpt lat="47.26090019573202" lon="-1.5849273651853062"><ele>40.599999999999994</ele><time>2026-03-23T17:23:13Z</time></trkpt><trkpt lat="47.2607960086756" lon="-1.5848450548961617"><ele>41.0</ele><time>2026-03-23T17:23:15Z</time></trkpt><trkpt lat="47.26070573557844" lon="-1.5847764909282185"><ele>41.0</ele><time>2026-03-23T17:23:17Z</time></trkpt><trkpt lat="47.26062522739848" lon="-1.5848194900914885"><ele>41.0</ele><time>2026-03-23T17:23:20Z</time></trkpt><trkpt lat="47.260537929876946" lon="-1.5848454739913203"><ele>41.0</ele><time>2026-03-23T17:23:22Z</time></trkpt><trkpt lat="47.26046597123822" lon="-1.5847987867906548"><ele>41.0</ele><time>2026-03-23T17:23:24Z</time></trkpt><trkpt lat="47.26042686965992" lon="-1.584633747117207"><ele>41.0</ele><time>2026-03-23T17:23:27Z</time></trkpt><trkpt lat="47.2604091000252" lon="-1.5844827890410875"><ele>41.199999999999996</ele><time>2026-03-23T17:23:29Z</time></trkpt><trkpt lat="47.260384960144066" lon="-1.5842895023539516"><ele>41.4</ele><time>2026-03-23T17:23:31Z</time></trkpt><trkpt lat="47.26036693905225" lon="-1.5841905958965272"><ele>41.6</ele><time>2026-03-23T17:23:32Z</time></trkpt><trkpt lat="47.2603580961444" lon="-1.584021029995367"><ele>41.8</ele><time>2026-03-23T17:23:34Z</time></trkpt><trkpt lat="47.26035323464056" lon="-1.5839144960060565"><ele>42.0</ele><time>2026-03-23T17:23:35Z</time></trkpt><trkpt lat="47.260343679270946" lon="-1.5838167630150763"><ele>42.0</ele><time>2026-03-23T17:23:36Z</time></trkpt><trkpt lat="47.260318910747074" lon="-1.5837135817870345"><ele>42.0</ele><time>2026-03-23T17:23:37Z</time></trkpt><trkpt lat="47.26030415859749" lon="-1.583602102474853"><ele>42.0</ele><time>2026-03-23T17:23:38Z</time></trkpt><trkpt lat="47.26027897097846" lon="-1.583434464411422"><ele>42.0</ele><time>2026-03-23T17:23:40Z</time></trkpt><trkpt lat="47.260248083665275" lon="-1.58328241668789"><ele>42.0</ele><time>2026-03-23T17:23:42Z</time></trkpt><trkpt lat="47.26022230931302" lon="-1.5831866115346394"><ele>42.0</ele><time>2026-03-23T17:23:43Z</time></trkpt><trkpt lat="47.260215184695326" lon="-1.5830713603660307"><ele>41.833333333333336</ele><time>2026-03-23T17:23:44Z</time></trkpt><trkpt lat="47.26019230209967" lon="-1.5829819254591901"><ele>41.666666666666664</ele><time>2026-03-23T17:23:45Z</time></trkpt><trkpt lat="47.260181112258934" lon="-1.5828893892481763"><ele>41.5</ele><time>2026-03-23T17:23:46Z</time></trkpt><trkpt lat="47.26017034151336" lon="-1.5827328152969318"><ele>41.33333333333333</ele><time>2026-03-23T17:23:48Z</time></trkpt><trkpt lat="47.26014079530468" lon="-1.582639692352696"><ele>41.166666666666664</ele><time>2026-03-23T17:23:49Z</time></trkpt><trkpt lat="47.26016049277713" lon="-1.5824672766044572"><ele>41.0</ele><time>2026-03-23T17:23:51Z</time></trkpt><trkpt lat="47.26016183388164" lon="-1.5823109541103078"><ele>40.8</ele><time>2026-03-23T17:23:53Z</time></trkpt><trkpt lat="47.260118667080306" lon="-1.5821356046959592"><ele>40.599999999999994</ele><time>2026-03-23T17:23:55Z</time></trkpt><trkpt lat="47.26009532347997" lon="-1.5819415636375378"><ele>40.4</ele><time>2026-03-23T17:23:57Z</time></trkpt><trkpt lat="47.26006783083757" lon="-1.5817881748094984"><ele>40.2</ele><time>2026-03-23T17:23:59Z</time></trkpt><trkpt lat="47.26002001207998" lon="-1.5817077085390516"><ele>40.0</ele><time>2026-03-23T17:24:00Z</time></trkpt><trkpt lat="47.25997705482622" lon="-1.5816290862873026"><ele>39.833333333333336</ele><time>2026-03-23T17:24:01Z</time></trkpt><trkpt lat="47.2599188425087" lon="-1.5815734304502433"><ele>39.66666666666667</ele><time>2026-03-23T17:24:02Z</time></trkpt><trkpt lat="47.259803633249604" lon="-1.5814803075060075"><ele>39.5</ele><time>2026-03-23T17:24:04Z</time></trkpt><trkpt lat="47.25973750003358" lon="-1.581411240623874"><ele>39.333333333333336</ele><time>2026-03-23T17:24:05Z</time></trkpt><trkpt lat="47.2596667148613" lon="-1.581375617535395"><ele>39.166666666666664</ele><time>2026-03-23T17:24:06Z</time></trkpt><trkpt lat="47.25960083310237" lon="-1.5813090652242128"><ele>39.0</ele><time>2026-03-23T17:24:07Z</time></trkpt><trkpt lat="47.25953046702524" lon="-1.5812603663667861"><ele>39.0</ele><time>2026-03-23T17:24:08Z</time></trkpt><trkpt lat="47.25947426636448" lon="-1.581206219272298"><ele>39.0</ele><time>2026-03-23T17:24:09Z</time></trkpt><trkpt lat="47.2594220051982" lon="-1.581151150168461"><ele>39.0</ele><time>2026-03-23T17:24:10Z</time></trkpt><trkpt lat="47.259364421523415" lon="-1.5811025351300658"><ele>39.0</ele><time>2026-03-23T17:24:11Z</time></trkpt><trkpt lat="47.25930750840088" lon="-1.5810564346626224"><ele>39.0</ele><time>2026-03-23T17:24:12Z</time></trkpt><trkpt lat="47.25920822475781" lon="-1.5809756331160487"><ele>39.0</ele><time>2026-03-23T17:24:14Z</time></trkpt><trkpt lat="47.259149719073676" lon="-1.5809341426953496"><ele>39.0</ele><time>2026-03-23T17:24:15Z</time></trkpt><trkpt lat="47.25904100578954" lon="-1.5808113478138863"><ele>39.0</ele><time>2026-03-23T17:24:17Z</time></trkpt><trkpt lat="47.25898497276684" lon="-1.5807344019427716"><ele>39.0</ele><time>2026-03-23T17:24:18Z</time></trkpt><trkpt lat="47.25892847873946" lon="-1.5806743036970317"><ele>39.0</ele><time>2026-03-23T17:24:19Z</time></trkpt><trkpt lat="47.25886247125199" lon="-1.5806304663434443"><ele>39.0</ele><time>2026-03-23T17:24:20Z</time></trkpt><trkpt lat="47.25874742963096" lon="-1.5805997885778365"><ele>39.0</ele><time>2026-03-23T17:24:22Z</time></trkpt><trkpt lat="47.258691522336804" lon="-1.5805418696269211"><ele>39.0</ele><time>2026-03-23T17:24:23Z</time></trkpt><trkpt lat="47.25864286538889" lon="-1.5804754849538025"><ele>39.0</ele><time>2026-03-23T17:24:24Z</time></trkpt><trkpt lat="47.258587922013604" lon="-1.5804179850980455"><ele>39.0</ele><time>2026-03-23T17:24:25Z</time></trkpt><trkpt lat="47.25848587234249" lon="-1.5803272090866978"><ele>39.0</ele><time>2026-03-23T17:24:27Z</time></trkpt><trkpt lat="47.25842342716386" lon="-1.580261746422928"><ele>39.0</ele><time>2026-03-23T17:24:28Z</time></trkpt><trkpt lat="47.25836672358891" lon="-1.580202570186537"><ele>39.0</ele><time>2026-03-23T17:24:29Z</time></trkpt><trkpt lat="47.258301386653685" lon="-1.5801361855134182"><ele>39.0</ele><time>2026-03-23T17:24:30Z</time></trkpt><trkpt lat="47.25823848047038" lon="-1.5800708066686802"><ele>38.833333333333336</ele><time>2026-03-23T17:24:31Z</time></trkpt><trkpt lat="47.258173814087414" lon="-1.5800157375648431"><ele>38.666666666666664</ele><time>2026-03-23T17:24:32Z</time></trkpt><trkpt lat="47.25810604640027" lon="-1.579929990695398"><ele>38.5</ele><time>2026-03-23T17:24:33Z</time></trkpt><trkpt lat="47.2580371471562" lon="-1.5798642765745332"><ele>38.33333333333333</ele><time>2026-03-23T17:24:34Z</time></trkpt><trkpt lat="47.25796523042699" lon="-1.579798394815605"><ele>38.166666666666664</ele><time>2026-03-23T17:24:35Z</time></trkpt><trkpt lat="47.257895367264055" lon="-1.579757155852001"><ele>38.0</ele><time>2026-03-23T17:24:36Z</time></trkpt><trkpt lat="47.257823827720486" lon="-1.5796842332944083"><ele>38.0</ele><time>2026-03-23T17:24:37Z</time></trkpt><trkpt lat="47.257745037830674" lon="-1.5795719996109414"><ele>38.0</ele><time>2026-03-23T17:24:38Z</time></trkpt><trkpt lat="47.257665284021996" lon="-1.5795181877925801"><ele>38.0</ele><time>2026-03-23T17:24:39Z</time></trkpt><trkpt lat="47.25759625904938" lon="-1.5794399008169577"><ele>38.0</ele><time>2026-03-23T17:24:40Z</time></trkpt><trkpt lat="47.257524970962905" lon="-1.5793733485057757"><ele>38.0</ele><time>2026-03-23T17:24:41Z</time></trkpt><trkpt lat="47.25745007865807" lon="-1.5793129988029406"><ele>38.0</ele><time>2026-03-23T17:24:42Z</time></trkpt><trkpt lat="47.25737535399129" lon="-1.5792456083014415"><ele>38.0</ele><time>2026-03-23T17:24:43Z</time></trkpt><trkpt lat="47.25730716720899" lon="-1.579170590268056"><ele>38.0</ele><time>2026-03-23T17:24:44Z</time></trkpt><trkpt lat="47.257232358723186" lon="-1.5790832508370085"><ele>38.0</ele><time>2026-03-23T17:24:45Z</time></trkpt><trkpt lat="47.25716987163504" lon="-1.5791177842780753"><ele>38.0</ele><time>2026-03-23T17:24:46Z</time></trkpt><trkpt lat="47.25710411560466" lon="-1.5790928900256558"><ele>38.0</ele><time>2026-03-23T17:24:47Z</time></trkpt><trkpt lat="47.257040245502495" lon="-1.5790285170092984"><ele>38.166666666666664</ele><time>2026-03-23T17:24:48Z</time></trkpt><trkpt lat="47.25697440565308" lon="-1.5789686702206533"><ele>38.33333333333333</ele><time>2026-03-23T17:24:49Z</time></trkpt><trkpt lat="47.256913762583636" lon="-1.5788978431388538"><ele>38.5</ele><time>2026-03-23T17:24:50Z</time></trkpt><trkpt lat="47.25685006011953" lon="-1.5788318775608938"><ele>38.666666666666664</ele><time>2026-03-23T17:24:51Z</time></trkpt><trkpt lat="47.25678401072254" lon="-1.5787677560016316"><ele>38.833333333333336</ele><time>2026-03-23T17:24:52Z</time></trkpt><trkpt lat="47.25671670404007" lon="-1.5787235833719173"><ele>39.0</ele><time>2026-03-23T17:24:53Z</time></trkpt><trkpt lat="47.25665178620001" lon="-1.5786546841278473"><ele>39.0</ele><time>2026-03-23T17:24:54Z</time></trkpt><trkpt lat="47.25658955056896" lon="-1.5786204021438757"><ele>39.0</ele><time>2026-03-23T17:24:55Z</time></trkpt><trkpt lat="47.25653158970853" lon="-1.5785662550493875"><ele>39.0</ele><time>2026-03-23T17:24:56Z</time></trkpt><trkpt lat="47.256427821747266" lon="-1.5785101801171697"><ele>39.0</ele><time>2026-03-23T17:24:58Z</time></trkpt><trkpt lat="47.25632531107148" lon="-1.5784261096283592"><ele>39.0</ele><time>2026-03-23T17:25:00Z</time></trkpt><trkpt lat="47.256223261400365" lon="-1.5783285442754424"><ele>39.166666666666664</ele><time>2026-03-23T17:25:02Z</time></trkpt><trkpt lat="47.25616462998768" lon="-1.578251766042391"><ele>39.333333333333336</ele><time>2026-03-23T17:25:03Z</time></trkpt><trkpt lat="47.25610767495563" lon="-1.5781857166453992"><ele>39.5</ele><time>2026-03-23T17:25:04Z</time></trkpt><trkpt lat="47.256041248372995" lon="-1.5781181585058366"><ele>39.66666666666667</ele><time>2026-03-23T17:25:05Z</time></trkpt><trkpt lat="47.255986304997705" lon="-1.578059401364604"><ele>39.833333333333336</ele><time>2026-03-23T17:25:06Z</time></trkpt><trkpt lat="47.25592700303277" lon="-1.5780086070313843"><ele>40.0</ele><time>2026-03-23T17:25:07Z</time></trkpt><trkpt lat="47.255811165130936" lon="-1.577926548199335"><ele>40.0</ele><time>2026-03-23T17:25:09Z</time></trkpt><trkpt lat="47.25574750457635" lon="-1.5778827108457478"><ele>40.0</ele><time>2026-03-23T17:25:10Z</time></trkpt><trkpt lat="47.255638372197055" lon="-1.5777627658113629"><ele>40.0</ele><time>2026-03-23T17:25:12Z</time></trkpt><trkpt lat="47.25552785680374" lon="-1.577669978143254"><ele>40.0</ele><time>2026-03-23T17:25:14Z</time></trkpt><trkpt lat="47.255469309210085" lon="-1.5776115562781483"><ele>40.0</ele><time>2026-03-23T17:25:15Z</time></trkpt><trkpt lat="47.25537140858104" lon="-1.577554726974645"><ele>39.8</ele><time>2026-03-23T17:25:17Z</time></trkpt><trkpt lat="47.255309550135635" lon="-1.5775942057385832"><ele>39.6</ele><time>2026-03-23T17:25:19Z</time></trkpt><trkpt lat="47.25524027370592" lon="-1.5774830617025284"><ele>39.4</ele><time>2026-03-23T17:25:22Z</time></trkpt><trkpt lat="47.25516747687688" lon="-1.5773740969612984"><ele>39.2</ele><time>2026-03-23T17:25:24Z</time></trkpt><trkpt lat="47.255064421377384" lon="-1.577266640962639"><ele>39.0</ele><time>2026-03-23T17:25:26Z</time></trkpt><trkpt lat="47.25500960373064" lon="-1.5772205404951956"><ele>39.0</ele><time>2026-03-23T17:25:27Z</time></trkpt><trkpt lat="47.25495218769392" lon="-1.577171506361642"><ele>39.0</ele><time>2026-03-23T17:25:28Z</time></trkpt><trkpt lat="47.25489590321412" lon="-1.5771251544371034"><ele>39.0</ele><time>2026-03-23T17:25:29Z</time></trkpt><trkpt lat="47.25478807002982" lon="-1.5770637989058875"><ele>39.0</ele><time>2026-03-23T17:25:31Z</time></trkpt><trkpt lat="47.25472897761246" lon="-1.5770243201419496"><ele>39.0</ele><time>2026-03-23T17:25:32Z</time></trkpt><trkpt lat="47.25461158905854" lon="-1.5769687481239223"><ele>39.0</ele><time>2026-03-23T17:25:34Z</time></trkpt><trkpt lat="47.25450417496939" lon="-1.5768612083062314"><ele>38.833333333333336</ele><time>2026-03-23T17:25:36Z</time></trkpt><trkpt lat="47.25444411863317" lon="-1.5768094919636628"><ele>38.666666666666664</ele><time>2026-03-23T17:25:37Z</time></trkpt><trkpt lat="47.25438217636873" lon="-1.576722571627774"><ele>38.5</ele><time>2026-03-23T17:25:38Z</time></trkpt><trkpt lat="47.254298650703625" lon="-1.5766222402468106"><ele>38.33333333333333</ele><time>2026-03-23T17:25:40Z</time></trkpt><trkpt lat="47.25423088301648" lon="-1.576583767311253"><ele>38.166666666666664</ele><time>2026-03-23T17:25:43Z</time></trkpt><trkpt lat="47.25416303151031" lon="-1.5765562746688504"><ele>38.0</ele><time>2026-03-23T17:25:45Z</time></trkpt><trkpt lat="47.254093252166406" lon="-1.576509000734963"><ele>38.0</ele><time>2026-03-23T17:25:47Z</time></trkpt><trkpt lat="47.25399183113803" lon="-1.5764523390695233"><ele>38.0</ele><time>2026-03-23T17:25:49Z</time></trkpt><trkpt lat="47.25392838013102" lon="-1.5764354914441485"><ele>38.0</ele><time>2026-03-23T17:25:50Z</time></trkpt><trkpt lat="47.25380160384555" lon="-1.576407663525619"><ele>38.0</ele><time>2026-03-23T17:25:52Z</time></trkpt><trkpt lat="47.25373019003053" lon="-1.5763840265586753"><ele>38.0</ele><time>2026-03-23T17:25:53Z</time></trkpt><trkpt lat="47.25365269933571" lon="-1.5763746388271231"><ele>37.83333333333333</ele><time>2026-03-23T17:25:54Z</time></trkpt><trkpt lat="47.25354038183321" lon="-1.576320407913603"><ele>37.666666666666664</ele><time>2026-03-23T17:25:56Z</time></trkpt><trkpt lat="47.25347848147829" lon="-1.5762947592898982"><ele>37.5</ele><time>2026-03-23T17:25:57Z</time></trkpt><trkpt lat="47.253404972187475" lon="-1.5762827731683628"><ele>37.333333333333336</ele><time>2026-03-23T17:25:59Z</time></trkpt><trkpt lat="47.25332852923055" lon="-1.5762736368939059"><ele>37.16666666666667</ele><time>2026-03-23T17:26:02Z</time></trkpt><trkpt lat="47.2532604681768" lon="-1.576280342416443"><ele>37.0</ele><time>2026-03-23T17:26:08Z</time></trkpt><trkpt lat="47.25318809044291" lon="-1.5762749779984133"><ele>37.0</ele><time>2026-03-23T17:26:24.001Z</time></trkpt><trkpt lat="47.2531032236733" lon="-1.5762766543790476"><ele>37.0</ele><time>2026-03-23T17:26:27.001Z</time></trkpt><trkpt lat="47.25303025920619" lon="-1.5762717090561764"><ele>37.0</ele><time>2026-03-23T17:26:29.001Z</time></trkpt><trkpt lat="47.25299606104125" lon="-1.5761648397907393"><ele>37.0</ele><time>2026-03-23T17:26:31.001Z</time></trkpt><trkpt lat="47.25300368857314" lon="-1.5760671906187906"><ele>37.0</ele><time>2026-03-23T17:26:33.001Z</time></trkpt><trkpt lat="47.25300071299751" lon="-1.5759629197433367"><ele>37.0</ele><time>2026-03-23T17:26:36.001Z</time></trkpt><trkpt lat="47.25297041241755" lon="-1.5758687071516884"><ele>37.0</ele><time>2026-03-23T17:26:40.001Z</time></trkpt><trkpt lat="47.25290935025294" lon="-1.5757318306728971"><ele>37.0</ele><time>2026-03-23T17:26:42.001Z</time></trkpt><trkpt lat="47.25285319150169" lon="-1.5755906794234882"><ele>37.0</ele><time>2026-03-23T17:26:44.001Z</time></trkpt><trkpt lat="47.25281444102525" lon="-1.575417754582805"><ele>37.0</ele><time>2026-03-23T17:26:46.001Z</time></trkpt><trkpt lat="47.25278265809045" lon="-1.5753322095501863"><ele>37.0</ele><time>2026-03-23T17:26:47.001Z</time></trkpt><trkpt lat="47.252748281141855" lon="-1.57523968257259"><ele>37.0</ele><time>2026-03-23T17:26:48.001Z</time></trkpt><trkpt lat="47.2526964918219" lon="-1.5751295909300214"><ele>37.0</ele><time>2026-03-23T17:26:49.001Z</time></trkpt><trkpt lat="47.25266552068968" lon="-1.5750374738141661"><ele>37.0</ele><time>2026-03-23T17:26:50.001Z</time></trkpt><trkpt lat="47.25259565752675" lon="-1.574873691426194"><ele>37.0</ele><time>2026-03-23T17:26:52.001Z</time></trkpt><trkpt lat="47.252550856254295" lon="-1.574771516026533"><ele>37.0</ele><time>2026-03-23T17:26:53.001Z</time></trkpt><trkpt lat="47.25251996894111" lon="-1.5746708493694426"><ele>37.0</ele><time>2026-03-23T17:26:54.001Z</time></trkpt><trkpt lat="47.25246347491373" lon="-1.5745101682856442"><ele>37.0</ele><time>2026-03-23T17:26:56.001Z</time></trkpt><trkpt lat="47.25243003112008" lon="-1.5744169615223764"><ele>37.0</ele><time>2026-03-23T17:26:57.001Z</time></trkpt><trkpt lat="47.25239612632175" lon="-1.5743075776859878"><ele>37.0</ele><time>2026-03-23T17:26:58.001Z</time></trkpt><trkpt lat="47.25236968141724" lon="-1.5741936676218864"><ele>37.0</ele><time>2026-03-23T17:26:59.001Z</time></trkpt><trkpt lat="47.252323203764156" lon="-1.5740864630803224"><ele>37.0</ele><time>2026-03-23T17:27:00.001Z</time></trkpt><trkpt lat="47.25230836779554" lon="-1.5739666018649692"><ele>37.0</ele><time>2026-03-23T17:27:01.001Z</time></trkpt><trkpt lat="47.25227115214546" lon="-1.5738577209427709"><ele>37.2</ele><time>2026-03-23T17:27:02.001Z</time></trkpt><trkpt lat="47.25221578967501" lon="-1.5736828744426123"><ele>37.400000000000006</ele><time>2026-03-23T17:27:04.001Z</time></trkpt><trkpt lat="47.25218356125732" lon="-1.5735811181381099"><ele>37.599999999999994</ele><time>2026-03-23T17:27:05.001Z</time></trkpt><trkpt lat="47.252134024209575" lon="-1.5734871570035567"><ele>37.8</ele><time>2026-03-23T17:27:06.001Z</time></trkpt><trkpt lat="47.25208947439422" lon="-1.573394872249638"><ele>38.0</ele><time>2026-03-23T17:27:07.001Z</time></trkpt><trkpt lat="47.252047816335455" lon="-1.573251122610246"><ele>38.0</ele><time>2026-03-23T17:27:08.001Z</time></trkpt><trkpt lat="47.25199387878855" lon="-1.573155988009249"><ele>38.0</ele><time>2026-03-23T17:27:09.001Z</time></trkpt><trkpt lat="47.25195205309172" lon="-1.5730842389181006"><ele>38.0</ele><time>2026-03-23T17:27:10.001Z</time></trkpt><trkpt lat="47.25190993402828" lon="-1.57298600301293"><ele>38.0</ele><time>2026-03-23T17:27:11.001Z</time></trkpt><trkpt lat="47.25186454602261" lon="-1.5728795528426514"><ele>38.0</ele><time>2026-03-23T17:27:12.001Z</time></trkpt><trkpt lat="47.25182850383897" lon="-1.572755333037649"><ele>38.0</ele><time>2026-03-23T17:27:13.001Z</time></trkpt><trkpt lat="47.251789611808256" lon="-1.5726778004333122"><ele>37.8</ele><time>2026-03-23T17:27:14.001Z</time></trkpt><trkpt lat="47.25174548108806" lon="-1.57257948070911"><ele>37.599999999999994</ele><time>2026-03-23T17:27:15.001Z</time></trkpt><trkpt lat="47.25169053771277" lon="-1.5724487230196338"><ele>37.400000000000006</ele><time>2026-03-23T17:27:17.001Z</time></trkpt><trkpt lat="47.25164871201594" lon="-1.5723506547525268"><ele>37.2</ele><time>2026-03-23T17:27:18.001Z</time></trkpt><trkpt lat="47.251565018712775" lon="-1.5721742156907657"><ele>37.0</ele><time>2026-03-23T17:27:20.001Z</time></trkpt><trkpt lat="47.25149888549675" lon="-1.5720710344627238"><ele>37.0</ele><time>2026-03-23T17:27:21.001Z</time></trkpt><trkpt lat="47.251452826938824" lon="-1.5719779953375197"><ele>37.0</ele><time>2026-03-23T17:27:22.001Z</time></trkpt><trkpt lat="47.25140287079592" lon="-1.5718651749208308"><ele>37.0</ele><time>2026-03-23T17:27:23.001Z</time></trkpt><trkpt lat="47.251362763389245" lon="-1.5717697888627384"><ele>37.0</ele><time>2026-03-23T17:27:24.001Z</time></trkpt><trkpt lat="47.25131192714651" lon="-1.571680102498803"><ele>37.0</ele><time>2026-03-23T17:27:25.001Z</time></trkpt><trkpt lat="47.25126892798324" lon="-1.5715873148306938"><ele>37.0</ele><time>2026-03-23T17:27:26.001Z</time></trkpt><trkpt lat="47.25123301152815" lon="-1.5715010650470587"><ele>37.0</ele><time>2026-03-23T17:27:27.001Z</time></trkpt><trkpt lat="47.25118007980962" lon="-1.5714443195625873"><ele>37.0</ele><time>2026-03-23T17:27:28.001Z</time></trkpt><trkpt lat="47.251130375123815" lon="-1.5713350195452302"><ele>37.0</ele><time>2026-03-23T17:27:29.001Z</time></trkpt><trkpt lat="47.25107618611981" lon="-1.5711521264180273"><ele>37.0</ele><time>2026-03-23T17:27:31.001Z</time></trkpt><trkpt lat="47.25103310313751" lon="-1.5710451733335582"><ele>37.0</ele><time>2026-03-23T17:27:32.001Z</time></trkpt><trkpt lat="47.25099194799294" lon="-1.570961857216033"><ele>37.0</ele><time>2026-03-23T17:27:33.001Z</time></trkpt><trkpt lat="47.25094345868309" lon="-1.570850210265788"><ele>37.0</ele><time>2026-03-23T17:27:34.001Z</time></trkpt><trkpt lat="47.25090460856189" lon="-1.5707678161576117"><ele>37.0</ele><time>2026-03-23T17:27:35.001Z</time></trkpt><trkpt lat="47.250859220556215" lon="-1.5706728491946782"><ele>37.0</ele><time>2026-03-23T17:27:36.001Z</time></trkpt><trkpt lat="47.250809138684765" lon="-1.5705865994110428"><ele>37.0</ele><time>2026-03-23T17:27:37.001Z</time></trkpt><trkpt lat="47.25077867046674" lon="-1.5705037023886763"><ele>37.0</ele><time>2026-03-23T17:27:38.001Z</time></trkpt><trkpt lat="47.25073860496958" lon="-1.5704108309015357"><ele>37.0</ele><time>2026-03-23T17:27:39.001Z</time></trkpt><trkpt lat="47.25069853947242" lon="-1.5703363996013722"><ele>37.0</ele><time>2026-03-23T17:27:40.001Z</time></trkpt><trkpt lat="47.25066605959763" lon="-1.570247216151627"><ele>36.5</ele><time>2026-03-23T17:27:41.001Z</time></trkpt><trkpt lat="47.25062192887743" lon="-1.5701266005649883"><ele>36.0</ele><time>2026-03-23T17:27:42.001Z</time></trkpt><trkpt lat="47.25059841763903" lon="-1.5700374171152431"><ele>35.5</ele><time>2026-03-23T17:27:43.001Z</time></trkpt><trkpt lat="47.25056271073152" lon="-1.5699442941710073"><ele>35.0</ele><time>2026-03-23T17:27:44.001Z</time></trkpt><trkpt lat="47.25051091056992" lon="-1.5698221698417978"><ele>34.5</ele><time>2026-03-23T17:27:45.001Z</time></trkpt><trkpt lat="47.25047968798061" lon="-1.5697227604701833"><ele>34.0</ele><time>2026-03-23T17:27:46.001Z</time></trkpt><trkpt lat="47.250441466502146" lon="-1.5696411207332923"><ele>34.0</ele><time>2026-03-23T17:27:47.001Z</time></trkpt><trkpt lat="47.250403035476104" lon="-1.5695256181075885"><ele>34.0</ele><time>2026-03-23T17:27:48.001Z</time></trkpt><trkpt lat="47.25036058113654" lon="-1.5694077685489964"><ele>34.0</ele><time>2026-03-23T17:27:49.001Z</time></trkpt><trkpt lat="47.25031519313087" lon="-1.569306598977716"><ele>34.0</ele><time>2026-03-23T17:27:50.001Z</time></trkpt><trkpt lat="47.250253292775945" lon="-1.5692143980428288"><ele>34.0</ele><time>2026-03-23T17:27:51.001Z</time></trkpt><trkpt lat="47.25019621201535" lon="-1.5691369492575238"><ele>34.0</ele><time>2026-03-23T17:27:52.001Z</time></trkpt><trkpt lat="47.25014835134824" lon="-1.5690466761603663"><ele>34.16666666666667</ele><time>2026-03-23T17:27:53.001Z</time></trkpt><trkpt lat="47.250083810693816" lon="-1.5689763519927569"><ele>34.333333333333336</ele><time>2026-03-23T17:27:54.001Z</time></trkpt><trkpt lat="47.250027274756924" lon="-1.5689083747580357"><ele>34.5</ele><time>2026-03-23T17:27:55.001Z</time></trkpt><trkpt lat="47.24995883651753" lon="-1.5688397269710608"><ele>34.666666666666664</ele><time>2026-03-23T17:27:56.001Z</time></trkpt><trkpt lat="47.249877029142574" lon="-1.5688160061850853"><ele>34.83333333333333</ele><time>2026-03-23T17:27:57.001Z</time></trkpt><trkpt lat="47.24978897724976" lon="-1.5687653794899292"><ele>35.0</ele><time>2026-03-23T17:27:58.001Z</time></trkpt><trkpt lat="47.2497142944925" lon="-1.5687311813249891"><ele>35.2</ele><time>2026-03-23T17:27:59.001Z</time></trkpt><trkpt lat="47.24962800279935" lon="-1.568697653712303"><ele>35.4</ele><time>2026-03-23T17:28:00.001Z</time></trkpt><trkpt lat="47.24953450266947" lon="-1.568664964289934"><ele>35.6</ele><time>2026-03-23T17:28:01.001Z</time></trkpt><trkpt lat="47.24944846243341" lon="-1.5686424169704025"><ele>35.8</ele><time>2026-03-23T17:28:02.001Z</time></trkpt><trkpt lat="47.24936250601639" lon="-1.568603105844528"><ele>36.0</ele><time>2026-03-23T17:28:03.001Z</time></trkpt><trkpt lat="47.24927223291923" lon="-1.5685814805343454"><ele>36.0</ele><time>2026-03-23T17:28:04.001Z</time></trkpt><trkpt lat="47.249180534898535" lon="-1.568556586281926"><ele>36.0</ele><time>2026-03-23T17:28:05.001Z</time></trkpt><trkpt lat="47.24908871114929" lon="-1.568529764191777"><ele>36.0</ele><time>2026-03-23T17:28:06.001Z</time></trkpt><trkpt lat="47.24899646830489" lon="-1.5684964880361858"><ele>36.0</ele><time>2026-03-23T17:28:07.001Z</time></trkpt><trkpt lat="47.24890632093628" lon="-1.5684614516809288"><ele>36.0</ele><time>2026-03-23T17:28:08.001Z</time></trkpt><trkpt lat="47.24881001286884" lon="-1.5684294328108135"><ele>35.333333333333336</ele><time>2026-03-23T17:28:09.001Z</time></trkpt><trkpt lat="47.248715548820094" lon="-1.5684071369483772"><ele>34.666666666666664</ele><time>2026-03-23T17:28:10.001Z</time></trkpt><trkpt lat="47.24862636537035" lon="-1.5683849249049726"><ele>34.0</ele><time>2026-03-23T17:28:11.001Z</time></trkpt><trkpt lat="47.248545773371355" lon="-1.568344775588781"><ele>33.33333333333333</ele><time>2026-03-23T17:28:12.001Z</time></trkpt><trkpt lat="47.248454703993396" lon="-1.5683170314892831"><ele>32.666666666666664</ele><time>2026-03-23T17:28:13.001Z</time></trkpt><trkpt lat="47.24837616556068" lon="-1.568277888001472"><ele>32.0</ele><time>2026-03-23T17:28:14.001Z</time></trkpt><trkpt lat="47.24828006704082" lon="-1.5682519879206718"><ele>31.999999999999996</ele><time>2026-03-23T17:28:15.001Z</time></trkpt><trkpt lat="47.24819595464249" lon="-1.5682158619180024"><ele>32.0</ele><time>2026-03-23T17:28:16.001Z</time></trkpt><trkpt lat="47.248112135610775" lon="-1.568179484458238"><ele>32.0</ele><time>2026-03-23T17:28:17.001Z</time></trkpt><trkpt lat="47.24802668210794" lon="-1.5681328810766042"><ele>32.0</ele><time>2026-03-23T17:28:18.001Z</time></trkpt><trkpt lat="47.24795183171262" lon="-1.5680949948742688"><ele>31.999999999999996</ele><time>2026-03-23T17:28:19.001Z</time></trkpt><trkpt lat="47.2478717007183" lon="-1.5680577792241872"><ele>32.0</ele><time>2026-03-23T17:28:20.001Z</time></trkpt><trkpt lat="47.24779257555236" lon="-1.5679944120362102"><ele>31.6</ele><time>2026-03-23T17:28:21.001Z</time></trkpt><trkpt lat="47.24770909179677" lon="-1.567937918008834"><ele>31.200000000000003</ele><time>2026-03-23T17:28:22.001Z</time></trkpt><trkpt lat="47.24762967326422" lon="-1.567879328505665"><ele>30.8</ele><time>2026-03-23T17:28:23.001Z</time></trkpt><trkpt lat="47.247560229196445" lon="-1.5678179729744492"><ele>30.4</ele><time>2026-03-23T17:28:24.001Z</time></trkpt><trkpt lat="47.24744401410897" lon="-1.567715462298661"><ele>30.0</ele><time>2026-03-23T17:28:26.001Z</time></trkpt><trkpt lat="47.24738420922984" lon="-1.5676623210325535"><ele>29.6</ele><time>2026-03-23T17:28:27.001Z</time></trkpt><trkpt lat="47.24727172408928" lon="-1.567616807298332"><ele>29.2</ele><time>2026-03-23T17:28:29.001Z</time></trkpt><trkpt lat="47.247189161158175" lon="-1.5677313122215926"><ele>28.799999999999997</ele><time>2026-03-23T17:28:31.001Z</time></trkpt><trkpt lat="47.24715207055722" lon="-1.5678173647131464"><ele>28.4</ele><time>2026-03-23T17:28:32.001Z</time></trkpt><trkpt lat="47.24711108348652" lon="-1.5679678475847645"><ele>28.0</ele><time>2026-03-23T17:28:34.001Z</time></trkpt><trkpt lat="47.24708552631229" lon="-1.5681350176673556"><ele>28.0</ele><time>2026-03-23T17:28:36.001Z</time></trkpt><trkpt lat="47.247064398018594" lon="-1.568304965280316"><ele>28.0</ele><time>2026-03-23T17:28:38.001Z</time></trkpt><trkpt lat="47.24704450608699" lon="-1.568464967968492"><ele>28.0</ele><time>2026-03-23T17:28:40.001Z</time></trkpt><trkpt lat="47.246994157365755" lon="-1.5686376392855947"><ele>28.0</ele><time>2026-03-23T17:28:42.001Z</time></trkpt><trkpt lat="47.24695170302619" lon="-1.5687663853183098"><ele>28.166666666666668</ele><time>2026-03-23T17:28:44.001Z</time></trkpt><trkpt lat="47.24689076659013" lon="-1.5688341949149676"><ele>28.333333333333336</ele><time>2026-03-23T17:28:46.001Z</time></trkpt><trkpt lat="47.24681545519013" lon="-1.5688661299660511"><ele>28.5</ele><time>2026-03-23T17:28:48.001Z</time></trkpt><trkpt lat="47.24674395755608" lon="-1.5688433311894245"><ele>28.666666666666664</ele><time>2026-03-23T17:28:50.001Z</time></trkpt><trkpt lat="47.24666797560383" lon="-1.5687944646939345"><ele>28.833333333333332</ele><time>2026-03-23T17:28:52.001Z</time></trkpt><trkpt lat="47.24660037555475" lon="-1.5688045229777403"><ele>29.0</ele><time>2026-03-23T17:28:54.001Z</time></trkpt><trkpt lat="47.2465302190252" lon="-1.5688613522812433"><ele>29.0</ele><time>2026-03-23T17:29:04.001Z</time></trkpt></trkseg></trk></gpx>